[[{"header":{"parameterUnit":"m.s-1","parameterCategory":1,"la1":30.6,"la2":28.766,"lo1":-90.7593,"lo2":-88.6598,"dx":0.0162,"dy":0.0183,"nx":116,"ny":114,"refTime":"2022-12-30T06:00:00:Z","depth":0,"parameterNumber":2,"parameterNumberName":"U-component_of_WINDS"},"data":[0.0,0.0,0.0,0.0,0.0,0.0,0.0,0.0,0.0,0.0,0.0,0.0,0.0,0.0,0.0,0.0,0.0,0.0,0.0,0.0,0.0,0.0,0.0,0.0,0.0,0.0,0.0,0.0,0.0,0.0,0.0,0.0,0.0,0.0,0.0,0.0,0.0,0.0,0.0,0.0,0.0,0.0,0.0,0.0,0.0,0.0,0.0,0.0,0.0,0.0,0.0,0.0,0.0,0.0,0.0,0.0,0.0,0.0,0.0,0.0,0.0,0.0,0.0,0.0,0.0,0.0,0.0,0.0,0.0,0.0,0.0,0.0,0.0,0.0,0.0,0.0,0.0,0.0,0.0,0.0,0.0,0.0,0.0,0.0,0.0,0.0,0.0,0.0,0.0,0.0,0.0,0.0,0.0,0.0,0.0,0.0,0.0,0.0,0.0,0.0,0.0,0.0,0.0,0.0,0.0,0.0,0.0,0.0,0.0,0.0,0.0,0.0,0.0,0.0,0.0,0.0,0.0,0.0,0.0,0.0,0.0,0.0,0.0,0.0,0.0,0.0,0.0,0.0,0.0,0.0,0.0,0.0,0.0,0.0,0.0,0.0,0.0,0.0,0.0,0.0,0.0,0.0,0.0,0.0,0.0,0.0,0.0,0.0,0.0,0.0,0.0,0.0,0.0,0.0,0.0,0.0,0.0,0.0,0.0,0.0,0.0,0.0,0.0,0.0,0.0,0.0,0.0,0.0,0.0,0.0,0.0,0.0,0.0,0.0,0.0,0.0,0.0,0.0,0.0,0.0,0.0,0.0,0.0,0.0,0.0,0.0,0.0,0.0,0.0,0.0,0.0,0.0,0.0,0.0,0.0,0.0,0.0,0.0,0.0,0.0,0.0,0.0,0.0,0.0,0.0,0.0,0.0,0.0,0.0,0.0,0.0,0.0,0.0,0.0,0.0,0.0,0.0,0.0,0.0,0.0,0.0,0.0,0.0,0.0,0.0,0.0,0.0,0.0,0.0,0.0,0.0,0.0,0.0,0.0,0.0,0.0,0.0,0.0,0.0,0.0,0.0,0.0,0.0,0.0,0.0,0.0,0.0,0.0,0.0,0.0,0.0,0.0,0.0,0.0,0.0,0.0,0.0,0.0,0.0,0.0,0.0,0.0,0.0,0.0,0.0,0.0,0.0,0.0,0.0,0.0,0.0,0.0,0.0,0.0,0.0,0.0,0.0,0.0,0.0,0.0,0.0,0.0,0.0,0.0,0.0,0.0,0.0,0.0,0.0,0.0,0.0,0.0,0.0,0.0,0.0,0.0,0.0,0.0,0.0,0.0,0.0,0.0,0.0,0.0,0.0,0.0,0.0,0.0,0.0,0.0,0.0,0.0,0.0,0.0,0.0,0.0,0.0,0.0,0.0,0.0,0.0,0.0,0.0,0.0,0.0,0.0,0.0,0.0,0.0,0.0,0.0,0.0,0.0,0.0,0.0,0.0,0.0,0.0,0.0,0.0,0.0,0.0,0.0,0.0,0.0,0.0,0.0,0.0,0.0,0.0,0.0,0.0,0.0,0.0,0.0,0.0,0.0,0.0,0.0,0.0,0.0,0.0,0.0,0.0,0.0,0.0,0.0,0.0,0.0,0.0,0.0,0.0,0.0,0.0,0.0,0.0,0.0,0.0,0.0,0.0,0.0,0.0,0.0,0.0,0.0,0.0,0.0,0.0,0.0,0.0,0.0,0.0,0.0,0.0,0.0,0.0,0.0,0.0,0.0,0.0,0.0,0.0,0.0,0.0,0.0,0.0,0.0,0.0,0.0,0.0,0.0,0.0,0.0,0.0,0.0,0.0,0.0,0.0,0.0,0.0,0.0,0.0,0.0,0.0,0.0,0.0,0.0,0.0,0.0,0.0,0.0,0.0,0.0,0.0,0.0,0.0,0.0,0.0,0.0,0.0,0.0,0.0,0.0,0.0,0.0,0.0,0.0,0.0,0.0,0.0,0.0,0.0,0.0,0.0,0.0,0.0,0.0,0.0,0.0,0.0,0.0,0.0,0.0,0.0,0.0,0.0,0.0,0.0,0.0,0.0,0.0,0.0,0.0,0.0,0.0,0.0,0.0,0.0,0.0,0.0,0.0,0.0,0.0,0.0,0.0,0.0,0.0,0.0,0.0,0.0,0.0,0.0,0.0,0.0,0.0,0.0,0.0,0.0,0.0,0.0,0.0,0.0,0.0,0.0,0.0,0.0,0.0,0.0,0.0,0.0,0.0,0.0,0.0,0.0,0.0,0.0,0.0,0.0,0.0,0.0,0.0,0.0,0.0,0.0,0.0,0.0,0.0,0.0,0.0,0.0,0.0,0.0,0.0,0.0,0.0,0.0,0.0,0.0,0.0,0.0,0.0,0.0,0.0,0.0,0.0,0.0,0.0,0.0,0.0,0.0,0.0,0.0,0.0,0.0,0.0,0.0,0.0,0.0,0.0,0.0,0.0,0.0,0.0,0.0,0.0,0.0,0.0,0.0,0.0,0.0,0.0,0.0,0.0,0.0,0.0,0.0,0.0,0.0,0.0,0.0,0.0,0.0,0.0,0.0,0.0,0.0,0.0,0.0,0.0,0.0,0.0,0.0,0.0,0.0,0.0,0.0,0.0,0.0,0.0,0.0,0.0,0.0,0.0,0.0,0.0,0.0,0.0,0.0,0.0,0.0,0.0,0.0,0.0,0.0,0.0,0.0,0.0,0.0,0.0,0.0,0.0,0.0,0.0,0.0,0.0,0.0,0.0,0.0,0.0,0.0,0.0,0.0,0.0,0.0,0.0,0.0,0.0,0.0,0.0,0.0,0.0,0.0,0.0,0.0,0.0,0.0,0.0,0.0,0.0,0.0,0.0,0.0,0.0,0.0,0.0,0.0,0.0,0.0,0.0,0.0,0.0,0.0,0.0,0.0,0.0,0.0,0.0,0.0,0.0,0.0,0.0,0.0,0.0,0.0,0.0,0.0,0.0,0.0,0.0,0.0,0.0,0.0,0.0,0.0,0.0,0.0,0.0,0.0,0.0,0.0,0.0,0.0,0.0,0.0,0.0,0.0,0.0,0.0,0.0,0.0,0.0,0.0,0.0,0.0,0.0,0.0,0.0,0.0,0.0,0.0,0.0,0.0,0.0,0.0,0.0,0.0,0.0,0.0,0.0,0.0,0.0,0.0,0.0,0.0,0.0,0.0,0.0,0.0,0.0,0.0,0.0,0.0,0.0,0.0,0.0,0.0,0.0,0.0,0.0,0.0,0.0,0.0,0.0,0.0,0.0,0.0,0.0,0.0,0.0,0.0,0.0,0.0,0.0,0.0,0.0,0.0,0.0,0.0,0.0,0.0,0.0,0.0,0.0,0.0,0.0,0.0,0.0,0.0,0.0,0.0,0.0,0.0,0.0,0.0,0.0,0.0,0.0,0.0,0.0,0.0,0.0,0.0,0.0,0.0,0.0,0.0,0.0,0.0,0.0,0.0,0.0,0.0,0.0,0.0,0.0,0.0,0.0,0.0,0.0,0.0,0.0,0.0,0.0,0.0,0.0,0.0,0.0,0.0,0.0,0.0,0.0,0.0,0.0,0.0,0.0,0.0,0.0,0.0,0.0,0.0,0.0,0.0,0.0,0.0,0.0,0.0,0.0,0.0,0.0,0.0,0.0,0.0,0.0,0.0,0.0,0.0,0.0,0.0,0.0,0.0,0.0,0.0,0.0,0.0,0.0,0.0,0.0,0.0,0.0,0.0,0.0,0.0,0.0,0.0,0.0,0.0,0.0,0.0,0.0,0.0,0.0,0.0,0.0,0.0,0.0,0.0,0.0,0.0,0.0,0.0,0.0,0.0,0.0,0.0,0.0,0.0,0.0,0.0,0.0,0.0,0.0,0.0,0.0,0.0,0.0,0.0,0.0,0.0,0.0,0.0,0.0,0.0,0.0,0.0,0.0,0.0,0.0,0.0,0.0,0.0,0.0,0.0,0.0,0.0,0.0,0.0,0.0,0.0,0.0,0.0,0.0,0.0,0.0,0.0,0.0,0.0,0.0,0.0,0.0,0.0,0.0,0.0,0.0,0.0,0.0,0.0,0.0,0.0,0.0,0.0,0.0,0.0,0.0,0.0,0.0,0.0,0.0,0.0,0.0,0.0,0.0,0.0,0.0,0.0,0.0,0.0,0.0,0.0,0.0,0.0,0.0,0.0,0.0,0.0,0.0,0.0,0.0,0.0,0.0,0.0,0.0,0.0,0.0,0.0,0.0,0.0,0.0,0.0,0.0,0.0,0.0,0.0,0.0,0.0,0.0,0.0,0.0,0.0,0.0,0.0,0.0,0.0,0.0,0.0,0.0,0.0,0.0,0.0,0.0,0.0,0.0,0.0,0.0,0.0,0.0,0.0,0.0,0.0,0.0,0.0,0.0,0.0,0.0,0.0,0.0,0.0,0.0,0.0,0.0,0.0,0.0,0.0,0.0,0.0,0.0,0.0,0.0,0.0,0.0,0.0,0.0,0.0,0.0,0.0,0.0,0.0,0.0,0.0,0.0,0.0,0.0,0.0,0.0,0.0,0.0,0.0,0.0,0.0,0.0,0.0,0.0,0.0,0.0,0.0,0.0,0.0,0.0,0.0,0.0,0.0,0.0,0.0,0.0,0.0,0.0,0.0,0.0,0.0,0.0,0.0,0.0,0.0,0.0,0.0,0.0,0.0,0.0,0.0,0.0,0.0,0.0,0.0,0.0,0.0,0.0,0.0,0.0,0.0,0.0,0.0,0.0,0.0,0.0,0.0,0.0,0.0,0.0,0.0,0.0,0.0,0.0,0.0,0.0,0.0,0.0,0.0,0.0,0.0,0.0,0.0,0.0,0.0,0.0,0.0,0.0,0.0,0.0,0.0,0.0,0.0,0.0,0.0,0.0,0.0,0.0,0.0,0.0,0.0,0.0,0.0,0.0,0.0,0.0,0.0,0.0,0.0,0.0,0.0,0.0,0.0,0.0,0.0,0.0,0.0,0.0,0.0,0.0,0.0,0.0,0.0,0.0,0.0,0.0,0.0,0.0,0.0,0.0,0.0,0.0,0.0,0.0,0.0,0.0,0.0,0.0,0.0,0.0,0.0,0.0,0.0,0.0,0.0,0.0,0.0,0.0,0.0,0.0,0.0,0.0,0.0,0.0,0.0,0.0,0.0,0.0,0.0,0.0,0.0,0.0,0.0,0.0,0.0,0.0,0.0,0.0,0.0,0.0,0.0,0.0,0.0,0.0,0.0,0.0,0.0,0.0,0.0,0.0,0.0,0.0,0.0,0.0,0.0,0.0,0.0,0.0,0.0,0.0,0.0,0.0,0.0,0.0,0.0,0.0,0.0,0.0,0.0,0.0,0.0,0.0,0.0,0.0,0.0,0.0,0.0,0.0,0.0,0.0,0.0,0.0,0.0,0.0,0.0,0.0,0.0,0.0,0.0,0.0,0.0,0.0,0.0,0.0,0.0,0.0,0.0,0.0,0.0,0.0,0.0,0.0,0.0,0.0,0.0,0.0,0.0,0.0,0.0,0.0,0.0,0.0,0.0,0.0,0.0,0.0,0.0,0.0,0.0,0.0,0.0,0.0,0.0,0.0,0.0,0.0,0.0,0.0,0.0,0.0,0.0,0.0,0.0,0.0,0.0,0.0,0.0,0.0,0.0,0.0,0.0,0.0,0.0,0.0,0.0,0.0,0.0,0.0,0.0,0.0,0.0,0.0,0.0,0.0,0.0,0.0,0.0,0.0,0.0,0.0,0.0,0.0,0.0,0.0,0.0,0.0,0.0,0.0,0.0,0.0,0.0,0.0,0.0,0.0,0.0,0.0,0.0,0.0,0.0,0.0,0.0,0.0,0.0,0.0,0.0,0.0,0.0,0.0,0.0,0.0,0.0,0.0,0.0,0.0,0.0,0.0,0.0,0.0,0.0,0.0,0.0,0.0,0.0,0.0,0.0,0.0,0.0,0.0,0.0,0.0,0.0,0.0,0.0,0.0,0.0,0.0,0.0,0.0,0.0,0.0,0.0,0.0,0.0,0.0,0.0,0.0,0.0,0.0,0.0,0.0,0.0,0.0,0.0,-2.3122,-2.2998,0.0,0.0,0.0,0.0,0.0,0.0,0.0,0.0,0.0,0.0,0.0,0.0,0.0,0.0,0.0,0.0,0.0,0.0,0.0,0.0,0.0,0.0,0.0,-0.1501,-0.1825,-0.1844,-0.2724,0.0,0.0,0.0,0.0,0.0,0.0,0.0,0.0,0.0,-0.636,-0.6499,-0.6805,-0.7155,-0.748,-0.7742,-0.806,-0.8599,0.0,0.0,0.0,0.0,0.0,0.0,0.0,0.0,0.0,0.0,0.0,0.0,0.0,0.0,0.0,0.0,0.0,0.0,0.0,0.0,0.0,0.0,0.0,0.0,0.0,0.0,0.0,0.0,0.0,0.0,0.0,0.0,0.0,0.0,0.0,0.0,0.0,0.0,0.0,0.0,0.0,0.0,0.0,0.0,0.0,0.0,0.0,0.0,0.0,0.0,0.0,0.0,0.0,0.0,0.0,0.0,0.0,0.0,0.0,0.0,0.0,0.0,0.0,0.0,0.0,0.0,0.0,0.0,0.0,0.0,-2.3701,-2.3639,0.0,0.0,0.0,0.0,0.0,0.0,0.0,0.0,0.0,0.0,0.0,0.0,0.0,0.0,0.0,0.0,0.0,0.0,0.0,0.0,0.0,-0.1103,-0.1133,-0.1916,-0.2464,-0.2515,-0.3503,-0.4408,-0.4956,-0.5291,0.0,0.0,0.0,0.0,-0.6071,-0.6346,-0.6576,-0.6671,-0.7196,-0.7668,-0.7986,-0.8526,-0.9,-0.938,-0.9173,0.0,0.0,0.0,0.0,0.0,0.0,0.0,0.0,0.0,0.0,0.0,0.0,0.0,0.0,0.0,0.0,0.0,0.0,0.0,0.0,0.0,0.0,0.0,0.0,0.0,0.0,0.0,0.0,0.0,0.0,0.0,0.0,0.0,0.0,0.0,0.0,0.0,0.0,0.0,0.0,0.0,0.0,0.0,0.0,0.0,0.0,0.0,0.0,0.0,0.0,0.0,0.0,0.0,0.0,0.0,0.0,0.0,0.0,0.0,0.0,0.0,0.0,0.0,-2.3557,-2.3577,-2.366,-2.366,-2.3867,-2.424,-2.4612,-2.4571,-2.426,-2.455,0.0,0.0,0.0,0.0,0.0,0.0,0.0,0.0,0.0,0.0,0.0,0.0,0.0,0.0,0.0,0.0,0.0,0.0,0.0,-0.1166,-0.1197,-0.1949,-0.252,-0.2561,-0.4107,-0.4999,-0.4999,-0.5817,0.0,0.0,0.0,0.0,-0.6234,-0.6325,-0.6479,-0.6835,-0.7415,-0.8145,-0.8848,-0.8899,-0.9751,-1.1093,-1.0848,-1.1464,-1.2589,0.0,0.0,0.0,0.0,0.0,0.0,0.0,0.0,0.0,0.0,0.0,0.0,0.0,0.0,0.0,0.0,0.0,0.0,0.0,0.0,0.0,0.0,0.0,0.0,0.0,0.0,0.0,0.0,0.0,0.0,0.0,0.0,0.0,0.0,0.0,0.0,0.0,0.0,0.0,0.0,0.0,-1.5751,-1.6535,0.0,0.0,0.0,0.0,0.0,0.0,0.0,0.0,0.0,0.0,0.0,0.0,0.0,-1.9694,-2.1176,-2.1978,-2.3182,-2.4964,-2.4964,-2.515,-2.5523,-2.5523,-2.5564,-2.5627,-2.5668,0.0,-2.5585,-2.5275,0.0,0.0,0.0,0.0,0.0,0.0,0.0,0.0,0.0,0.0,0.0,0.0,0.0,0.0,0.0,0.0,0.0,0.0,0.0,0.0,0.0,-0.3095,-0.3925,-0.4036,-0.5246,-0.599,-0.583,-0.6309,0.0,0.0,0.0,-0.6338,-0.6338,-0.6338,-0.6528,-0.7006,-0.7844,-0.8503,-0.8996,-0.9813,-1.0591,-1.1274,-1.1614,-1.2074,-1.2492,-1.2506,0.0,0.0,0.0,0.0,0.0,0.0,0.0,0.0,0.0,0.0,0.0,0.0,0.0,0.0,0.0,0.0,0.0,0.0,0.0,0.0,0.0,0.0,0.0,0.0,0.0,0.0,0.0,0.0,0.0,0.0,0.0,0.0,0.0,0.0,0.0,0.0,0.0,0.0,0.0,-1.6783,-1.7407,-1.7463,-1.7707,-1.7811,0.0,0.0,0.0,0.0,0.0,0.0,0.0,0.0,0.0,-1.8351,-1.871,-1.9962,-2.217,-2.2531,-2.373,-2.5585,-2.5585,-2.5689,-2.5875,-2.5875,-2.5875,-2.5875,-2.5875,-2.602,-2.6268,-2.6351,-2.6599,-2.6972,0.0,0.0,0.0,0.0,-2.5779,-2.4785,0.0,0.0,0.0,0.0,0.0,0.0,0.0,0.0,0.0,0.0,0.0,0.0,-0.2515,-0.3958,-0.5018,-0.5121,-0.6066,-0.658,-0.643,-0.6559,-0.6525,-0.6274,-0.6338,-0.6338,-0.6338,-0.6338,-0.6698,-0.7359,-0.8009,-0.8625,-0.9223,-1.0057,-1.0582,-1.0807,-1.1477,-1.2035,-1.2412,-1.2479,-1.2493,-1.2385,0.0,0.0,0.0,0.0,0.0,0.0,0.0,0.0,0.0,0.0,0.0,0.0,0.0,0.0,0.0,0.0,0.0,0.0,0.0,0.0,0.0,0.0,0.0,0.0,0.0,0.0,0.0,0.0,0.0,0.0,0.0,0.0,0.0,0.0,0.0,0.0,0.0,-1.7856,-1.8419,-1.8065,-1.8371,-1.8383,0.0,0.0,0.0,0.0,0.0,0.0,-1.8176,-1.8176,-1.8462,-1.9066,-1.9268,-2.0449,-2.2492,-2.2962,-2.4063,-2.5676,-2.597,-2.6123,-2.6227,-2.6227,-2.6227,-2.6227,-2.6227,-2.6496,-2.6931,-2.7034,-2.7063,-2.69,-2.7227,-2.615,-2.4564,-2.5994,-2.5257,-2.3781,0.0,0.0,0.0,0.0,0.0,0.0,0.0,0.0,0.0,0.0,0.0,-0.2817,-0.2507,-0.3986,-0.5002,-0.5012,-0.5921,-0.6424,-0.6281,-0.6403,-0.6417,-0.6268,-0.6338,-0.6338,-0.6338,-0.6486,-0.7103,-0.8016,-0.7565,-0.8169,-0.983,-0.916,-0.9226,-0.997,-1.0196,-1.1238,-1.2782,-1.2425,-1.2465,-1.2768,-1.2398,0.0,0.0,0.0,0.0,0.0,0.0,0.0,0.0,0.0,0.0,0.0,0.0,0.0,0.0,0.0,0.0,0.0,0.0,0.0,0.0,0.0,0.0,0.0,0.0,0.0,0.0,0.0,0.0,0.0,0.0,0.0,0.0,0.0,0.0,0.0,0.0,0.0,0.0,-1.8271,-1.8017,0.0,0.0,0.0,0.0,-1.8271,-1.8271,-1.8573,-1.9256,-1.9288,-1.9447,-1.9797,-2.0666,-2.1258,-2.1388,-2.3261,-2.4497,-2.5114,-2.6052,-2.6765,-2.72,-2.72,-2.72,-2.72,-2.72,-2.7448,-2.7779,-2.6951,-2.6283,-2.58,-2.582,-2.5001,-2.3899,-2.522,-2.473,-2.3834,0.0,0.0,0.0,-0.2598,-0.251,-0.1996,-0.0894,-0.0602,-0.099,-0.2243,-0.2727,-0.3207,-0.399,-0.5162,-0.5899,-0.5988,-0.637,-0.66,-0.6546,-0.6498,-0.6451,-0.6396,-0.6213,-0.6159,-0.6261,-0.7026,-0.7625,-0.8084,-0.9289,-1.0133,-1.0657,-1.0684,-1.0751,-1.0824,-1.0517,-1.0706,-1.1236,-1.1047,-1.0929,-1.0924,-1.083,-1.1105,0.0,0.0,0.0,0.0,0.0,0.0,0.0,0.0,0.0,0.0,0.0,0.0,0.0,0.0,0.0,0.0,0.0,0.0,0.0,0.0,0.0,0.0,0.0,0.0,0.0,0.0,0.0,0.0,0.0,0.0,0.0,0.0,0.0,0.0,0.0,0.0,0.0,-1.897,-1.8875,0.0,-1.8653,-1.8859,-1.8986,-1.8986,-1.8986,-1.9193,-1.9669,-1.9685,-1.9844,-2.0194,-2.0589,-2.1197,-2.2025,-2.2796,-2.3553,-2.4463,-2.4851,-2.5121,-2.5275,-2.5275,-2.5275,-2.5275,-2.5275,-2.5352,-2.5467,-2.5082,-2.6054,-2.7519,-2.7519,-2.601,-2.3978,-2.5151,-2.4014,-2.2059,0.0,-0.1978,0.0,-0.3821,-0.3565,-0.275,-0.1369,-0.0689,-0.1081,-0.3324,-0.3855,-0.4316,-0.4983,-0.5814,-0.6315,-0.6458,-0.6566,-0.6538,-0.621,-0.6364,-0.6371,-0.6,-0.6053,-0.6179,-0.6329,-0.7025,-0.7749,-0.8581,-0.9823,-1.0684,-1.123,-1.1101,-1.0919,-1.0684,-0.9968,-0.9624,-0.9604,-0.9478,-0.9668,-1.0033,-0.996,-1.0296,-1.0835,0.0,0.0,0.0,0.0,0.0,0.0,0.0,0.0,0.0,0.0,0.0,0.0,0.0,0.0,0.0,0.0,0.0,0.0,0.0,0.0,0.0,0.0,0.0,0.0,0.0,0.0,0.0,0.0,0.0,0.0,0.0,0.0,0.0,0.0,-1.8327,-1.9273,-1.9368,-1.9256,-1.9145,-1.9018,-1.9225,-1.9415,-1.9526,-1.9542,-1.9685,-2.0019,-2.0035,-2.021,-2.0559,-2.0575,-2.1038,-2.2112,-2.2503,-2.3062,-2.3895,-2.4299,-2.44,-2.44,-2.44,-2.4473,-2.4583,-2.4455,-2.4546,-2.4783,-2.4656,-2.5907,-2.7756,-2.6996,-2.5293,-2.3216,-2.4382,-2.3148,-2.1277,-0.4252,-0.3623,-0.3127,-0.4696,-0.4854,-0.4275,-0.2807,-0.1175,-0.1105,-0.404,-0.5416,-0.5943,-0.5256,-0.5792,-0.6315,-0.6458,-0.6478,-0.6077,-0.5272,-0.5996,-0.6013,-0.5012,-0.5879,-0.6335,-0.6478,-0.6558,-0.7507,-0.9533,-0.9064,-0.9715,-1.149,-1.0131,-0.9399,-0.9399,-0.8435,-0.8032,-0.8032,-0.8024,-0.891,-1.0332,-0.9956,-1.0031,-1.03,0.0,0.0,0.0,0.0,0.0,0.0,0.0,0.0,0.0,0.0,0.0,0.0,0.0,0.0,0.0,0.0,0.0,0.0,0.0,0.0,0.0,0.0,0.0,0.0,0.0,0.0,0.0,0.0,0.0,0.0,0.0,0.0,0.0,-1.6149,-1.789,-1.9051,-1.9368,-1.9066,-1.9002,-1.9368,-1.9415,-1.9558,-1.9892,-1.9908,-2.0051,-2.04,-2.0416,-2.0575,-2.0925,-2.0925,-2.1099,-2.1465,-2.2461,-2.315,-2.3559,-2.4595,-2.5013,-2.5032,-2.5032,-2.5231,-2.5575,-2.5195,-2.5466,-2.6027,-2.5756,-2.5829,-2.5864,-2.3861,-2.2503,-2.1834,-2.2812,-2.2386,-2.155,-0.2976,-0.3822,-0.4433,-0.4945,-0.4996,-0.483,-0.4399,-0.3139,-0.2134,-0.1779,-0.2945,-0.3955,-0.412,-0.4363,-0.4815,-0.5497,-0.5671,-0.5641,-0.5394,-0.5559,-0.542,-0.4978,-0.6034,-0.66,-0.6634,-0.7208,-0.7877,-0.8574,-0.9945,-1.0521,-1.0525,-1.0543,-1.0194,-0.947,-0.8777,-0.8414,-0.8406,-0.8268,-0.8539,-0.906,-0.8664,-0.8891,-0.9481,0.0,0.0,0.0,0.0,0.0,0.0,0.0,0.0,0.0,0.0,0.0,0.0,0.0,0.0,0.0,0.0,0.0,0.0,0.0,0.0,0.0,0.0,0.0,0.0,0.0,0.0,0.0,0.0,0.0,0.0,0.0,-1.3292,-1.4755,-1.5644,-1.7529,-1.8972,-1.9336,-1.9495,-1.9717,-2.0083,-2.0353,-2.0639,-2.0988,-2.0782,-2.0782,-2.1147,-2.0909,-2.0941,-2.129,-2.1052,-2.1211,-2.1814,-2.1877,-2.216,-2.2776,-2.3086,-2.3343,-2.3591,-2.3591,-2.364,-2.3739,-2.364,-2.3706,-2.3871,-2.355,-2.3601,-2.3991,-2.4723,-2.4183,-2.315,-2.3166,-2.2658,-2.2053,-0.3526,-0.4311,-0.5023,-0.5029,-0.4394,-0.4077,-0.4482,-0.3722,-0.289,-0.2051,-0.2503,-0.321,-0.3854,-0.383,-0.4025,-0.4608,-0.4713,-0.4656,-0.4371,-0.4665,-0.51,-0.5753,-0.6415,-0.6797,-0.6797,-0.721,-0.7743,-0.8312,-0.9686,-1.0268,-1.0148,-1.0248,-0.9962,-0.9343,-0.8599,-0.8296,-0.8296,-0.8186,-0.8202,-0.8281,-0.8068,-0.8328,-0.891,-0.8279,-0.8321,-0.8546,-0.8086,-0.7974,-0.8154,-0.8352,0.0,0.0,0.0,0.0,0.0,0.0,0.0,0.0,0.0,0.0,0.0,0.0,0.0,0.0,0.0,0.0,0.0,0.0,0.0,0.0,0.0,0.0,0.0,0.0,-1.3392,-1.4824,-1.5719,-1.7556,-1.9078,-1.9781,-2.0098,-2.0448,-2.0798,-2.102,-2.1227,-2.1433,-2.1258,-2.1163,-2.1227,-2.1036,-2.1084,-2.1433,-2.1258,-2.1481,-2.218,-2.2132,-2.2386,-2.2927,-2.307,-2.3244,-2.3451,-2.3451,-2.353,-2.3673,-2.3673,-2.3715,-2.3866,-2.3629,-2.3712,-2.3929,0.0,0.0,0.0,0.0,-2.2946,-2.2564,-0.5029,-0.4873,-0.4794,-0.4956,-0.3604,-0.2738,-0.3448,-0.3284,-0.3197,-0.343,-0.3052,-0.304,-0.3612,-0.3557,-0.3651,-0.383,-0.3758,-0.3432,-0.2958,-0.3775,-0.4964,-0.6734,-0.69,-0.698,-0.698,-0.6959,-0.7361,-0.8368,-0.8719,-0.9235,-1.0009,-0.941,-0.9148,-0.9061,-0.8288,-0.7944,-0.7944,-0.7944,-0.7944,-0.7944,-0.7944,-0.812,-0.844,-0.795,-0.7758,-0.7874,-0.7476,-0.7597,-0.7905,-0.7966,0.0,0.0,0.0,0.0,0.0,0.0,0.0,0.0,0.0,0.0,0.0,0.0,0.0,0.0,0.0,0.0,0.0,0.0,0.0,0.0,0.0,0.0,0.0,0.0,-1.3636,-1.5106,-1.6056,-1.7558,-1.8906,-2.0163,-2.0594,-2.0971,-2.1317,-2.138,-2.1518,-2.1518,-2.1592,-2.1433,-2.1115,-2.1068,0.0,0.0,0.0,-2.1862,-2.2593,-2.2879,-2.3228,-2.3673,-2.3959,-2.415,-2.4229,-2.4229,-2.442,-2.4754,-2.4754,-2.4873,-2.5187,-2.506,-2.4976,-2.4842,-2.3308,-2.2841,-2.3152,-2.3142,-2.3106,-2.312,-0.5018,-0.3917,-0.3448,-0.48,-0.3608,-0.2348,-0.1883,-0.2324,-0.2542,-0.193,-0.1677,-0.1687,-0.1893,-0.1825,-0.2135,-0.2989,-0.3022,-0.331,-0.4129,-0.434,-0.5027,-0.6247,-0.6982,-0.7285,-0.7285,-0.7163,-0.7204,-0.7401,-0.8193,-0.8368,-0.8025,-0.8632,-0.8632,-0.8113,-0.7944,-0.7944,-0.7944,-0.7944,-0.7944,-0.7944,-0.7944,-0.7944,-0.8025,-0.7869,-0.7869,-0.7891,-0.7774,-0.7869,-0.7959,-0.8359,-0.8253,-0.8131,-0.86,-0.8509,0.0,0.0,0.0,0.0,0.0,0.0,0.0,0.0,0.0,0.0,0.0,0.0,0.0,0.0,0.0,0.0,0.0,0.0,0.0,-1.238,-1.3028,-1.4159,-1.5646,-1.6405,-1.7456,-1.9406,-2.0302,-2.0816,-2.1148,-2.142,-2.1907,-2.2593,-2.245,-2.2259,-2.218,-2.191,-2.1926,-2.2275,-2.2005,-2.2339,-2.3324,-2.3117,-2.3483,-2.4388,-2.4452,0.0,-2.5326,-2.5326,-2.5516,-2.585,-2.5596,-2.542,-2.5417,-2.4902,-2.4545,-2.4287,-2.3963,-2.3673,-2.351,-2.3179,-2.3106,-2.3149,-0.5031,-0.4358,-0.3456,-0.2672,-0.1822,-0.1198,-0.1039,-0.1565,-0.1775,-0.1453,-0.1369,-0.1374,-0.1388,-0.1337,-0.1471,-0.1983,-0.2066,-0.2804,-0.443,-0.4493,-0.5208,-0.6832,-0.7263,-0.7333,-0.7258,-0.7177,-0.7143,-0.7143,-0.7577,-0.7672,-0.7326,-0.7753,-0.7841,-0.7496,-0.7496,-0.7231,-0.6789,-0.6789,-0.6517,-0.6068,-0.6068,-0.6068,-0.6157,-0.6782,-0.6694,-0.634,-0.6694,-0.6605,-0.637,-0.7119,-0.691,-0.6491,-0.6911,-0.693,-0.6768,0.0,0.0,0.0,0.0,0.0,0.0,0.0,0.0,0.0,0.0,0.0,0.0,0.0,0.0,-1.1593,-1.1899,0.0,-1.2758,-1.2758,-1.3204,-1.4013,-1.5333,-1.6346,-1.754,-1.9354,-1.9832,-2.0188,-2.0699,-2.0858,-2.1101,-2.1294,-2.1227,-2.1062,-2.0898,-2.0773,-2.1143,-2.205,-2.2066,-2.2632,-2.38,-2.38,-2.4055,-2.4579,-2.4754,-2.5024,-2.5373,-2.5564,-2.5723,-2.5914,-2.5861,-2.5758,-2.5528,-2.5039,-2.4701,-2.454,-2.4479,-2.4113,-2.3823,-2.3662,-2.3588,-2.3618,-0.4991,-0.4513,-0.3163,-0.0471,-0.016,-0.0324,-0.065,-0.1012,-0.1299,-0.1389,-0.1391,-0.1391,-0.1391,-0.1337,-0.1292,-0.1268,-0.1305,-0.2208,-0.4214,-0.425,-0.5195,-0.7298,-0.723,-0.7171,-0.7231,-0.717,-0.7048,-0.6782,-0.6782,-0.6694,-0.6517,-0.6517,-0.6517,-0.6517,-0.6517,-0.6163,-0.5453,-0.5453,-0.5003,-0.4287,-0.4287,-0.4198,-0.4113,-0.5092,-0.5092,-0.4648,-0.5181,-0.5003,-0.4652,-0.5473,-0.5345,-0.4876,-0.5101,-0.5188,-0.5289,-0.5533,-0.5592,0.0,0.0,0.0,0.0,0.0,0.0,0.0,0.0,-0.7621,-0.8478,-0.8843,-1.0208,-1.1441,-1.2082,-1.2639,-1.3117,-1.3069,-1.3412,-1.3992,-1.4923,-1.6115,-1.7412,-1.8731,-1.9057,-1.9435,-2.004,-2.004,-1.9929,-1.9793,-1.9779,-1.9696,-1.9501,-1.9709,-2.033,-2.145,-2.173,-2.2378,-2.3541,-2.4076,-2.4369,-2.4448,-2.4854,-2.5151,-2.523,-2.55,-2.5581,-2.5739,-2.5965,-2.585,-2.5484,-2.5219,-2.5052,-2.5037,-2.4774,-2.451,-2.4262,-2.413,-2.4086,-2.4086,-0.5037,-0.2638,-0.0403,-0.0079,-0.063,-0.1032,-0.073,-0.1081,-0.1362,-0.1386,-0.1391,-0.1391,-0.1391,-0.1337,-0.1301,-0.1298,-0.1373,-0.1882,-0.3212,-0.3294,-0.4292,-0.6393,-0.6272,-0.6614,-0.755,-0.7278,-0.6694,-0.5897,-0.5897,-0.5447,-0.4643,-0.4643,-0.4643,-0.4643,-0.4643,-0.4554,-0.4465,-0.4465,-0.4376,-0.4287,-0.4287,-0.3846,-0.3045,-0.3224,-0.3667,-0.4376,-0.4465,-0.4376,-0.4393,-0.4563,-0.4542,-0.4439,-0.4784,-0.4822,-0.4739,-0.4981,-0.5126,-0.5413,-0.5405,-0.511,-0.4785,-0.4981,-0.5345,-0.5797,0.0,-0.7127,-0.7282,-0.7392,-0.8869,-1.0126,-1.0394,-1.1811,-1.2938,-1.3098,-1.3184,-1.347,-1.4235,-1.4518,-1.4961,-1.5998,-1.7806,-1.8984,-1.8997,-1.9113,-1.9332,-2.0214,-2.0214,-2.0312,-2.0433,-2.0475,-2.0628,-2.1054,-2.1096,-2.1385,-2.1831,-2.2852,-2.3382,-2.3683,-2.4718,-2.5278,-2.558,-2.5612,-2.5707,-2.6043,-2.5768,-2.5412,-2.5143,-2.5172,-2.5052,-2.5052,-2.5022,-2.4979,-2.4876,-2.4291,-2.4086,-2.413,-0.2482,-0.0928,-0.0,-0.0,-0.0736,-0.1309,-0.1059,-0.1273,-0.1391,-0.1369,-0.138,-0.1384,-0.1367,-0.1311,-0.1276,-0.1276,-0.1343,-0.1832,-0.2936,-0.2986,-0.3754,-0.5252,-0.5115,-0.5222,-0.5691,-0.5501,-0.5245,-0.4914,-0.4914,-0.4648,-0.4287,-0.4287,-0.4287,-0.4287,-0.4287,-0.402,-0.3489,-0.3489,-0.3132,-0.2596,-0.2596,-0.2419,-0.2061,-0.2061,-0.224,-0.269,-0.3267,-0.31,0.0,-0.3405,-0.3147,-0.2704,-0.2866,-0.2897,-0.2845,-0.303,-0.3067,-0.3276,-0.3685,-0.3628,-0.3553,-0.4024,-0.4257,-0.4491,-0.4983,-0.5711,-0.6217,-0.6263,-0.763,-0.9039,-0.9598,-1.0986,-1.209,-1.2495,-1.3076,-1.3692,-1.437,-1.4498,-1.4765,-1.5472,-1.6419,-1.7185,-1.7684,-1.7696,-1.8126,-1.9018,-1.915,-1.9202,-1.9318,-1.9351,-1.9859,-2.0454,-2.0752,-2.1148,-2.1908,-2.2281,-2.285,-2.3604,-2.3991,-2.4564,-2.5342,-2.5548,-2.5626,-2.5758,-2.5514,-2.5279,-2.5052,-2.5052,-2.5052,-2.5052,-2.5052,-2.5052,-2.5022,-2.4744,-2.4657,-2.4671,-0.0437,-0.0,-0.0,-0.0,-0.068,-0.1265,-0.132,-0.137,-0.1396,-0.1269,-0.1358,-0.1355,-0.1326,-0.1276,-0.1249,-0.1335,-0.132,-0.1709,-0.2514,-0.2556,-0.3019,-0.4182,-0.4032,-0.4092,-0.437,-0.4342,-0.4211,-0.3879,-0.3946,-0.3753,-0.3486,-0.3486,-0.3486,-0.3486,-0.3486,-0.3132,-0.2509,-0.2509,-0.2061,-0.1436,-0.1444,-0.1357,-0.1357,-0.1357,-0.1362,-0.1461,-0.2212,-0.2035,-0.1573,-0.231,-0.2063,-0.1525,-0.1525,-0.1547,-0.1588,-0.1364,-0.1069,-0.0968,-0.1851,-0.2096,-0.2342,-0.3248,-0.3586,-0.3594,-0.3621,-0.4373,-0.5013,-0.5107,-0.6373,-0.7698,-0.8395,-0.9774,-1.0891,-1.1503,-1.2354,-1.3084,-1.3674,-1.3784,-1.3885,-1.4311,-1.442,-1.4888,-1.5903,-1.642,-1.6895,-1.7649,-1.7672,-1.7831,-1.8149,-1.8328,-1.8836,-1.9901,-2.0093,-2.0462,-2.0969,-2.1209,-2.1713,-2.2201,-2.2966,-2.3728,-2.4487,-2.5094,-2.5277,-2.5367,-2.5024,-2.4967,-2.4935,-2.5022,-2.5008,-2.492,-2.492,-2.4862,-2.4788,-2.4788,-2.4847,-2.492,-0.0,-0.0,-0.0,-0.0,-0.0435,-0.0863,-0.1267,-0.1264,-0.1265,-0.1264,-0.1324,-0.1294,-0.1264,-0.1232,-0.1226,-0.1333,-0.1337,-0.1389,-0.1477,-0.1596,-0.2137,-0.3139,-0.3044,-0.3518,-0.4557,-0.4378,-0.3875,-0.2954,-0.2987,-0.2419,-0.1525,-0.1525,-0.1525,-0.1525,-0.1525,-0.1436,-0.1436,-0.1436,-0.1436,-0.1438,-0.1375,-0.1387,-0.1387,-0.1387,-0.1405,-0.1424,-0.1491,-0.148,-0.148,-0.1573,-0.1501,-0.1525,-0.1525,-0.1547,-0.139,-0.0419,0.0538,0.1091,-0.0327,-0.0873,-0.1426,-0.279,-0.3362,-0.3572,-0.3515,-0.3594,-0.3779,-0.3717,-0.4893,-0.6009,-0.6368,-0.8015,-0.9444,-0.9802,-1.0415,-1.1027,-1.139,-1.1623,-1.1671,-1.1272,-1.1476,-1.2328,-1.3685,-1.5075,-1.6043,-1.6291,-1.6301,-1.6659,-1.7519,-1.7656,-1.8036,-1.906,-1.92,-1.8816,-1.8162,-1.9036,-1.9279,-1.864,-2.1308,-2.2702,-2.2716,-2.4074,-2.4634,-2.468,-2.4553,-2.4569,-2.4613,-2.492,-2.4876,-2.4583,-2.4583,-2.4393,-2.4115,-2.4115,-2.432,-2.4583,-0.0,-0.0,-0.0178,-0.0799,-0.0799,-0.0882,-0.1296,-0.1377,-0.1362,-0.1322,-0.1326,0.0,0.0,0.0,0.0,0.0,-0.1314,-0.1348,-0.1388,-0.1429,-0.1656,-0.1998,-0.2002,-0.2179,-0.252,-0.2443,-0.2234,-0.1904,-0.1889,-0.1705,-0.1436,-0.1436,-0.1436,-0.1346,-0.1077,-0.0896,-0.0896,-0.0896,-0.0896,-0.0898,-0.0918,-0.0925,-0.0928,-0.0953,-0.0959,-0.0954,0.0,-0.1241,-0.151,-0.151,-0.1517,-0.1338,-0.0677,-0.0487,-0.0395,0.0611,0.0635,0.0218,-0.0753,-0.1528,-0.2338,-0.3245,-0.3445,-0.3521,-0.3501,-0.3529,-0.3564,-0.3583,-0.4079,-0.4711,-0.5244,-0.6912,-0.8217,-0.8841,-0.9998,-1.1027,-1.1503,-1.116,-1.1066,-1.1358,-1.1012,-1.1036,-1.1638,-1.3323,-1.5042,-1.6594,-1.6764,-1.6935,-1.7139,-1.7139,-1.7312,-1.7647,-1.7647,-1.7647,-1.7389,-1.7636,-1.8011,-1.85,-2.0144,-2.142,-2.2327,-2.2566,-2.3243,-2.4239,-2.408,-2.4174,-2.4554,-2.4452,-2.4466,-2.4554,-2.4335,-2.4174,-2.4057,-2.3837,-2.3837,-2.3954,0.0,-0.0,-0.0269,-0.1256,-0.1166,0.0,0.0,0.0,0.0,0.0,0.0,0.0,0.0,0.0,0.0,0.0,0.0,-0.1341,-0.1358,-0.1388,-0.1431,-0.1491,-0.1504,-0.1506,-0.1497,-0.1505,-0.1495,-0.1468,-0.1446,-0.1351,-0.1179,-0.117,-0.1256,-0.1346,-0.1077,-0.0808,-0.0449,-0.0449,-0.0456,-0.0469,-0.0468,-0.0476,-0.0488,-0.0588,-0.0685,0.0,-0.0681,-0.029,0.0096,-0.0573,-0.0673,-0.0292,0.0391,0.089,0.13,0.1912,0.1564,0.0972,0.0107,-0.1086,-0.2225,-0.291,-0.3319,-0.3491,-0.3471,-0.3482,-0.3496,-0.3493,-0.367,-0.3951,-0.4444,-0.5738,-0.7074,-0.7526,-0.8763,-0.9875,-1.0407,-0.9926,-0.9787,-1.0244,-0.9687,-0.9456,-1.0083,-1.1351,-1.3013,-1.5187,-1.5363,-1.5615,-1.6118,-1.6118,-1.6318,-1.6743,-1.6754,-1.6701,-1.6613,-1.6613,-1.712,-1.8116,-1.8744,-1.989,-2.1294,-2.1056,-2.1683,-2.316,-2.3021,-2.3436,-2.4218,-2.4115,-2.4145,-2.4203,-2.3984,-2.3837,-2.3706,-2.3501,-2.3427,-2.3471,0.0,0.0,-0.0359,0.0,0.0,0.0,0.0,0.0,0.0,0.0,0.0,0.0,0.0,0.0,0.0,0.0,0.0,0.0,-0.131,-0.1384,-0.1431,-0.1437,-0.1466,-0.1495,-0.1525,-0.1498,-0.1497,-0.1524,-0.1373,-0.1178,-0.0739,-0.0724,-0.0897,-0.1346,-0.1347,-0.0899,-0.0,-0.0,-0.0,-0.0,-0.0,-0.0,-0.0106,-0.0603,-0.0697,-0.0704,-0.0679,0.087,0.284,0.1153,0.1076,0.1606,0.1774,0.2511,0.3397,0.3341,0.3205,0.2978,0.2233,0.0539,-0.1206,-0.2006,-0.2872,-0.3368,-0.342,-0.3447,-0.3452,-0.3349,-0.3556,-0.3744,-0.3692,-0.4715,-0.5706,-0.5998,-0.6977,-0.7845,-0.8326,-0.7999,-0.7713,-0.7818,-0.7442,-0.7715,-0.8871,-0.9,-0.993,-1.2158,-1.2346,-1.3084,-1.451,-1.4629,-1.5193,-1.6258,-1.628,-1.6129,-1.5954,-1.5964,-1.6473,-1.7356,-1.7356,-1.8233,-1.9878,-1.9522,-2.017,-2.1587,-2.1632,-2.2295,-2.3647,-2.3925,-2.3866,-2.3618,-2.3588,-2.3384,-2.3106,-2.3106,-2.312,-2.3179,0.0,0.0,0.0,0.0,0.0,0.0,0.0,0.0,0.0,0.0,0.0,0.0,0.0,0.0,0.0,0.0,0.0,0.0,-0.1366,-0.1348,-0.1377,-0.1466,-0.1476,-0.1495,-0.1525,-0.1519,-0.1508,-0.1493,-0.109,-0.0989,-0.1175,-0.054,-0.0269,-0.036,-0.1186,-0.101,-0.0,-0.0,-0.0,-0.0,-0.0,-0.0,-0.01,-0.1019,-0.1324,-0.1312,-0.09,0.01,0.1198,0.1275,0.1471,0.1676,0.2451,0.3454,0.4384,0.4422,0.3205,0.1914,0.202,0.0435,-0.1334,-0.1984,-0.2281,-0.2562,-0.3148,-0.3322,-0.3316,-0.3376,-0.3521,-0.3657,-0.3733,-0.4477,-0.5223,-0.5618,-0.6242,-0.6869,-0.7597,-0.7586,-0.7547,-0.747,-0.7387,-0.7337,-0.7691,-0.7696,-0.8507,-1.0273,-1.1695,-1.2603,-1.2964,-1.3564,-1.4169,-1.4563,-1.4573,-1.4663,-1.4961,-1.5115,-1.5323,-1.5574,-1.5574,-1.6333,-1.7731,-1.7742,-1.8896,-2.1209,-2.1289,-2.2212,-2.3925,-2.353,-2.3588,-2.391,-2.3427,-2.3179,-2.3106,-2.3106,-2.3267,-2.3486,0.0,0.0,0.0,0.0,0.0,0.0,0.0,0.0,0.0,0.0,0.0,0.0,0.0,0.0,0.0,0.0,0.0,0.0,0.0,-0.1352,-0.1377,-0.1457,-0.146,-0.1468,-0.1486,-0.1472,-0.1471,-0.148,-0.1078,-0.0898,-0.1105,-0.0543,-0.0269,-0.0359,-0.0908,-0.1004,-0.0639,-0.0365,-0.0283,0.0,0.0,-0.0394,-0.0412,-0.1028,-0.1428,-0.1516,-0.1213,-0.0808,-0.0201,0.1283,0.1657,0.165,0.2269,0.3194,0.4135,0.4106,0.3281,0.2496,0.2588,0.0768,-0.123,-0.1552,-0.2171,-0.2662,-0.2764,-0.2706,-0.2568,-0.2307,-0.2397,-0.2464,-0.2567,-0.3406,-0.4258,-0.4947,-0.5677,-0.6542,-0.7269,-0.6556,-0.585,-0.5725,-0.6579,-0.7232,-0.7165,-0.716,-0.782,-0.914,-1.0486,-1.1636,-1.233,-1.2906,-1.3277,-1.3589,-1.3684,-1.4024,-1.4629,-1.4742,-1.4846,-1.4931,-1.4931,-1.5313,-1.6084,-1.6721,-1.8127,-2.0182,-2.0182,-2.1524,-2.3632,-2.2623,-2.2806,-2.3618,-2.3252,-2.3106,-2.3106,-2.3106,-2.3184,-2.3333,0.0,0.0,0.0,0.0,0.0,0.0,0.0,0.0,0.0,0.0,0.0,-0.1436,-0.1436,-0.1436,0.0,0.0,0.0,0.0,0.0,0.0,-0.14,-0.1434,-0.1436,-0.1437,-0.1441,-0.1411,-0.1421,-0.147,-0.1237,-0.098,-0.0751,-0.0817,-0.0804,-0.0805,-0.0808,-0.1081,-0.1441,-0.0991,-0.0854,-0.092,-0.0876,-0.0903,-0.0858,0.0,-0.1213,-0.1617,-0.1617,-0.1614,-0.1305,0.0787,0.1549,0.1731,0.1794,0.2649,0.3629,0.3607,0.3597,0.3559,0.3521,0.155,-0.0559,-0.0671,-0.1855,-0.2675,-0.2172,-0.1912,-0.166,-0.1144,-0.0972,-0.0989,-0.1158,-0.2054,-0.311,-0.3886,-0.5056,-0.6136,-0.6764,-0.4826,-0.3371,-0.3151,-0.5222,-0.6795,-0.7122,-0.7116,-0.7552,-0.8562,-0.9332,-1.0546,-1.211,-1.2327,-1.2635,-1.3051,-1.3306,-1.3788,-1.4544,-1.4572,-1.4695,-1.4893,-1.4893,-1.4903,-1.4931,-1.6343,-1.7753,-1.9036,-1.9164,-2.0716,-2.3039,-2.1853,-2.2118,-2.3164,-2.312,-2.3106,-2.312,-2.3164,-2.3131,-2.315,0.0,0.0,0.0,0.0,0.0,0.0,0.0,0.0,0.0,0.0,-0.1436,-0.1436,0.0,0.0,0.0,0.0,0.0,0.0,0.0,0.0,0.0,-0.1433,-0.1436,-0.1446,-0.1472,-0.1442,-0.1422,-0.1408,-0.1373,-0.1278,-0.1206,-0.1219,-0.1313,-0.1315,-0.136,-0.138,-0.138,-0.138,-0.1315,-0.1258,-0.1437,-0.146,-0.1503,-0.1411,0.0,0.0,-0.1617,-0.16,-0.1579,-0.1179,0.0098,0.1664,0.2602,0.3635,0.4598,0.4828,0.4256,0.3515,0.3559,0.2461,0.1117,0.0441,-0.0,-0.032,-0.0855,-0.0947,-0.1144,-0.1797,-0.1388,-0.1076,-0.1841,-0.1618,-0.1503,-0.2038,-0.3752,-0.4805,-0.4005,-0.2019,-0.0642,-0.064,-0.256,-0.4702,-0.677,-0.6872,-0.7547,-0.9277,-0.95,-1.0093,-1.1227,-1.2001,-1.2635,-1.3051,-1.3438,-1.3797,-1.4118,-1.4279,-1.4477,-1.4685,-1.4685,-1.477,-1.4931,-1.6343,-1.7753,-1.9036,-2.0182,-2.1724,-2.3486,-2.2957,-2.3015,-2.3486,-2.3208,-2.3106,-2.3135,-2.316,-2.3193,-2.3377,0.0,0.0,0.0,0.0,0.0,0.0,0.0,-0.1263,-0.1437,-0.1498,-0.1479,-0.1453,-0.1437,-0.1436,-0.1436,0.0,0.0,0.0,0.0,0.0,0.0,-0.1434,-0.1436,-0.1434,-0.1434,-0.1419,-0.1412,-0.1415,0.0,-0.1386,-0.1416,-0.1415,-0.1415,-0.1416,-0.1444,-0.1457,-0.1366,-0.1457,-0.1475,-0.1504,-0.152,-0.1554,-0.1598,-0.1629,0.0,0.0,-0.1645,-0.1632,-0.1617,-0.16,-0.0601,0.0809,0.1427,0.276,0.4133,0.4358,0.4202,0.3987,0.3689,0.2561,0.1324,0.0657,0.0107,-0.0211,-0.0107,-0.0106,-0.0211,-0.0753,-0.0432,-0.0428,-0.1351,-0.1147,-0.1043,-0.1535,-0.278,-0.3733,-0.3736,-0.2589,-0.1246,-0.0105,-0.2933,-0.5474,-0.6494,-0.6706,-0.7563,-0.9323,-0.9429,-1.0075,-1.1655,-1.233,-1.2748,-1.306,-1.3372,-1.3684,-1.4005,-1.4109,-1.4317,-1.4638,-1.4638,-1.5119,-1.6084,-1.7367,-1.878,-2.0182,-2.0816,-2.1922,-2.3325,-2.2412,-2.2566,-2.3325,-2.3164,-2.2981,-2.2899,-2.3091,-2.302,-2.2807,0.0,0.0,0.0,0.0,0.0,0.0,0.0,-0.1194,-0.1466,-0.155,-0.1515,-0.1471,-0.1448,-0.1445,-0.1532,0.0,0.0,0.0,0.0,0.0,0.0,0.0,0.0,0.0,-0.1391,0.0,0.0,-0.1416,-0.1393,0.0,0.0,0.0,0.0,0.0,-0.1433,-0.1436,-0.1436,-0.1436,-0.1449,0.0,0.0,-0.1558,-0.1611,0.0,0.0,0.0,0.0,-0.1667,-0.1659,-0.1635,-0.092,-0.0,0.0103,0.1666,0.3595,0.3883,0.4379,0.448,0.381,0.2662,0.1645,0.0875,0.0214,-0.021,0.0543,0.0538,0.0426,0.0218,0.0217,-0.0106,-0.1008,-0.0917,-0.0925,-0.1503,-0.2021,-0.2766,-0.4037,-0.399,-0.3256,-0.1543,-0.4545,-0.6676,-0.6458,-0.669,-0.7545,-0.9256,-0.9715,-1.0682,-1.2252,-1.2578,-1.2814,-1.306,-1.3277,-1.357,-1.3939,-1.4183,-1.4375,-1.4496,-1.475,-1.563,-1.7033,-1.8314,-1.9738,-2.1082,-2.1461,-2.209,-2.2981,-2.1964,-2.209,-2.3106,-2.3106,-2.2856,-2.2649,-2.2922,-2.2818,-2.2295,0.0,0.0,0.0,0.0,0.0,0.0,0.0,-0.1274,-0.1641,-0.1521,-0.1501,-0.1479,-0.1476,-0.1476,-0.1832,0.0,0.0,0.0,0.0,0.0,0.0,0.0,0.0,0.0,0.0,0.0,0.0,-0.1272,-0.1269,0.0,0.0,0.0,0.0,0.0,0.0,-0.1436,-0.1436,-0.1436,0.0,0.0,0.0,0.0,0.0,0.0,0.0,0.0,0.0,-0.1684,-0.1662,-0.1659,-0.0922,-0.0,0.0103,0.1587,0.3608,0.4983,0.5326,0.5043,0.3924,0.3471,0.3119,0.1975,0.1617,0.1495,0.1633,0.1065,0.021,-0.0543,-0.0639,-0.094,-0.1795,-0.1359,-0.104,-0.158,-0.1479,-0.1894,-0.3626,-0.5175,-0.6077,-0.579,-0.6369,-0.6741,-0.6649,-0.6741,-0.7587,-0.9426,-1.119,-1.2098,-1.2172,-1.2361,-1.2654,-1.3051,-1.3277,-1.3495,-1.3712,-1.4898,-1.5032,-1.4071,-1.5268,-1.6102,-1.6794,-1.8172,-1.9563,-2.1209,-2.2341,-2.2981,-2.3106,-2.2981,-2.2981,-2.3106,-2.3106,-2.2856,-2.2677,-2.2891,-2.2738,-2.2322,0.0,0.0,0.0,0.0,0.0,0.0,-0.0281,-0.1089,-0.1633,-0.1664,-0.1236,-0.112,-0.1527,-0.1534,-0.1696,-0.1981,0.0,0.0,0.0,0.0,0.0,0.0,0.0,0.0,0.0,0.0,-0.2042,-0.1427,-0.2024,0.0,0.0,0.0,0.0,0.0,0.0,-0.1436,-0.1436,-0.1436,0.0,0.0,0.0,0.0,0.0,0.0,0.0,0.0,0.0,0.0,-0.171,-0.1674,-0.1353,-0.0835,-0.0,0.075,0.1641,0.2883,0.3461,0.3586,0.269,0.2783,0.2749,0.1946,0.1714,0.1707,0.1719,0.1074,0.0108,-0.0663,-0.1297,-0.179,-0.2624,-0.2065,-0.1641,-0.188,-0.2406,-0.3035,-0.3677,-0.5365,-0.6594,-0.6584,-0.6671,-0.6736,-0.6851,-0.7299,-0.8289,-1.0047,-1.1388,-1.2087,-1.2134,-1.2569,-1.289,-1.306,-1.3391,-1.3608,-1.3693,-1.4986,-1.5459,-1.5206,-1.6397,-1.7753,-1.9013,-1.9636,-2.0788,-2.2341,-2.2856,-2.3106,-2.3106,-2.2856,-2.2856,-2.2731,-2.2606,-2.2482,-2.2312,-2.2614,-2.2084,-2.0944,0.0,0.0,0.0,0.0,0.0,-0.0,-0.0,-0.0638,-0.1278,-0.1575,-0.115,-0.0943,-0.1549,-0.1555,-0.1532,-0.1468,-0.1453,0.0,0.0,0.0,0.0,0.0,0.0,0.0,0.0,0.0,-0.2266,-0.1907,-0.264,-0.2566,0.0,0.0,-0.1729,-0.1449,0.0,0.0,0.0,0.0,0.0,0.0,0.0,0.0,0.0,0.0,0.0,0.0,0.0,0.0,0.0,0.0,0.0,-0.1586,-0.0634,-0.0428,-0.0217,0.1324,0.2116,0.2354,0.1918,0.2009,0.2304,0.1834,0.1503,0.1287,0.1287,0.0432,-0.0546,-0.1116,-0.1965,-0.2653,-0.3252,-0.2794,-0.2472,-0.2609,-0.3564,-0.4327,-0.4383,-0.5785,-0.6812,-0.6698,-0.6995,-0.7281,-0.7287,-0.8375,-0.9458,-1.0632,-1.1476,-1.2068,-1.2219,-1.2758,-1.3069,-1.3069,-1.3761,-1.4212,-1.4282,-1.5924,-1.6594,-1.6406,-1.7601,-1.9043,-2.0374,-2.0468,-2.141,-2.2974,-2.3062,-2.2981,-2.2981,-2.2731,-2.248,-2.248,-2.223,-2.1991,-2.197,-2.2271,-2.1634,-2.0576,0.0,0.0,0.0,0.0,0.0,0.0,-0.0,-0.0,-0.0373,-0.1428,-0.1144,-0.1049,-0.1527,-0.1622,-0.1621,-0.1621,-0.1497,0.0,0.0,0.0,0.0,0.0,0.0,0.0,0.0,0.0,-0.1904,-0.2779,-0.2954,-0.3011,-0.2867,-0.3014,-0.2541,-0.148,0.0,0.0,0.0,0.0,0.0,0.0,0.0,0.0,0.0,0.0,0.0,0.0,0.0,0.0,0.0,0.0,0.0,0.0,0.0,-0.1682,-0.1184,0.1244,0.1814,0.1798,0.1714,0.1702,0.1787,0.1757,0.1093,0.0437,0.0437,-0.0971,-0.2152,-0.2225,-0.2837,-0.3412,-0.3412,-0.3412,-0.3621,-0.4153,-0.4855,-0.5452,-0.6004,-0.6655,-0.6937,-0.6817,-0.7648,-0.8265,-0.8265,-0.9922,-1.1126,-1.1118,-1.1891,-1.2436,-1.2436,-1.2833,-1.3069,-1.3069,-1.4541,-1.5343,-1.5569,-1.804,-1.8622,-1.7443,-1.8622,-1.9479,-1.9786,-2.0201,-2.1105,-2.2652,-2.2974,-2.2856,-2.2606,-2.2606,-2.2355,-2.2104,-2.2104,-2.1866,-2.1655,-2.1956,-2.1997,-2.1806,0.0,0.0,0.0,0.0,0.0,0.0,0.0,-0.0,-0.0089,-0.0473,-0.0644,-0.0733,-0.0484,-0.1168,-0.1452,-0.105,-0.1328,0.0,0.0,0.0,0.0,0.0,0.0,0.0,0.0,0.0,-0.2281,-0.1945,-0.2606,-0.2997,-0.2925,-0.3035,-0.2823,-0.2497,-0.253,-0.2161,0.0,0.0,0.0,0.0,0.0,0.0,-0.1742,0.0,0.0,0.0,0.0,0.0,0.0,0.0,0.0,0.0,0.0,0.0,0.0,-0.0977,-0.0223,0.0453,-0.011,0.0223,0.0677,0.0108,-0.0219,-0.0443,-0.0438,-0.1427,-0.2212,-0.2235,-0.2861,-0.3458,-0.342,-0.3379,-0.3376,-0.3671,-0.5214,-0.6127,-0.5652,-0.7054,-0.814,-0.7911,-0.8757,-0.961,-1.0163,-1.0765,-1.1345,-1.1891,-1.2219,-1.2762,-1.363,-1.3909,-1.4147,-1.4292,-1.5141,-1.5965,-1.6856,-1.8506,-1.9087,-1.8739,-2.0026,-2.0786,-2.1099,-2.1427,-2.1968,-2.2637,-2.2726,-2.2731,-2.2606,-2.2104,-2.1853,-2.174,-2.1488,-2.1484,-2.1545,-2.1767,-2.1332,-2.0674,0.0,0.0,0.0,0.0,0.0,0.0,0.0,-0.0,-0.0,-0.0,-0.0271,-0.0362,-0.0,-0.0583,-0.0972,-0.078,-0.1267,0.0,0.0,0.0,0.0,0.0,0.0,0.0,-0.1418,-0.2069,-0.2287,-0.205,-0.3102,-0.361,-0.3658,-0.4068,-0.4039,-0.3591,-0.3251,-0.2778,0.0,0.0,0.0,0.0,0.0,0.0,-0.1753,0.0,0.0,0.0,0.0,0.0,0.0,0.0,0.0,0.0,0.0,0.0,0.0,0.0,-0.1858,-0.1468,-0.1425,-0.0889,-0.0452,-0.0876,-0.1104,-0.1342,-0.1438,-0.2112,-0.2912,-0.3357,-0.3886,-0.4385,-0.474,-0.4684,-0.4684,-0.4889,-0.6207,-0.6997,-0.6518,-0.7808,-0.8996,-0.9069,-0.9715,-1.0474,-1.135,-1.1955,-1.2545,-1.3088,-1.3593,-1.4179,-1.4939,-1.5376,-1.585,-1.6452,-1.6771,-1.7229,-1.8144,-1.9319,-2.0026,-2.0026,-2.0859,-2.132,-2.1525,-2.1979,-2.2286,-2.2476,-2.2544,-2.248,0.0,-2.1853,-2.1488,-2.1362,-2.1235,-2.1229,-2.139,-2.139,-2.1163,-2.0768,0.0,0.0,0.0,0.0,0.0,0.0,0.0,-0.0,-0.0,-0.0,-0.0,-0.0,-0.0,-0.0,-0.0194,-0.0704,0.0,0.0,0.0,0.0,0.0,0.0,0.0,0.0,-0.1393,-0.1449,-0.1925,-0.2796,-0.4,-0.4594,-0.4602,-0.5782,-0.5773,-0.4886,-0.3821,-0.3303,0.0,0.0,0.0,0.0,-0.1693,-0.1723,0.0,0.0,0.0,0.0,0.0,0.0,0.0,0.0,0.0,0.0,0.0,0.0,0.0,0.0,0.0,0.0,0.0,-0.2017,-0.1794,-0.123,-0.179,-0.2463,-0.2463,-0.3136,0.0,-0.5258,-0.5477,-0.5886,-0.6872,-0.6953,-0.6948,-0.7067,-0.7612,-0.7942,-0.8157,-0.8689,-0.9496,-1.0418,-1.0737,-1.1265,-1.2172,-1.3516,-1.4277,-1.4299,-1.5596,-1.6393,-1.649,-1.6979,-1.7831,-1.9104,-1.9118,-1.9266,-1.9435,-2.0615,-2.1203,-2.1203,-2.1203,-2.1203,-2.1233,-2.1891,-2.2184,-2.2213,-2.2472,-2.2355,-2.1978,-2.174,-2.1362,-2.1109,-2.1109,-2.1109,-2.1109,-2.1109,-2.1296,-2.159,0.0,0.0,0.0,0.0,0.0,0.0,0.0,0.0,0.0,0.0,-0.0,-0.0,-0.0,-0.0,-0.0098,0.0,0.0,0.0,0.0,0.0,0.0,0.0,0.0,0.0,-0.1514,-0.1438,-0.1569,-0.1924,-0.2241,-0.3136,-0.4602,-0.4984,-0.5471,-0.5863,-0.5758,-0.4686,0.0,0.0,0.0,0.0,-0.1701,-0.1737,0.0,0.0,0.0,0.0,-0.1795,-0.2353,0.0,0.0,0.0,0.0,0.0,0.0,0.0,0.0,-0.5585,-0.5914,-0.5909,0.0,-0.2785,-0.2824,-0.3737,-0.47,0.0,-0.5477,-0.6362,-0.6589,-0.6633,-0.6676,-0.7072,-0.7018,-0.6956,-0.7254,-0.8366,-0.9012,-0.8151,-0.892,-0.9883,-1.0542,-1.1723,-1.29,-1.3863,-1.4871,-1.5624,-1.5825,-1.6294,-1.7104,-1.7987,-1.8328,-1.9104,-2.0258,-2.0501,-2.0659,-2.0744,-2.1089,-2.1203,-2.1203,-2.1203,-2.1203,-2.1233,-2.1625,-2.1795,-2.1838,-2.1838,-2.1727,-2.1727,-2.1362,-2.1109,-2.1109,-2.1109,-2.1109,-2.1109,-2.1109,-2.1296,-2.1563,0.0,0.0,0.0,0.0,0.0,0.0,0.0,0.0,0.0,0.0,0.0,0.0,0.0,0.0,0.0,0.0,0.0,0.0,0.0,0.0,0.0,0.0,0.0,-0.1165,-0.1436,-0.1449,-0.1494,-0.1572,-0.2061,-0.2855,-0.3966,-0.5005,-0.5797,-0.6339,-0.6404,-0.5532,0.0,0.0,0.0,-0.2447,-0.2428,0.0,0.0,0.0,0.0,0.0,-0.3469,-0.3916,0.0,-0.3726,-0.3984,-0.4569,0.0,0.0,0.0,0.0,-0.6808,-0.7385,-0.7113,-0.6065,-0.5069,-0.5202,-0.566,-0.6144,-0.6144,-0.6508,-0.6975,-0.763,-0.7684,-0.7761,-0.8467,-0.8499,-0.8549,-0.8852,-0.95,-1.0122,-1.0293,-1.0797,-1.1608,-1.2461,-1.3435,-1.4195,-1.4685,-1.5767,-1.6612,-1.7092,-1.7825,-1.8725,-1.9417,-1.9836,-2.0246,-2.094,-2.1115,-2.1203,-2.1203,-2.1203,-2.1203,-2.1203,-2.1203,-2.1203,-2.1218,-2.1349,-2.1532,-2.1689,-2.1451,-2.1478,-2.1614,-2.1235,-2.1109,-2.1109,-2.1109,-2.1109,-2.1109,-2.1109,-2.1216,-2.1349,0.0,0.0,0.0,0.0,0.0,0.0,0.0,0.0,0.0,0.0,0.0,0.0,0.0,0.0,0.0,0.0,0.0,0.0,0.0,0.0,0.0,0.0,0.0,-0.0734,-0.1172,-0.1472,-0.1612,-0.1579,-0.2567,-0.3094,-0.3251,-0.5293,-0.6406,-0.6693,-0.6592,-0.5962,-0.5031,0.0,-0.4378,-0.361,-0.3535,0.0,0.0,0.0,0.0,0.0,0.0,0.0,0.0,-0.5527,-0.569,-0.5948,-0.6143,0.0,0.0,0.0,0.0,0.0,-0.7886,-0.7767,-0.7885,-0.7505,-0.7438,-0.7382,-0.7343,-0.7283,-0.744,-0.8486,-0.8689,-0.9053,-1.0182,-1.0306,-1.042,-1.0748,-1.0758,-1.1228,-1.2685,-1.3042,-1.3551,-1.4676,-1.5024,-1.5282,-1.5491,-1.6596,-1.7675,-1.8185,-1.9533,-2.0428,-2.0706,-2.1028,-2.1203,-2.1203,-2.1203,-2.1203,-2.1203,-2.1203,-2.1203,-2.1203,-2.1203,-2.1203,-2.1218,-2.1219,-2.1299,-2.1569,-2.1327,-2.1257,-2.1488,-2.1235,-2.1109,-2.1109,-2.1109,-2.1109,-2.1109,-2.1109,-2.1109,-2.1109,0.0,0.0,0.0,0.0,0.0,0.0,0.0,0.0,0.0,0.0,0.0,0.0,0.0,0.0,0.0,0.0,0.0,0.0,0.0,0.0,0.0,0.0,-0.0092,-0.0185,-0.0184,-0.1033,-0.1549,-0.161,-0.1839,-0.2388,-0.3273,-0.4817,-0.6409,-0.8099,-0.7258,-0.6622,-0.6137,-0.5244,-0.4842,-0.4767,-0.4606,0.0,0.0,0.0,0.0,0.0,0.0,0.0,0.0,-0.5392,-0.6079,-0.7392,-0.7194,0.0,0.0,0.0,0.0,0.0,-1.0529,-1.0447,-0.9876,-0.7725,-0.8042,-0.8811,-0.8567,-0.9126,-0.9808,-0.9878,-0.9951,-1.0007,-1.0297,-1.0519,-1.0774,-1.0983,-1.172,-1.224,-1.2269,-1.3028,-1.3849,-1.4574,-1.5116,-1.5853,-1.706,-1.802,-1.8878,-1.9512,-2.0201,-2.0676,-2.072,-2.1028,-2.1203,-2.1203,-2.1203,-2.1203,-2.1203,-2.1203,-2.1203,-2.1203,-2.1203,-2.1203,-2.1233,-2.1228,-2.1258,-2.1222,-2.1175,-2.1195,-2.1109,-2.1109,-2.1109,-2.1109,-2.1109,-2.1109,-2.1109,-2.1109,-2.1109,-2.1109,0.0,0.0,0.0,0.0,0.0,0.0,0.0,0.0,0.0,0.0,0.0,0.0,0.0,0.0,0.0,0.0,0.0,0.0,0.0,0.0,0.0,0.0,-0.0,-0.0,-0.0,-0.0484,-0.1007,-0.1688,-0.2658,-0.3337,-0.3611,-0.5452,-0.7158,-0.8601,-0.7986,-0.7632,-0.7351,-0.694,-0.639,-0.5846,0.0,0.0,0.0,0.0,0.0,0.0,0.0,0.0,0.0,0.0,-0.7627,-0.8552,-0.8759,0.0,0.0,0.0,0.0,0.0,-1.0891,-1.0948,-1.0659,-0.9204,-0.9588,-1.0077,-0.9745,-0.9929,-1.0266,-1.0176,-1.016,-1.0217,-1.0404,-1.0543,-1.0782,-1.1603,-1.2168,-1.2959,-1.4266,-1.482,-1.5376,-1.6282,-1.6723,-1.7095,-1.7662,-1.8204,-1.8682,-1.942,-1.9975,-2.0308,-2.0706,-2.1028,-2.1203,-2.1203,-2.1203,-2.1203,-2.1203,-2.1203,-2.1203,-2.1203,-2.1203,-2.1191,-2.1133,-2.1053,-2.1004,-2.1094,-2.101,-2.0962,-2.1109,-2.1109,-2.1109,-2.1109,-2.1109,-2.1109,-2.1122,-2.1296,-2.1349,-2.1349,0.0,0.0,0.0,0.0,0.0,0.0,0.0,0.0,0.0,0.0,0.0,0.0,0.0,0.0,0.0,0.0,0.0,0.0,0.0,0.0,-0.0,-0.0,-0.0,-0.0,-0.0,-0.0803,-0.1569,-0.2405,-0.3743,-0.4578,-0.4779,-0.6371,-0.7743,-0.8804,-0.8655,-0.8486,-0.8316,-0.8282,-0.7769,-0.6958,0.0,0.0,0.0,0.0,0.0,0.0,0.0,0.0,0.0,0.0,0.0,0.0,0.0,0.0,0.0,-1.0956,-1.0867,-1.0712,-1.0794,-1.0802,-1.0737,-1.0542,-1.0704,-1.0802,-1.0396,-1.0193,-1.0087,-1.0046,-1.0071,-1.0168,-1.0396,-1.0717,-1.1315,-1.2656,-1.3028,-1.3877,-1.591,-1.6488,-1.6933,-1.7822,-1.7943,-1.7956,-1.8044,-1.8016,-1.8323,-1.8985,-1.9462,-1.9886,-2.0366,-2.0757,-2.0974,-2.0974,-2.0974,-2.0974,-2.0974,-2.1089,-2.1089,-2.1089,-2.1089,-2.1032,-2.1099,-2.0802,-2.0898,-2.1039,-2.0873,-2.0909,-2.1109,-2.1109,-2.1109,-2.1109,-2.1109,-2.1149,-2.1256,-2.155,-2.1657,-2.1657,0.0,0.0,0.0,0.0,0.0,0.0,0.0,0.0,0.0,0.0,0.0,0.0,0.0,0.0,0.0,0.0,0.0,0.0,0.0,0.0,-0.0,-0.0,-0.0,-0.0,-0.0,-0.303,-0.4621,-0.4695,-0.4508,-0.5573,-0.753,-0.7407,-0.7985,-0.9117,-0.8967,-0.8743,-0.8459,-0.833,-0.8343,-0.8347,-0.8206,0.0,0.0,0.0,0.0,0.0,0.0,0.0,0.0,0.0,0.0,0.0,0.0,0.0,-1.0878,-1.1093,-1.0964,-1.0761,-1.1094,-1.0712,-1.029,-1.0599,-1.0688,-1.0574,-1.0046,-0.9916,-0.986,-0.9697,-0.9795,-1.0014,-1.0371,-1.1455,-1.286,-1.4403,-1.5085,-1.5553,-1.5885,-1.6855,-1.7503,-1.7622,-1.7609,-1.7714,-1.8016,-1.8016,-1.8135,-1.8464,-1.901,-1.947,-1.9498,-2.0061,-2.0385,-2.0385,-2.0385,-2.0385,-2.0385,-2.0601,-2.0716,-2.0716,-2.0716,-2.0772,-2.0732,-2.0667,-2.0848,-2.1053,-2.1088,-2.1096,-2.1109,-2.1109,-2.1109,-2.1109,-2.1109,-2.1283,-2.155,-2.1844,-2.1951,-2.1951,0.0,0.0,0.0,0.0,0.0,0.0,0.0,0.0,0.0,0.0,0.0,0.0,0.0,0.0,0.0,0.0,0.0,0.0,0.0,0.0,-0.0,-0.0,-0.2909,-0.4613,-0.4953,-0.6158,-0.5958,-0.4303,-0.5288,-0.6735,-0.8284,-0.8037,-0.8292,-0.8924,-0.8778,-0.86,-0.8621,-0.8567,-0.852,-0.8479,-0.8425,-0.8526,0.0,0.0,0.0,0.0,0.0,0.0,0.0,0.0,-0.8488,-0.8918,-0.9197,-0.9809,-1.0364,-1.0595,-1.061,-1.0558,-1.0696,-1.0534,-1.0339,-1.0355,-1.0444,-1.042,-0.9981,-1.0063,-1.0241,-1.0282,-1.0168,-1.0473,-1.1594,-1.2014,-1.2899,-1.5224,-1.5671,-1.6074,-1.6829,-1.7371,-1.7582,-1.7582,-1.7582,-1.7687,-1.7687,-1.7793,-1.7898,-1.8122,-1.8686,-1.914,-1.9346,-1.9934,-2.027,-2.027,-2.027,-2.027,-2.027,-2.0385,-1.991,-1.8958,-1.9305,-1.9924,-2.0667,-1.9919,-1.9607,-1.9789,-2.0663,-2.0589,-1.9814,-2.0716,-2.1109,-2.1122,-2.1309,-2.1563,-2.1857,-2.2151,-2.2258,-2.2258,0.0,0.0,0.0,0.0,0.0,0.0,0.0,0.0,0.0,0.0,0.0,0.0,0.0,0.0,0.0,0.0,0.0,0.0,0.0,-0.0,-0.0704,-0.2241,-0.5466,-0.7298,-0.7672,-0.7703,-0.6893,-0.5072,-0.6532,-0.7724,-0.8506,-0.8335,-0.8388,-0.8641,-0.8457,-0.8459,-0.8517,-0.8534,-0.8541,-0.8448,-0.8554,-0.8615,0.0,0.0,0.0,0.0,0.0,0.0,0.0,0.0,-0.8316,-0.8687,-0.9041,-0.9494,-0.9861,-1.0128,-1.0257,-1.0248,-1.0138,-1.0174,-1.0216,-1.0088,-1.0104,-1.0088,-0.9839,-0.9975,-1.0071,-1.0126,-1.0126,-1.0805,-1.2607,-1.2723,-1.3562,-1.616,-1.6499,-1.6622,-1.7463,-1.7582,-1.7582,-1.7582,-1.7582,-1.7582,-1.7582,-1.7582,-1.7687,-1.7911,-1.8469,-1.8919,-1.914,-1.9721,-2.0053,-2.0053,-2.0053,-1.9809,-1.9448,-1.9448,-1.8777,-1.7197,-1.7315,-1.8031,-1.9229,-1.8459,-1.8238,-1.8396,-1.9814,-1.9941,-1.9164,-2.0462,-2.1162,-2.1283,-2.167,-2.1951,-2.2164,-2.2445,-2.2565,-2.2565,0.0,0.0,0.0,0.0,0.0,0.0,0.0,0.0,-0.0,-0.0,-0.0,0.0,0.0,0.0,0.0,0.0,0.0,0.0,-0.0,-0.0,-0.2196,-0.6981,-0.7211,-0.7231,-0.7247,-0.7355,-0.7409,-0.7522,-0.8093,-0.8506,-0.8641,-0.8372,-0.8317,-0.8427,-0.8164,-0.8121,-0.8231,-0.8291,-0.8285,-0.8285,-0.8608,-0.8716,-0.873,0.0,0.0,0.0,0.0,0.0,0.0,0.0,-0.8275,-0.8453,-0.9117,-0.9375,-0.9514,-1.0003,-1.0055,-0.9988,-0.9652,-0.9655,-0.9743,-0.9743,-0.9618,-0.9486,-0.9486,-0.9486,-0.9338,-0.8862,-0.9564,-1.0958,-1.3309,-1.3954,-1.5043,-1.7603,-1.7542,-1.7261,-1.7542,-1.7582,-1.7582,-1.7582,-1.7582,-1.7582,-1.7582,-1.7582,-1.7582,-1.7595,-1.8156,-1.8504,-1.849,-1.9052,-1.9372,-1.9372,-1.9372,-1.8765,-1.7455,-1.7793,-1.7209,-1.5793,-1.4821,-1.5064,-1.6269,-1.6391,-1.6626,-1.7109,-1.8396,-1.8908,-1.9036,-2.0462,-2.1283,-2.1617,-2.2191,-2.2418,-2.2458,-2.2752,-2.2859,-2.2859,0.0,0.0,0.0,0.0,0.0,0.0,0.0,0.0,-0.0,-0.0,-0.0,0.0,0.0,0.0,0.0,0.0,0.0,0.0,-0.0,-0.2783,-0.5174,-0.6614,-0.7004,-0.7174,-0.7209,-0.7264,-0.7293,-0.7403,-0.7862,-0.7867,-0.7652,-0.7504,-0.7604,-0.7826,-0.775,-0.785,-0.8103,-0.8348,-0.8426,-0.8433,-0.887,-0.896,-0.8886,0.0,0.0,0.0,0.0,0.0,0.0,0.0,0.0,0.0,-0.8563,-0.9004,-0.934,-0.9269,-0.9399,-0.9637,-0.9309,-0.9564,-0.9859,-0.9412,-0.9692,-0.9854,-0.919,-0.9332,-0.9504,-0.9354,-0.9593,-1.0453,-1.2342,-1.3163,-1.4385,-1.6796,-1.7482,-1.7809,-1.7903,-1.7903,-1.7822,-1.7609,-1.7582,-1.7556,-1.7554,-1.7795,-1.778,-1.7541,-1.8307,-1.8669,-1.8446,-1.8997,-1.9351,-1.9372,-1.9372,-1.8868,-1.7613,-1.7732,-1.6771,-1.468,-1.4596,-1.5197,-1.6391,-1.557,-1.5347,-1.5554,-1.698,-1.6969,-1.6343,-1.8853,-2.0135,-2.0435,-2.187,-2.1862,-2.1221,-2.2408,-2.2859,-2.2859,0.0,0.0,0.0,0.0,0.0,0.0,-0.0,-0.0,-0.0606,-0.2324,-0.2526,-0.3232,0.0,0.0,0.0,-0.0198,-0.0,-0.0759,-0.2385,-0.4919,-0.6042,-0.5205,-0.6426,-0.7163,-0.7192,-0.7078,-0.7084,-0.7315,-0.7421,-0.7404,-0.7154,-0.7205,-0.7371,-0.7528,-0.7528,-0.7641,-0.7867,-0.832,-0.8401,-0.8469,-0.9004,-0.9103,-0.9035,0.0,0.0,0.0,0.0,0.0,0.0,0.0,0.0,0.0,-0.8384,-0.8646,-0.9054,-0.8821,-0.8997,-0.9313,-0.929,-0.9608,-0.9828,-0.9518,-0.97,-0.9682,-0.9012,-0.8955,-0.9147,-0.9147,-0.9435,-1.0014,-1.145,-1.2822,-1.4429,-1.6109,-1.7469,-1.8223,-1.8223,-1.8223,-1.8156,-1.7969,-1.7835,-1.7793,-1.7746,-1.7773,-1.7741,-1.7576,-1.8122,-1.8416,-1.8236,-1.8777,-1.8998,-1.858,-1.8698,-1.7982,-1.6298,-1.6298,-1.5432,-1.3527,-1.3651,-1.4263,-1.4971,-1.4207,-1.3891,-1.4137,-1.5554,-1.5944,-1.5834,-1.7993,-1.8893,-1.9212,-2.0934,-2.1183,-2.0768,-2.2297,-2.2859,-2.2859,0.0,0.0,0.0,0.0,0.0,0.0,-0.0,-0.0,-0.1515,-0.5876,-0.639,-0.567,0.0,0.0,0.0,-0.0605,-0.0099,-0.1852,-0.6165,-0.644,-0.5498,-0.3625,-0.5691,-0.6926,-0.6943,-0.6843,-0.6893,-0.7203,-0.6974,-0.6906,-0.7122,-0.7133,-0.7263,-0.7486,-0.7497,-0.7497,-0.7602,-0.8055,-0.8323,-0.8314,-0.8897,-0.9123,-0.9117,-0.913,0.0,0.0,0.0,0.0,0.0,0.0,0.0,0.0,-0.8486,-0.8492,-0.8526,-0.8635,-0.8784,-0.894,-0.9391,-0.9574,-0.961,-0.9905,-0.9567,-0.9068,-0.8886,-0.8716,-0.8526,-0.854,-0.8967,-0.9662,-1.0799,-1.2726,-1.4639,-1.5794,-1.7436,-1.8531,-1.8531,-1.8531,-1.8517,-1.849,-1.8144,-1.8033,-1.7948,-1.7751,-1.7565,-1.7591,-1.7843,-1.811,-1.8084,-1.8687,-1.8462,-1.7361,-1.7637,-1.6675,-1.4307,-1.4182,-1.3662,-1.2588,-1.2588,-1.2678,-1.284,-1.284,-1.284,-1.2832,-1.4128,-1.5564,-1.6915,-1.7374,-1.7566,-1.7766,-1.9599,-2.0352,-2.0352,-2.2022,-2.2722,-2.2722,0.0,0.0,0.0,0.0,0.0,0.0,-0.0303,-0.0,-0.1513,-0.5876,-0.639,-0.6178,-0.5756,-0.6073,0.0,-0.272,-0.0991,-0.1863,-0.6089,-0.6407,-0.6203,-0.5694,-0.6524,-0.6418,-0.5346,-0.6328,-0.6851,-0.6855,-0.6585,-0.66,-0.6781,-0.71,-0.7216,-0.7236,-0.7334,-0.7437,-0.7567,-0.7796,-0.8004,-0.8113,-0.8666,-0.8913,-0.8818,-0.894,-0.8947,0.0,0.0,0.0,0.0,0.0,0.0,0.0,-0.852,-0.8567,-0.8621,-0.8425,-0.8554,-0.8737,-0.8755,-0.9216,-0.9546,-0.9085,-0.8865,-0.8824,-0.875,-0.8804,-0.8872,-0.8988,-0.9085,-0.9514,-1.104,-1.2478,-1.4116,-1.6136,-1.7629,-1.8472,-1.8824,-1.8824,-1.8632,-1.8171,-1.802,-1.7888,-1.7654,-1.7995,-1.8093,-1.7836,-1.8464,-1.8885,-1.8669,-1.9163,-1.9,-1.7997,-1.8058,-1.7055,-1.4788,-1.4534,-1.3877,-1.2775,-1.2775,-1.28,-1.284,-1.284,-1.284,-1.284,-1.3095,-1.4086,-1.5555,-1.5962,-1.604,-1.6353,-1.8133,-1.811,-1.7409,-2.0074,-2.1044,-2.1333,0.0,0.0,0.0,0.0,0.0,0.0,0.0,0.0,-0.1223,-0.4452,-0.577,-0.6374,-0.6353,-0.6369,0.0,0.0,-0.1399,-0.1389,-0.463,-0.4912,-0.5363,-0.6529,-0.6879,-0.6681,-0.5994,-0.6483,-0.6781,-0.6717,-0.6546,-0.6513,-0.662,-0.685,-0.6997,-0.716,-0.7279,-0.7387,-0.7604,-0.7859,-0.8004,-0.8278,-0.8763,-0.8893,-0.8825,-0.8906,-0.8845,-0.871,-0.8628,0.0,0.0,0.0,0.0,0.0,0.0,0.0,-0.8574,-0.8418,-0.8479,-0.8628,-0.8981,-0.9196,-0.9342,-0.9071,-0.8872,-0.8818,-0.8818,-0.8879,-0.896,-0.9035,-0.9049,-0.9286,-1.0257,-1.209,-1.3992,-1.5149,-1.705,-1.8429,-1.8672,-1.8672,-1.8492,-1.8223,-1.8212,-1.8121,-1.7923,-1.8183,-1.8237,-1.8117,-1.8721,-1.8746,-1.8117,-1.8601,-1.824,-1.6764,-1.6874,-1.6055,-1.4253,-1.4123,-1.3526,-1.284,-1.284,-1.284,-1.284,-1.284,-1.284,-1.284,-1.284,-1.3277,-1.4042,-1.4467,-1.4516,-1.4769,-1.6588,-1.6846,-1.6433,-1.867,-1.9507,-1.9785,0.0,0.0,0.0,0.0,0.0,0.0,0.0,0.0,0.0,-0.3027,-0.5048,-0.6358,-0.6415,-0.6331,-0.5822,0.0,0.0,0.0,-0.3142,-0.3601,-0.4732,-0.6717,-0.705,-0.7155,-0.7154,-0.6937,-0.6812,-0.6796,-0.6261,-0.6209,-0.6622,-0.6669,-0.6953,-0.716,-0.7258,-0.7466,-0.768,-0.7853,-0.8144,-0.8451,-0.8702,-0.8825,-0.8825,-0.8825,-0.8682,-0.8479,-0.8452,-0.854,-0.8676,-0.8703,0.0,0.0,0.0,0.0,-0.8953,-0.8924,-0.8938,-0.9159,-0.9801,-0.9846,-0.968,-0.9483,-0.9377,-0.9154,-0.894,-0.894,-0.894,-0.894,-0.9055,-0.9384,-0.9858,-1.2046,-1.4043,-1.4549,-1.6728,-1.8311,-1.8415,-1.8415,-1.844,-1.8374,-1.8351,-1.8394,-1.8431,-1.8398,-1.8447,-1.8576,-1.8671,-1.8298,-1.7576,-1.7841,-1.72,-1.5238,-1.5405,-1.4871,-1.3498,-1.3367,-1.3235,-1.284,-1.284,-1.284,-1.284,-1.284,-1.284,-1.284,-1.284,-1.2873,-1.2954,-1.3246,-1.3409,-1.3628,-1.5184,-1.5726,-1.5867,-1.7409,-1.7959,-1.8239,0.0,0.0,0.0,0.0,0.0,0.0,0.0,0.0,0.0,0.0,-0.5048,-0.6331,-0.6306,-0.6301,-0.5669,-0.4219,-0.4975,-0.492,-0.3332,0.0,0.0,-0.6948,-0.698,-0.704,-0.7149,-0.6926,-0.6752,-0.6649,-0.5289,-0.5284,-0.6627,-0.6855,-0.7029,-0.7154,-0.7399,-0.7668,-0.7744,-0.783,-0.7968,-0.8066,-0.8303,-0.8364,-0.8364,-0.8364,-0.8411,-0.8465,-0.8343,-0.8391,-0.8533,-0.8669,-0.9268,0.0,0.0,0.0,-1.0988,-1.0915,-1.0888,-1.1078,-1.1322,-1.1532,-1.1617,-1.0907,-1.0588,-1.0241,-0.9154,-0.894,-0.894,-0.894,-0.9055,-0.9865,-1.2275,-1.3067,-1.4336,-1.7032,-1.7818,-1.8077,-1.8428,-1.8415,-1.8399,-1.8401,-1.8344,-1.8468,-1.8691,-1.8753,-1.8875,-1.9459,-1.8704,-1.8325,-1.8459,-1.7925,-1.7063,-1.5874,-1.5931,-1.5274,-1.3875,-1.3498,-1.3367,-1.3367,-1.3367,-1.3104,-1.284,-1.284,-1.284,-1.284,-1.284,-1.3011,-1.3303,-1.3352,-1.3555,-1.3831,-1.4164,-1.4181,-1.4324,-1.5867,-1.6433,-1.6574,0.0,0.0,0.0,0.0,0.0,0.0,0.0,0.0,0.0,0.0,0.0,-0.6353,-0.6388,-0.6219,-0.5863,-0.5417,-0.5863,-0.5925,-0.5075,-0.6027,-0.6676,-0.6774,-0.691,-0.6975,-0.6959,-0.6861,-0.6752,-0.6627,-0.5901,-0.5935,-0.6736,-0.6904,-0.7013,-0.7056,-0.7311,-0.7463,-0.7712,-0.7648,-0.785,-0.8174,-0.8241,-0.837,-0.8499,-0.8336,-0.8357,-0.8452,-0.8221,-0.8235,-0.8377,-0.8438,-0.9197,-1.0119,-0.9919,0.0,0.0,0.0,-1.1321,-1.1456,-1.1775,-1.199,-1.1891,-1.1098,-1.081,-1.0374,-0.937,-0.8994,-0.896,-0.9042,-0.9178,-0.9867,-1.1757,-1.2947,-1.4262,-1.6279,-1.7244,-1.7726,-1.783,-1.7948,-1.788,-1.7885,-1.8286,-1.858,-1.8555,-1.895,-1.9123,-1.8688,-1.8545,-1.8018,-1.7033,-1.7008,-1.6435,-1.5426,-1.5394,-1.5052,-1.4137,-1.4015,-1.3761,-1.3367,-1.3367,-1.3235,-1.284,-1.284,-1.284,-1.284,-1.284,-1.2978,-1.3222,-1.3327,-1.3522,-1.3758,-1.3758,-1.3758,-1.3742,-1.4335,-1.4571,-1.4857,0.0,0.0,0.0,0.0,0.0,0.0,0.0,0.0,0.0,0.0,0.0,-0.5817,-0.6321,0.0,0.0,0.0,-0.6166,-0.6235,-0.6348,-0.6567,-0.6627,-0.6622,-0.6855,-0.6915,-0.6757,-0.6685,-0.6736,-0.6584,-0.6497,-0.6578,-0.6923,-0.6899,-0.697,-0.7024,-0.7254,-0.7493,-0.7632,-0.7706,-0.7965,-0.8275,-0.8309,-0.8459,-0.8635,-0.8492,-0.8479,-0.8499,-0.8201,-0.8174,-0.8364,-0.8526,-0.9391,-1.0391,-1.0509,-1.1353,0.0,0.0,0.0,-1.2194,-1.2585,-1.2725,-1.2644,-1.1827,-1.1617,-1.1253,-0.9846,-0.9489,-0.9356,-0.9243,-0.9306,-0.9785,-1.1165,-1.236,-1.3784,-1.5817,-1.6644,-1.7126,-1.7608,-1.7608,-1.7633,-1.7811,-1.8419,-1.8738,-1.8734,-1.89,-1.8803,-1.8021,-1.7863,-1.7145,-1.5794,-1.5929,-1.5653,-1.4791,-1.48,-1.467,-1.4268,-1.4277,-1.4041,-1.3434,-1.3392,-1.3235,-1.284,-1.284,-1.284,-1.284,-1.284,-1.2938,-1.3108,-1.3246,-1.3409,-1.3571,-1.3571,-1.3571,-1.3555,-1.3425,-1.3401,-1.3595,0.0,0.0,0.0,0.0,0.0,0.0,0.0,0.0,0.0,0.0,0.0,-0.4121,-0.6192,-0.6377,-0.6225,-0.6105,-0.6203,-0.6317,-0.6431,-0.6551,-0.6622,-0.6622,-0.6855,0.0,-0.6632,-0.6741,-0.6687,-0.6448,-0.6442,-0.6562,-0.6801,-0.6812,-0.6931,-0.7254,-0.7692,-0.7774,-0.7638,-0.8117,-0.8262,-0.8282,-0.8418,-0.8479,-0.8526,-0.8798,-0.8818,-0.8662,-0.8364,-0.8262,-0.8452,-0.9283,-1.0216,-1.1334,-1.2532,-1.3434,-1.4124,0.0,0.0,0.0,-1.4481,-1.4731,-1.4777,-1.3876,-1.3891,-1.3403,-1.1118,-1.0707,-1.0482,-0.9377,-0.9388,-0.9947,-1.1232,-1.1622,-1.3066,-1.6762,-1.6408,-1.629,-1.7726,-1.7972,-1.8177,-1.8665,-1.8715,-1.9082,-1.9581,-1.8409,-1.7769,-1.8344,-1.6519,-1.5411,-1.5649,-1.5199,-1.4791,-1.4408,-1.467,-1.4539,-1.3875,-1.3875,-1.3839,-1.362,-1.3451,-1.3235,-1.284,-1.284,-1.284,-1.284,-1.284,-1.2938,-1.3092,-1.3108,-1.3214,-1.3384,-1.3384,-1.3384,-1.3384,-1.3376,-1.3482,-1.3628,0.0,0.0,0.0,0.0,0.0,0.0,0.0,0.0,0.0,0.0,0.0,0.0,0.0,-0.6323,-0.6252,-0.6208,-0.6241,-0.6317,-0.6431,-0.6475,-0.6502,-0.6502,-0.6736,-0.6752,-0.6507,-0.6698,-0.6681,-0.6437,-0.6437,-0.6524,-0.6687,-0.6844,-0.6921,-0.6926,-0.7356,-0.7523,-0.7632,-0.782,-0.7925,-0.814,-0.8384,-0.854,-0.8642,-0.875,-0.8818,-0.8818,-0.8513,-0.835,-0.8364,-0.8708,-0.9805,-1.1287,-1.1757,-1.2997,-1.4292,-1.4292,-1.4292,-1.4352,-1.4642,-1.4787,-1.469,-1.4101,-1.3976,-1.3581,-1.2229,-1.2006,-1.1984,-1.1654,-1.1197,-1.1516,-1.376,-1.2782,-1.2706,-1.5806,-1.6042,-1.6397,-1.7843,-1.8194,-1.8466,-1.879,-1.9076,-1.9153,-1.9443,-1.8414,-1.7493,-1.7132,-1.5894,-1.5107,-1.475,-1.4641,-1.4539,-1.4408,-1.4539,-1.4594,-1.4723,-1.4861,-1.4693,-1.4214,-1.4153,-1.3654,-1.3003,-1.3003,-1.2938,-1.284,-1.284,-1.2938,-1.3092,-1.3092,-1.3206,-1.336,-1.3238,-1.3197,-1.3197,-1.3197,-1.323,-1.3327,0.0,0.0,0.0,0.0,0.0,0.0,0.0,0.0,-0.0492,-0.193,0.0,0.0,0.0,0.0,-0.6323,-0.6323,-0.6323,-0.6355,-0.6431,-0.6437,-0.6437,-0.6437,-0.6671,-0.6709,-0.6502,-0.6698,-0.6703,-0.6497,-0.6453,-0.6502,-0.6622,-0.6785,-0.6839,-0.6796,-0.7027,-0.7246,-0.7638,-0.766,-0.7857,-0.814,-0.8438,-0.8587,-0.8655,-0.8859,-0.8906,-0.8845,-0.8689,-0.854,-0.8522,-0.8827,-0.9816,-1.106,-1.1725,-1.2964,-1.4292,-1.4292,-1.4292,-1.434,-1.4521,-1.4642,-1.4683,-1.4522,-1.4068,-1.3636,-1.3487,-1.2776,-1.2244,-1.24,-1.1678,-1.1487,-1.3269,-1.2346,-1.2346,-1.5817,-1.5795,-1.6031,-1.8194,-1.8544,-1.8765,-1.8752,-1.892,-1.8841,-1.8428,-1.7375,-1.6429,-1.5671,-1.5042,-1.4392,-1.3842,-1.4038,-1.4268,-1.4268,-1.4268,-1.4526,-1.4934,-1.5008,-1.4837,-1.4414,-1.4216,-1.3815,-1.3092,-1.3092,-1.3003,-1.284,-1.284,-1.2905,-1.3011,-1.3011,-1.3084,-1.3181,-1.3116,-1.3092,-1.31,-1.3165,-1.3222,-1.3311,0.0,0.0,0.0,0.0,0.0,0.0,0.0,0.0,-0.1507,-0.5836,0.0,0.0,0.0,0.0,0.0,-0.6442,-0.6442,-0.6442,-0.6437,-0.6437,-0.6437,-0.6437,0.0,0.0,-0.6622,-0.6741,-0.6741,-0.6622,-0.6497,-0.6497,-0.6616,-0.6616,-0.6681,-0.6785,-0.6862,-0.7094,-0.7644,-0.7836,-0.8073,-0.8289,-0.8581,-0.8615,-0.8554,-0.915,-0.9103,-0.875,-0.8899,-0.8852,-0.8831,-0.9892,-1.0425,-1.0824,-1.2645,-1.3712,-1.4292,-1.4292,-1.4292,-1.4292,0.0,0.0,0.0,-1.5342,-1.455,-1.3789,-1.4833,-1.2964,-1.1142,-1.1503,-1.0651,-0.9808,-0.9937,-1.0186,-1.1985,-1.7126,-1.5795,-1.5311,-1.8752,-1.9243,-1.8997,-1.8506,-1.8389,-1.7923,-1.6621,-1.5332,-1.46,-1.4465,-1.3697,-1.3274,-1.3088,-1.3665,-1.3892,-1.3875,-1.3884,-1.4077,-1.4446,-1.4279,-1.4249,-1.4195,-1.3742,-1.3287,-1.31,-1.31,-1.3003,-1.284,-1.284,-1.284,-1.2848,-1.2848,-1.2848,-1.2865,-1.3035,-1.31,-1.3124,-1.3311,-1.349,-1.3644,0.0,0.0,0.0,0.0,0.0,-0.1368,-0.0207,-0.0,-0.1647,0.0,0.0,0.0,-0.6395,-0.6481,-0.6567,-0.6567,-0.6567,-0.6529,-0.6442,-0.6437,-0.6437,-0.6437,-0.6671,-0.6747,-0.6622,-0.6741,-0.6741,-0.6622,-0.6497,-0.6453,-0.6486,-0.6782,-0.6953,-0.6987,-0.7217,-0.7522,-0.7685,-0.7483,-0.7641,-0.8119,-0.8316,-0.8492,-0.8689,-0.9069,-0.9205,-0.9198,-0.9245,-0.9164,-0.914,-0.9363,-1.0349,-1.1576,-1.338,-1.4122,-1.4292,-1.4292,-1.3715,-1.3318,-1.41,0.0,0.0,0.0,0.0,0.0,-1.4908,-1.4028,-1.3156,-1.3486,-1.2144,-1.1318,-1.2653,-1.1503,-1.1503,-1.5332,-1.5322,-1.5558,-1.7689,-1.8169,-1.8402,-1.8752,-1.7689,-1.6985,-1.6868,-1.5461,-1.4671,-1.4928,-1.4033,-1.3664,-1.3866,-1.3931,-1.3772,-1.3507,-1.3754,-1.4078,-1.4455,-1.4543,-1.4579,-1.4398,-1.4206,-1.3874,-1.3295,-1.3295,-1.3124,-1.284,-1.284,-1.2905,-1.3027,-1.3027,-1.3027,-1.3043,-1.3222,-1.3295,-1.3319,-1.3498,-1.3604,-1.366,0.0,0.0,-0.405,-0.2149,-0.0862,-0.0,-0.0,-0.0849,-0.2437,0.0,0.0,0.0,-0.6505,-0.6647,-0.673,-0.6627,-0.6622,-0.6567,-0.6442,-0.6437,-0.6437,-0.6437,-0.6671,-0.6768,-0.6698,-0.6817,-0.6817,-0.6698,-0.6573,-0.6486,-0.6437,-0.6614,-0.6749,-0.6749,-0.7077,-0.728,-0.7327,-0.7216,-0.7419,-0.8065,-0.8343,-0.852,-0.8662,-0.9089,-0.9225,-0.9225,-0.9408,-0.934,-0.9184,-0.9367,-1.0532,-1.2011,-1.3007,-1.3457,-1.3703,-1.4196,-1.3511,-1.292,-1.4004,-1.38,-1.3602,-1.4576,0.0,0.0,-1.5611,-1.4137,-1.2859,-1.4043,-1.2407,-1.1113,-1.232,-1.139,-1.1148,-1.3177,-1.4133,-1.5084,-1.6868,-1.722,-1.7337,-1.7455,-1.675,-1.6042,-1.5698,-1.484,-1.4314,-1.4394,-1.3943,-1.3761,-1.3874,-1.3721,-1.351,-1.322,-1.3553,-1.384,-1.4045,-1.4302,-1.4352,-1.4189,-1.4189,-1.3999,-1.3368,-1.3368,-1.3173,-1.284,-1.284,-1.2938,-1.31,-1.3173,-1.3206,-1.323,-1.3409,-1.3482,-1.3506,-1.3685,-1.375,-1.3766,0.0,0.0,-0.5277,-0.1204,-0.044,-0.044,-0.044,-0.2203,-0.3616,0.0,-0.3862,-0.4717,-0.6664,-0.6953,-0.6915,-0.6698,-0.6654,-0.6589,-0.6464,-0.6442,-0.6437,-0.6437,-0.6671,-0.6801,-0.6801,-0.6921,-0.6926,-0.6801,-0.6681,-0.6556,-0.6437,-0.6437,-0.6437,-0.6431,-0.6623,-0.6738,-0.6924,-0.7051,-0.7508,-0.8119,-0.8486,-0.8581,-0.8574,-0.9157,-0.9239,-0.9089,-0.949,-0.9456,-0.9286,-0.9765,-1.0802,-1.1928,-1.2054,-1.2284,-1.2769,-1.3738,-1.3255,-1.2597,-1.363,-1.3931,-1.3951,-1.4495,-1.359,0.0,-1.5853,-1.3394,-1.123,-1.3333,-1.1687,-0.9964,-1.0222,-1.0576,-1.0823,-1.116,-1.2534,-1.4143,-1.6031,-1.6301,-1.6183,-1.5688,-1.5483,-1.4898,-1.3842,-1.3779,-1.3729,-1.3313,-1.3587,-1.3703,-1.3352,-1.3409,-1.3336,-1.3133,-1.3419,-1.351,-1.3401,-1.3675,-1.385,-1.3904,-1.3904,-1.3717,-1.3368,-1.3368,-1.3173,-1.284,-1.2856,-1.2962,-1.3141,-1.3327,-1.3401,-1.3417,-1.3604,-1.3669,-1.3693,-1.3847,-1.3904,-1.3904,-0.6796,-0.598,-0.4878,-0.4006,-0.3493,-0.3184,-0.3184,-0.3411,-0.3651,-0.3796,-0.5471,-0.6822,-0.7366,-0.7225,-0.71,-0.7056,-0.6877,-0.6714,-0.6589,-0.6491,-0.6437,-0.6437,-0.6671,-0.6801,-0.6801,-0.6921,-0.6926,-0.6801,-0.6681,-0.6556,-0.6437,-0.6642,-0.6742,-0.6742,-0.7217,-0.7422,-0.7441,-0.7655,-0.7999,-0.8384,-0.8228,-0.837,-0.8716,-0.9198,-0.949,-0.9659,-0.9747,-0.9741,-0.9786,-1.0442,-1.0878,-1.123,-1.1584,-1.1925,-1.2154,-1.1865,-1.1206,-1.0782,-1.156,-1.1293,-1.0907,-1.1717,-1.1883,0.0,-1.2314,-1.1253,-1.0481,-1.1095,-1.0093,-0.9297,-1.007,-1.022,-1.0379,-1.0699,-1.162,-1.2844,-1.4728,-1.5121,-1.5293,-1.5591,-1.455,-1.3817,-1.3582,-1.3364,-1.3287,-1.3515,-1.3785,-1.3704,-1.3368,-1.3644,-1.3652,-1.3327,-1.3457,-1.3555,-1.3587,-1.3587,-1.3693,-1.3904,-1.3904,-1.3717,-1.3368,-1.3368,-1.3173,-1.2848,-1.2986,-1.3149,-1.3327,-1.3514,-1.3595,-1.3612,-1.3782,-1.3855,-1.3855,-1.3888,-1.3904,-1.3904,-0.698,-0.6423,-0.6065,-0.612,-0.5948,-0.5767,-0.5925,-0.5813,-0.5714,-0.5752,-0.6818,-0.7546,-0.7606,-0.7448,-0.7285,-0.7165,-0.6991,-0.6839,-0.6719,-0.6594,-0.6529,-0.6529,-0.6703,-0.6801,-0.6801,-0.698,-0.7013,-0.6893,-0.6774,-0.6649,-0.6524,-0.657,-0.6709,-0.6821,-0.69,-0.7113,-0.7431,-0.7428,-0.7674,-0.7859,-0.826,-0.871,-0.9089,-0.9456,-0.9693,-0.9822,-0.9822,-0.9822,-0.9788,-1.0148,-1.0539,-1.0795,-1.1194,-1.1259,-1.1202,-1.1327,-1.0808,-1.0269,-1.0987,-1.0861,-1.0635,-1.1132,-1.1306,0.0,0.0,-1.1277,-1.0661,-1.1259,-1.0288,-0.964,-1.0239,-1.0339,-1.0393,-1.0843,-1.1419,-1.213,-1.3306,-1.3817,-1.4223,-1.4607,-1.4081,-1.3536,-1.3412,-1.3376,-1.3343,-1.3595,-1.357,-1.3546,-1.3498,-1.3758,-1.3782,-1.3514,-1.3595,-1.3644,-1.3644,-1.3644,-1.3734,-1.3904,-1.3904,-1.3766,-1.3506,-1.3506,-1.336,-1.3108,-1.3197,-1.3336,-1.3514,-1.3604,-1.3693,-1.3782,-1.3863,-1.3904,-1.3904,-1.3904,-1.3904,-1.3904,-0.7149,-0.7176,-0.7209,-0.7431,-0.7492,-0.7552,-0.7769,-0.7802,-0.7814,-0.7685,-0.7665,-0.7736,-0.7736,-0.7627,-0.7475,-0.7274,-0.7133,-0.7002,-0.6877,-0.6757,-0.6692,-0.6687,-0.6785,-0.6839,-0.6839,-0.7024,-0.7067,-0.6948,-0.6828,-0.6714,-0.6616,-0.6497,-0.654,-0.6725,-0.6675,-0.681,-0.7165,-0.7089,-0.7242,-0.7458,-0.8441,-0.8903,-0.9171,-0.9578,-0.9734,-0.9741,-0.9802,-0.9822,-0.9802,-0.9659,-1.0018,-1.0486,-1.0524,-1.0324,-1.0233,-1.0854,-1.0523,-0.9999,-1.0515,-1.0726,-1.0879,-1.0869,-1.0925,-1.1098,0.0,0.0,0.0,-1.1492,-1.0691,-0.9831,-1.0272,-1.0295,-1.0485,-1.0876,-1.1354,0.0,0.0,-1.275,0.0,-1.3626,-1.369,-1.3609,-1.323,-1.3378,-1.3483,-1.3419,-1.3317,-1.336,-1.3579,-1.3758,-1.3807,-1.3701,-1.3693,-1.3693,-1.3693,-1.3693,-1.3766,-1.3904,-1.3904,-1.3815,-1.3644,-1.3644,-1.3563,-1.3425,-1.3425,-1.353,-1.3693,-1.3693,-1.3774,-1.3904,-1.3904,-1.3904,-1.3904,-1.3904,-1.3904,-1.3904,-0.7111,-0.716,-0.7165,-0.7176,-0.7361,-0.7508,-0.7519,-0.7616,-0.7682,-0.7682,-0.778,-0.785,-0.785,-0.7747,-0.7671,-0.7644,-0.7327,-0.7145,-0.7122,-0.7013,-0.6845,-0.6942,-0.6959,-0.6964,-0.6964,-0.6991,-0.6942,-0.6823,-0.6698,-0.6632,-0.6616,-0.6698,-0.6659,-0.6486,-0.7194,-0.7345,-0.7061,-0.7339,-0.7779,-0.8091,-0.8387,-0.8421,-0.8282,-0.9117,-0.9429,-0.9462,-0.9727,-0.9822,-0.9802,-0.9659,-0.9703,-0.9607,-0.9222,-0.9339,-0.9599,-0.8997,-0.9089,-0.9203,-0.8864,-0.9159,-0.9315,-0.9043,-0.9384,-0.9594,-0.9322,0.0,-0.9619,-0.9524,0.0,-0.9384,-0.9678,0.0,0.0,-1.0249,-1.072,-1.1396,-1.2316,-1.2569,-1.2802,-1.3049,-1.3104,-1.3174,-1.3046,-1.2805,-1.2775,-1.2848,-1.2889,-1.3043,-1.3384,-1.3579,-1.3734,-1.3863,-1.3872,-1.3872,-1.3872,-1.3872,-1.388,-1.3904,-1.3904,-1.3815,-1.3644,-1.3644,-1.3636,-1.3612,-1.3612,-1.3709,-1.3872,-1.3872,-1.3888,-1.3904,-1.3904,-1.3904,-1.3904,-1.3904,-1.3904,-1.3904,-0.7008,-0.7056,-0.71,-0.7236,-0.7345,-0.7459,-0.7606,-0.7785,-0.7932,-0.8002,-0.7992,-0.803,-0.8171,-0.7954,-0.7807,-0.7818,-0.7541,-0.7036,-0.5983,-0.6699,-0.7203,-0.7192,-0.7122,-0.7051,-0.6986,-0.6986,-0.6926,-0.6801,-0.6681,-0.6622,-0.6616,-0.6597,-0.6653,-0.6757,-0.7074,-0.7322,-0.7575,-0.7598,-0.7672,-0.7901,-0.8253,-0.8229,-0.8071,-0.9144,-0.9639,-0.9652,-0.9774,-0.9822,-0.9815,-0.9754,-0.9618,-0.9476,-0.9456,-0.9401,-0.9279,-0.896,-0.8947,-0.8947,-0.8581,-0.8701,-0.8876,-0.887,-0.9017,-0.9137,-0.9244,-0.9253,-0.9345,-0.957,0.0,0.0,0.0,0.0,0.0,0.0,-1.0615,-1.1134,0.0,0.0,-1.2454,0.0,0.0,0.0,-1.2814,-1.2693,-1.2637,-1.2824,-1.284,-1.2946,-1.3197,-1.3482,-1.3677,-1.375,-1.3847,-1.3904,-1.3904,-1.3904,-1.3904,-1.3904,-1.3904,-1.3863,-1.3798,-1.3904,-1.3953,-1.3961,-1.4058,-1.414,-1.4196,-1.4107,-1.4058,-1.405,-1.3945,-1.3904,-1.3904,-1.3904,-1.3904,-1.3904,-0.6844,-0.6937,-0.704,-0.7209,-0.729,-0.7421,-0.7665,-0.7845,-0.8013,-0.8166,-0.8106,-0.8133,-0.8345,-0.8133,-0.7975,-0.7992,-0.7413,-0.6687,-0.5831,-0.6808,-0.7464,-0.7481,-0.7307,-0.7198,-0.7182,-0.7116,-0.704,-0.6948,-0.6796,-0.6736,-0.6763,-0.6708,-0.6763,-0.6893,-0.7133,-0.7432,-0.7755,-0.7681,-0.7696,-0.7814,-0.8171,-0.8304,-0.8438,-0.9325,-0.9747,-0.9822,-0.9822,-0.9822,-0.9815,-0.9774,-0.9618,-0.9476,-0.9646,-0.9503,-0.9273,-0.9225,-0.9171,-0.9055,-0.875,-0.8852,-0.8994,-0.8977,-0.9017,-0.9168,-0.9462,-0.9532,-0.9571,-0.9949,-0.9981,0.0,0.0,0.0,-1.0152,-1.0282,0.0,-1.1085,0.0,-1.1462,0.0,0.0,0.0,0.0,0.0,-1.2596,-1.2637,-1.2824,-1.2791,-1.2856,-1.3084,-1.3401,-1.3595,-1.3644,-1.3815,-1.3904,-1.3904,-1.3904,-1.3904,-1.3904,-1.3904,-1.3904,-1.3904,-1.4091,-1.4205,-1.4253,-1.4375,-1.4464,-1.4497,-1.4318,-1.4245,-1.4237,-1.4099,-1.405,-1.4034,-1.3937,-1.3904,-1.3904,-0.6605,-0.6823,-0.6986,-0.6997,-0.7182,-0.7421,-0.7665,-0.7709,-0.7796,-0.803,-0.8057,-0.81,-0.8225,-0.8231,-0.8225,-0.8225,-0.6545,-0.6206,-0.775,-0.7637,-0.7627,-0.785,-0.7519,-0.7437,-0.7671,-0.7448,-0.7323,-0.7317,-0.7089,-0.7029,-0.7133,-0.7214,-0.6939,-0.6654,-0.7343,-0.7494,-0.7187,-0.7535,-0.7812,-0.8121,-0.813,-0.8576,-0.9265,-0.9372,-0.9571,-0.9822,-0.9822,-0.9822,-0.9802,-0.9659,-0.9612,-0.9578,-0.9442,-0.949,-0.9564,-0.9415,-0.9476,-0.9523,-0.9211,-0.9356,-0.9475,-0.9345,-0.9429,-0.9657,-0.9614,-1.0038,-1.0363,-1.0193,-1.0566,-1.0875,-1.0696,-1.0664,-1.0672,-1.0672,-1.0842,0.0,0.0,0.0,0.0,0.0,0.0,0.0,0.0,-1.267,-1.2637,0.0,-1.267,-1.2726,-1.3076,-1.3279,-1.3465,-1.3636,-1.3815,-1.3904,-1.3904,-1.3904,-1.3904,-1.3904,-1.3904,-1.3904,-1.3904,-1.4091,-1.427,-1.4424,-1.4432,-1.4538,-1.4684,-1.4497,-1.4424,-1.4424,-1.4416,-1.4416,-1.4375,-1.4026,-1.3904,-1.3904,-0.6611,-0.6817,-0.6986,-0.6986,-0.7051,-0.7209,-0.7529,-0.778,-0.7964,-0.8051,-0.8127,-0.8225,-0.8485,-0.8361,-0.8361,-0.8497,-0.7842,-0.7775,-0.8259,-0.8215,-0.8084,-0.8111,-0.7839,-0.7693,-0.7703,-0.7383,-0.7214,-0.7214,-0.7062,-0.7046,-0.7149,-0.7105,-0.705,-0.6986,-0.7343,-0.7564,0.0,-0.7763,-0.7905,-0.8154,-0.8395,-0.8908,-0.9458,-0.9627,-0.9613,-0.9457,-0.97,-0.9579,-0.9207,-0.9405,-0.9207,-0.9016,-0.93,-0.9222,-0.9255,-0.9513,-0.9646,-0.9605,-0.9598,-0.971,-0.9724,-0.9712,-0.9734,-0.9747,-0.9807,-1.0128,-1.0379,-1.0201,-1.059,-1.0915,-1.0729,-1.0688,-1.0688,-1.0688,-1.0745,-1.0785,0.0,0.0,0.0,0.0,0.0,0.0,0.0,0.0,0.0,0.0,-1.267,0.0,-1.3076,-1.3271,-1.3457,-1.3636,-1.3815,-1.3904,-1.3904,-1.3904,-1.3904,-1.3904,-1.3904,-1.3969,-1.4091,-1.427,-1.4448,-1.4619,-1.4732,-1.4822,-1.4862,-1.4684,-1.4611,-1.4603,-1.4481,-1.4432,-1.4416,-1.4294,-1.4253,-1.4237,-0.6828,-0.684,-0.6931,-0.6991,-0.7056,-0.7203,-0.7475,-0.7752,-0.7964,-0.8051,-0.7268,-0.7117,-0.8416,-0.8465,-0.8486,-0.8624,-0.8624,-0.8552,-0.8386,-0.8375,-0.8242,-0.8236,-0.8046,-0.7943,-0.7954,-0.7682,-0.7497,-0.741,-0.7334,-0.7517,-0.7844,-0.7721,-0.7651,-0.7645,-0.7714,-0.7834,-0.7752,-0.7883,-0.8057,-0.8353,-0.8777,-0.9106,-0.9293,-0.9575,-0.9625,-0.9457,-0.9457,-0.9335,-0.9098,-0.9092,-0.8914,-0.8738,-0.9188,-0.9131,-0.9061,-0.9727,-0.9747,-0.9727,-0.9767,-0.9863,-0.9847,-0.991,-0.9957,-0.9979,-0.9965,-1.045,-1.0858,-1.0672,-1.1013,-1.133,-1.1273,-1.1167,-1.1078,-1.1078,-1.1021,-1.0956,0.0,-1.098,0.0,0.0,0.0,0.0,0.0,0.0,0.0,0.0,0.0,0.0,0.0,-1.3238,-1.3425,-1.3547,-1.3774,-1.3904,-1.3904,-1.3904,-1.3904,-1.3904,-1.3969,-1.4066,-1.4188,-1.4424,-1.4594,-1.4716,-1.4887,-1.4968,-1.496,-1.4846,-1.4797,-1.4789,-1.4667,-1.4619,-1.4603,-1.4481,-1.472,-1.5302,-0.698,-0.6862,-0.6725,-0.6832,-0.7097,-0.7394,-0.7508,-0.7525,-0.7686,-0.79,-0.5739,-0.5178,-0.8144,-0.8535,-0.8606,-0.859,-0.859,-0.8492,-0.8269,-0.8253,-0.8253,-0.8253,-0.8138,-0.8182,-0.841,-0.8285,-0.8106,-0.7877,-0.7983,-0.8342,-0.9039,-0.8895,-0.868,-0.8432,-0.8581,-0.822,-0.7578,-0.791,-0.8263,-0.8717,-0.9252,-0.9313,-0.9087,-0.9456,-0.9744,-0.9741,-0.9105,-0.9098,-0.9226,-0.8983,-0.8867,-0.8873,-0.9233,-0.9082,-0.9068,-0.9824,-0.9916,-0.9735,-0.9988,-0.9971,-0.9781,-0.9849,-1.0106,-1.0356,-1.0254,-1.1049,-1.1736,-1.1549,-1.1801,-1.2101,-1.2264,-1.202,-1.1784,-1.1768,-1.1606,-1.1427,-1.1256,0.0,-1.1297,0.0,0.0,0.0,0.0,0.0,0.0,0.0,0.0,0.0,0.0,-1.3173,-1.3368,-1.3384,-1.3717,-1.3904,-1.3904,-1.3904,-1.3904,-1.3904,-1.4091,-1.418,-1.4205,-1.4538,-1.4708,-1.4732,-1.4887,-1.496,-1.4968,-1.4968,-1.4968,-1.4968,-1.4968,-1.4968,-1.4935,-1.4744,-1.5632,-1.7262,-0.4267,-0.4383,-0.4384,-0.4413,-0.6077,-0.7385,-0.7541,-0.7834,-0.7485,-0.6277,-0.6823,-0.7606,-0.8426,-0.8541,-0.8606,-0.859,-0.859,-0.8562,-0.8503,-0.8497,-0.8497,-0.8497,-0.8388,-0.8356,-0.8416,-0.8122,-0.7981,-0.8008,-0.845,-0.8847,-0.9219,-0.9676,-0.9564,-0.8897,-0.8869,-0.8537,-0.8051,-0.8051,-0.8312,-0.885,-0.9395,-0.9569,-0.9496,-0.9522,-0.9651,-0.9916,-0.9119,-0.867,-0.8381,-0.8505,-0.8443,-0.8397,-0.877,-0.8793,-0.8967,-0.9704,-1.0019,-1.0065,-1.0397,-1.0439,-1.0404,-1.0468,-1.0609,-1.0733,-1.0755,-1.1399,-1.1914,-1.1744,-1.2093,-1.2361,-1.2142,-1.2028,-1.1874,-1.1614,-1.1411,-1.1321,-1.1419,0.0,0.0,-1.1671,0.0,0.0,0.0,0.0,0.0,0.0,0.0,0.0,0.0,0.0,-1.3295,-1.3563,-1.3782,-1.3904,-1.3904,-1.3904,-1.3904,-1.3904,-1.4091,-1.4245,-1.4367,-1.4464,-1.4643,-1.4895,-1.4814,-1.4846,-1.4968,-1.4968,-1.4968,-1.4968,-1.4968,-1.5049,-1.531,-1.6436,-1.7065,-1.7708,-0.5101,-0.5255,-0.5022,-0.3771,-0.4771,-0.6114,-0.7398,-0.7862,-0.7687,-0.68,-0.7724,-0.8491,-0.848,-0.8508,-0.8606,-0.859,-0.859,-0.8568,-0.8519,-0.8557,-0.859,-0.859,-0.8579,-0.8595,-0.8649,-0.8448,-0.8531,-0.8758,-0.9088,-0.9687,-1.0554,-1.0369,-1.0142,-0.9511,-0.8997,-0.8488,-0.7937,-0.8182,-0.8443,-0.8828,-0.9273,-0.9531,0.0,-0.9395,-0.951,-0.9618,-0.8928,-0.8614,-0.8542,-0.8481,-0.8386,-0.8312,-0.8699,-0.8733,-0.8779,-0.9707,-0.9933,-1.0028,-1.0585,-1.0609,-1.0473,-1.0649,-1.0876,-1.1193,-1.1157,-1.1689,-1.2231,-1.2142,-1.2296,-1.2434,-1.2393,-1.219,-1.189,-1.1451,-1.1484,-1.1524,-1.1395,0.0,0.0,0.0,-1.1776,0.0,0.0,0.0,0.0,0.0,0.0,0.0,0.0,0.0,-1.3311,-1.3514,-1.3766,-1.3904,-1.3904,-1.3904,-1.3945,-1.4026,-1.4205,-1.4383,-1.4554,-1.4554,-1.47,-1.496,-1.4781,-1.4806,-1.4968,-1.4968,-1.4968,-1.4976,-1.5057,-1.5147,-1.5565,-1.8221,-1.9078,-1.9224,-0.6629,-0.7298,-0.6885,-0.3649,-0.3152,-0.3937,-0.6137,-0.6995,-0.7496,-0.8001,-0.837,-0.8576,-0.8285,-0.8481,-0.8606,-0.859,-0.86,-0.8562,-0.8448,-0.8562,-0.8628,-0.8611,-0.8731,-0.8845,-0.8948,-0.8938,-0.9109,-0.978,-0.9871,-1.0642,-1.1837,-1.1083,-1.0461,-1.0001,-0.9171,0.0,0.0,-0.8334,-0.8628,-0.8677,-0.9302,-0.9463,-0.9359,-0.9359,-0.9307,-0.9092,-0.88,-0.8778,-0.9006,-0.8629,-0.8475,-0.8486,-0.875,-0.8817,-0.8884,-0.9695,-0.9965,-0.9986,-1.0545,-1.067,-1.0555,-1.0555,-1.1055,-1.1531,-1.1389,-1.1978,-1.2596,-1.2596,-1.2483,-1.2467,-1.2751,-1.2377,-1.1874,-1.1403,-1.1687,-1.1825,-1.1419,0.0,0.0,0.0,0.0,0.0,0.0,0.0,0.0,0.0,0.0,0.0,0.0,0.0,-1.3295,-1.3368,-1.3717,-1.3904,-1.3904,-1.3928,-1.4018,-1.418,-1.4375,-1.4538,-1.4676,-1.4676,-1.4765,-1.4919,-1.4749,-1.4781,-1.4968,-1.4968,-1.4984,-1.5017,-1.5179,-1.5425,-1.6119,-1.96,-2.0906,-2.1413,-0.1302,-0.4827,-0.6405,-0.1474,-0.0676,-0.0814,-0.1201,-0.3159,-0.5487,-0.7842,-0.8355,-0.8557,-0.853,-0.8579,-0.8606,-0.859,-0.8682,-0.8687,-0.8568,-0.8764,-0.8845,-0.8742,-0.8856,-0.8927,-0.8954,-0.8856,-0.9198,-0.9806,-1.0355,-1.0674,-1.0886,-1.1183,-1.0708,-0.9392,0.0,0.0,-0.828,-0.86,-0.8856,-0.9041,-0.9507,-0.9654,-0.9631,-0.9631,-0.9683,-0.9735,-0.9214,-0.891,-0.8872,-0.8715,-0.8774,-0.8856,-0.8856,-0.8872,-0.9021,-0.9823,-1.0122,-1.0153,-1.0953,-1.0982,-1.0867,-1.0867,-1.1304,-1.1732,-1.1702,-1.2242,-1.2791,-1.2791,-1.2767,-1.2718,-1.2629,-1.2296,-1.1996,-1.1906,-1.1719,-1.1719,-1.2069,0.0,0.0,0.0,0.0,-1.2036,0.0,0.0,0.0,0.0,0.0,0.0,0.0,0.0,-1.2913,0.0,-1.3717,-1.3904,-1.3904,-1.405,-1.4148,-1.418,-1.4505,-1.4594,-1.4481,-1.4481,-1.4578,-1.4741,-1.4562,-1.4667,-1.4968,-1.4968,-1.5057,-1.5195,-1.5228,-1.6354,-1.807,-2.0199,-2.1919,-2.3512,-0.0,-0.2054,-0.3019,-0.0409,-0.0,-0.0,-0.0,-0.1076,-0.2408,-0.3687,-0.6621,-0.8413,-0.8467,-0.8526,-0.872,-0.8638,-0.8834,-0.884,-0.878,-0.8883,-0.8954,-0.8959,-0.9014,-0.9073,-0.9133,-0.9079,-0.9555,-1.0733,-1.046,-1.0739,-1.1358,-1.0632,-0.9802,-0.9131,0.0,-0.8389,-0.8258,-0.8682,-0.8932,-0.9052,-0.9314,-0.9506,-0.9506,-0.9506,-0.954,-0.9585,-0.9242,-0.9144,-0.9041,-0.8981,-0.8997,-0.9046,-0.9046,-0.9046,-0.9176,-0.9666,-0.9968,-1.029,-1.077,-1.0973,-1.1056,-1.133,-1.1682,-1.2142,-1.2193,-1.257,-1.2946,-1.2856,-1.2173,-1.1454,-1.05,-1.0102,-0.9908,-0.9784,-0.9721,-0.968,-0.9593,0.0,-1.0294,0.0,0.0,0.0,0.0,0.0,0.0,0.0,0.0,0.0,0.0,0.0,-1.2865,0.0,0.0,-1.3945,-1.4042,-1.4131,-1.427,-1.4456,-1.4627,-1.4659,-1.4578,-1.4578,-1.4627,-1.47,-1.4611,-1.4724,-1.4976,-1.5065,-1.522,-1.539,-1.6423,-1.7517,-1.8663,-2.1486,-2.3058,-2.3976,-0.0,-0.0,-0.0,-0.0,-0.0,-0.0,-0.0,-0.0,-0.0,-0.0,-0.3858,-0.7102,-0.8148,-0.8214,-0.8433,-0.8815,-0.8981,-0.8981,-0.8954,-0.8997,-0.9057,-0.9133,-0.9155,-0.9209,-0.9302,-0.9302,-0.9936,-1.1206,-1.0478,-1.0472,-1.1422,-0.9806,-0.8936,-0.8778,-0.8284,-0.8127,-0.8274,-0.8725,-0.8959,-0.9041,-0.9231,-0.9302,-0.9302,-0.9302,-0.9302,-0.9302,-0.9302,-0.9302,-0.9291,-0.9198,-0.9171,-0.9171,-0.9171,-0.9171,-0.915,-0.9473,-0.9936,-1.0278,-1.0595,-1.0955,-1.1351,-1.1628,-1.2015,-1.2368,-1.2504,-1.2879,-1.2982,-1.257,-1.1311,-0.9896,-0.8546,-0.8258,-0.8138,-0.7953,-0.7867,-0.7846,-0.7456,0.0,-0.8655,0.0,0.0,0.0,-0.843,0.0,0.0,0.0,0.0,0.0,0.0,0.0,0.0,0.0,0.0,-1.3937,-1.4115,-1.4196,-1.4391,-1.4708,-1.4708,-1.4708,-1.4708,-1.4667,-1.4667,-1.4708,-1.4708,-1.483,-1.5033,-1.522,-1.5556,-1.6216,-1.7796,-1.8833,-1.9855,-2.2773,-2.4012,-2.4701,-0.0,-0.0,-0.0,-0.0,-0.0,-0.0,-0.0,-0.0,-0.0,-0.0,-0.0414,-0.2786,-0.797,-0.7118,-0.6979,-0.8965,-0.9057,-0.9068,-0.8959,-0.915,-0.9231,-0.9139,-0.9231,-0.9291,-0.9302,-0.9302,-0.974,-1.0567,-1.0168,-0.9877,-0.9552,-0.915,-0.8691,-0.7967,-0.811,-0.8356,-0.8867,-0.8812,-0.8976,-0.9275,-0.9296,-0.9302,-0.9302,-0.9302,-0.9302,-0.9302,-0.9302,-0.9302,-0.9302,-0.9291,-0.9291,-0.9291,-0.9291,-0.9291,-0.943,-0.9706,-1.0138,-1.0581,-1.0862,-1.1193,-1.1369,-1.1369,-1.1824,-1.2261,-1.2383,-1.2933,-1.2925,-1.1523,-1.0042,-0.88,-0.8432,-0.8465,-0.8454,-0.8225,-0.806,-0.7965,-0.7816,-0.7795,-0.7577,-0.716,0.0,0.0,0.0,-0.9032,0.0,0.0,0.0,0.0,0.0,0.0,0.0,-1.3076,-1.3465,-1.375,-1.3928,-1.4245,-1.4505,-1.4708,-1.4708,-1.4708,-1.47,-1.4538,-1.4546,-1.4708,-1.4708,-1.4903,-1.5228,-1.5415,-1.6544,-1.8145,-1.8324,-2.0366,-2.33,-2.3644,-2.4937,-2.6613,-0.0,-0.0,-0.0,-0.0,-0.0,-0.0,-0.0,-0.0,-0.0,-0.0,-0.0,-0.0843,-0.3117,-0.4952,-0.6815,-0.905,-0.9226,-0.9215,-0.9166,-0.9253,-0.9285,-0.9237,-0.928,-0.9302,-0.9302,-0.9302,-0.961,-1.0467,-0.9508,-0.9281,-0.9452,-0.8654,-0.8221,-0.8106,-0.8443,-0.8725,-0.8959,-0.9052,-0.9171,-0.9302,-0.9302,-0.9302,-0.9302,-0.9302,-0.9302,-0.9302,-0.9302,-0.9302,-0.9302,-0.9302,-0.9302,-0.9302,-0.9302,-0.9302,-0.9302,-0.9446,-1.0023,-1.0599,-1.0599,-1.1142,-1.1531,-1.1817,-1.2186,-1.2677,-1.2719,-1.3114,-1.3082,-1.1441,-0.9164,-0.7181,-0.6153,-0.6088,-0.6038,-0.5886,-0.5803,-0.5635,-0.5447,-0.5927,0.0,-0.4637,0.0,-0.6647,0.0,0.0,0.0,0.0,0.0,0.0,0.0,0.0,0.0,-1.1592,0.0,-1.3123,-1.4066,-1.4416,-1.4684,-1.4862,-1.4862,-1.4806,-1.4708,-1.4741,-1.4789,-1.4871,-1.4976,-1.5171,-1.5415,-1.5601,-1.6257,-1.7232,-1.9321,-2.0975,-2.2533,-2.4801,-2.6066,-2.6827,-0.0,-0.0,-0.0,-0.0,-0.0,-0.0,-0.0,-0.0,-0.0,-0.0,-0.0,-0.0,-0.0,-0.2583,-0.5617,-0.9055,-0.9329,-0.9307,-0.9302,-0.9302,-0.9302,-0.9302,-0.9302,-0.9302,-0.9302,-0.9302,-0.9506,-0.9748,-0.8807,-0.8408,-0.8631,-0.7975,-0.7922,-0.8459,-0.8802,-0.8992,-0.9068,-0.9231,-0.9302,-0.9302,-0.9302,-0.9302,-0.9302,-0.9302,-0.9302,-0.9302,-0.9302,-0.9302,-0.9302,-0.9302,-0.9302,-0.9302,-0.9302,-0.9302,-0.9302,-0.9302,-0.9879,-1.0455,-1.0455,-1.1038,-1.1619,-1.1907,-1.2474,-1.2866,-1.3036,-1.3005,-1.2389,-1.0259,-0.786,-0.5761,-0.4625,-0.4414,-0.4368,-0.4395,-0.4205,-0.4037,-0.3922,-0.4313,-0.4123,-0.2718,-0.4328,-0.491,-0.3506,-0.5247,0.0,0.0,0.0,0.0,0.0,0.0,0.0,0.0,0.0,-1.2379,-1.3513,-1.4255,-1.4797,-1.4968,-1.4911,-1.4854,-1.4789,-1.4968,-1.5017,-1.4984,-1.5268,-1.5439,-1.5536,-1.5756,-1.6253,-1.7018,-2.0089,-2.1588,-2.2486,-2.5596,-2.6934,-2.7068,-0.0,-0.0,-0.0,-0.0,-0.0,-0.0,-0.0,-0.0,-0.0,-0.0,-0.0,-0.0,-0.0,-0.0,-0.2619,-0.877,-0.934,-0.9323,-0.9307,-0.9302,-0.9302,-0.9302,-0.9302,-0.9302,-0.9302,-0.9302,-0.8868,-0.8136,-0.7931,-0.7355,-0.6429,-0.7057,-0.7927,-0.8943,-0.8948,-0.9079,-0.9302,-0.9302,-0.9302,-0.9302,-0.9302,-0.9302,-0.9302,-0.9302,-0.9302,-0.9302,-0.9302,-0.9302,-0.9302,-0.9302,-0.9302,-0.9302,-0.9302,-0.9302,-0.9302,-0.9302,-0.9879,-1.0455,-1.0455,-1.1038,-1.1619,-1.1619,-1.2187,-1.2753,-1.2753,-1.2166,-1.0681,-0.7567,-0.5709,-0.4553,-0.4493,-0.448,-0.4463,-0.4409,-0.4169,-0.3906,-0.3854,-0.3259,-0.2665,-0.259,-0.3222,-0.3275,-0.2097,-0.4312,0.0,0.0,0.0,0.0,0.0,0.0,0.0,-0.8802,-1.0649,-1.1735,-1.2033,-1.386,-1.4797,-1.496,-1.4789,-1.4797,-1.4968,-1.5155,-1.5139,-1.4992,-1.5536,-1.5666,-1.5545,-1.5894,-1.7009,-1.8789,-2.0575,-2.2335,-2.4365,-2.617,-2.7188,-2.7642,0.0144,0.0434,0.1016,0.1459,0.1164,0.0872,0.0875,0.0876,0.0876,0.0876,0.0876,0.0876,0.0876,0.0291,-0.0582,-0.2037,-0.5967,-0.772,-0.654,-0.7272,-0.7711,-0.7711,-0.7711,-0.8,-0.843,-0.843,-0.8285,-0.814,-0.7936,-0.7395,-0.6529,-0.7301,-0.7951,-0.8331,-0.8902,-0.9231,-0.9302,-0.9302,-0.9302,-0.9302,-0.9302,-0.9302,-0.9302,-0.9302,-0.9302,-0.9302,-0.9302,-0.9302,-0.9302,-0.9302,-0.9302,-0.9307,-0.9318,-0.9313,-0.9302,-0.9302,-0.9879,-1.0455,-1.0455,-1.1038,-1.1619,-1.1619,-1.2051,-1.2187,-1.1319,-0.9723,-0.8121,-0.7229,-0.5788,-0.463,-0.461,-0.4605,-0.46,-0.4583,-0.4307,-0.4013,-0.3963,-0.3237,-0.2779,-0.2706,-0.2663,-0.2514,-0.2128,-0.2899,0.0,0.0,0.0,0.0,0.0,0.0,0.0,-0.6981,-0.8136,-0.9794,-1.204,-1.2747,-1.3831,-1.4968,-1.4911,-1.4976,-1.5155,-1.5212,-1.5277,-1.5358,-1.565,-1.574,-1.5707,-1.5951,-1.6369,-1.7191,-2.0252,-2.1992,-2.2933,-2.6272,-2.7415,-2.7388,0.1008,0.1016,0.146,0.2191,0.1898,0.1606,0.1606,0.1606,0.1606,0.1606,0.1606,0.1606,0.1606,0.1166,0.0728,0.0291,-0.3201,-0.5238,-0.4649,-0.5235,-0.5673,-0.5673,-0.6112,-0.6547,-0.6978,-0.7417,-0.7566,-0.7272,-0.6872,-0.6536,-0.6252,-0.6819,-0.7447,-0.814,-0.8579,-0.9013,-0.9302,-0.9302,-0.9302,-0.9302,-0.9302,-0.9302,-0.9302,-0.9302,-0.9302,-0.9302,-0.9302,-0.9307,-0.9313,-0.9313,-0.9318,-0.9323,-0.934,-0.8449,-0.7851,-0.9168,-0.9596,-0.9585,-0.9729,-0.9908,-0.9942,-0.9942,-1.0123,-1.0158,-0.9134,-0.781,-0.6639,-0.6201,-0.5468,-0.4733,-0.4733,-0.4733,-0.4733,-0.4733,-0.4288,-0.3833,-0.4097,-0.3203,-0.2731,-0.2801,-0.2501,-0.2217,-0.2217,-0.221,-0.2214,0.0,0.0,0.0,0.0,0.0,-0.5373,-0.5583,-0.6811,-0.8283,-1.0235,-1.1773,-1.3105,-1.4037,-1.4724,-1.513,-1.5244,-1.5374,-1.5463,-1.5528,-1.5772,-1.5837,-1.5788,-1.5967,-1.6081,-1.6477,-1.9386,-2.0693,-2.1368,-2.4425,-2.5981,-2.6388,0.233,0.1751,0.1458,0.2187,0.2333,0.2333,0.2333,0.2335,0.2335,0.2335,0.2335,0.2335,0.2335,0.2335,0.1312,-0.1019,-0.131,-0.1891,-0.3195,-0.3341,-0.3341,-0.3341,-0.4361,-0.4944,-0.4942,-0.6112,-0.6261,-0.5535,-0.4808,-0.4808,-0.5535,-0.5535,-0.6402,-0.7996,-0.7996,-0.843,-0.9157,-0.9307,-0.9307,-0.9307,-0.9307,-0.9307,-0.9307,-0.9307,-0.9307,-0.9307,-0.9307,-0.9318,-0.9334,-0.9039,-0.905,-0.9066,-0.9216,-0.7148,-0.5383,-0.8884,-0.9029,-0.815,-0.844,-0.7778,-0.6965,-0.6965,-0.7174,-0.7235,-0.6642,-0.6341,-0.6043,-0.4996,-0.4845,-0.4845,-0.4845,-0.4845,-0.4848,-0.485,-0.4093,-0.3788,-0.4093,-0.3152,-0.251,-0.288,-0.2556,-0.2255,-0.2255,-0.2277,-0.2312,-0.2365,0.0,0.0,0.0,-0.3341,-0.396,-0.477,-0.6466,-0.7273,-0.7513,-1.0773,-1.2488,-1.2656,-1.4384,-1.526,-1.5285,-1.5634,-1.5707,-1.5585,-1.5918,-1.5975,-1.5845,-1.6016,-1.6178,-1.6492,-1.832,-1.9231,-1.9723,-2.1369,-2.3089,-2.4723,0.2477,0.2171,0.2157,0.2301,0.2301,0.2301,0.2301,0.232,0.2334,0.2334,0.2334,0.2334,0.2334,0.2334,0.2041,0.1457,0.0291,-0.0291,-0.0437,-0.1165,-0.1748,-0.1748,-0.2039,-0.2475,-0.291,-0.3201,-0.3348,-0.3057,-0.2331,-0.2622,-0.3639,-0.3203,-0.4221,-0.6406,-0.6688,-0.7412,-0.843,-0.9029,-0.9323,-0.9323,-0.934,-0.9345,-0.9345,-0.9345,-0.9345,-0.9345,-0.9345,-0.9351,-0.891,-0.6555,-0.5825,-0.6268,-0.8629,-0.7152,-0.5093,-0.7135,-0.7769,-0.7677,-0.708,-0.6993,-0.7057,-0.7057,-0.6473,-0.5738,-0.5588,-0.5138,-0.4691,-0.4389,-0.4542,-0.4845,-0.4845,-0.4845,-0.4861,-0.4907,-0.4453,-0.4146,-0.43,-0.3525,-0.2889,-0.2995,-0.2661,-0.2346,-0.2346,-0.2331,-0.2309,-0.2279,-0.2449,-0.2765,-0.337,-0.3531,-0.3869,-0.4406,-0.5106,-0.6251,-0.7513,-0.9532,-1.1914,-1.4548,-1.52,-1.552,-1.565,-1.5878,-1.6032,-1.6121,-1.6202,-1.63,-1.6389,-1.6438,-1.6479,-1.6697,-1.8685,-1.9486,-1.9733,-2.1546,-2.2463,-2.2644,0.3641,0.3333,0.3169,0.2436,0.229,0.229,0.229,0.2304,0.2318,0.2331,0.2333,0.2333,0.2333,0.2333,0.2333,0.2333,0.1604,0.1166,0.1311,0.0729,0.0437,0.0437,-0.0146,-0.0583,-0.1019,-0.1456,-0.1748,-0.1748,-0.1457,-0.1457,-0.2186,-0.1893,-0.2621,-0.4221,-0.4364,-0.5087,-0.6101,-0.7127,-0.757,-0.757,-0.7289,-0.7148,-0.7148,-0.7148,-0.7148,-0.7148,-0.7148,-0.8033,-0.9071,-0.7302,-0.4956,-0.3354,-0.781,-0.7227,-0.4714,-0.444,-0.5339,-0.6241,-0.5823,-0.5283,-0.5035,-0.5063,-0.4458,-0.3999,-0.4304,-0.4153,-0.4004,-0.4312,-0.4619,-0.4927,-0.4927,-0.4927,-0.4937,-0.497,-0.451,-0.4042,-0.4199,-0.3422,-0.2794,-0.2776,-0.2591,-0.242,-0.242,-0.2393,-0.2367,-0.2349,-0.2658,-0.3122,-0.359,-0.4089,-0.4281,-0.4617,-0.4831,-0.5489,-0.6424,-0.8802,-1.1522,-1.414,-1.5265,-1.5804,-1.591,-1.617,-1.6341,-1.643,-1.643,-1.6487,-1.6584,-1.6584,-1.6625,-1.6886,-1.7828,-1.8441,-1.8494,-1.9505,-2.0199,-2.0554,0.538,0.5084,0.463,0.3295,0.2998,0.2995,0.2995,0.2995,0.2863,0.2604,0.2612,0.2471,0.2327,0.233,0.2333,0.2333,0.2333,0.2333,0.2333,0.2333,0.2333,0.2333,0.1311,0.0874,0.0874,-0.0146,-0.0729,-0.0729,-0.0729,-0.0729,-0.0874,-0.0729,-0.1166,-0.2184,-0.2037,-0.2472,-0.3341,-0.4361,-0.4799,-0.4799,-0.4073,-0.3785,-0.3785,-0.393,-0.393,-0.393,-0.393,-0.5693,-0.792,-0.792,-0.4397,-0.0883,-0.6262,-0.6134,-0.3592,-0.1812,-0.2705,-0.4332,-0.4384,-0.3517,-0.2476,-0.2502,-0.2507,-0.2664,-0.2975,-0.3292,-0.3768,-0.4084,-0.4552,-0.4865,-0.4865,-0.5022,-0.5014,-0.4841,-0.4378,-0.391,-0.3739,-0.3122,-0.2656,-0.2656,-0.2477,-0.2462,-0.2462,-0.2439,-0.2435,-0.2461,-0.3229,-0.3692,-0.37,-0.4515,-0.5011,-0.5022,-0.5022,-0.5181,-0.5347,-0.8396,-1.0685,-1.2503,-1.4371,-1.5262,-1.5301,-1.5955,-1.6275,-1.6275,-1.6446,-1.6641,-1.6657,-1.6657,-1.6755,-1.6893,-1.6893,-1.6982,-1.7071,-1.6714,-1.7587,-1.8707,0.697,0.6626,0.6432,0.6279,0.6074,0.603,0.603,0.5887,0.5471,0.4221,0.4122,0.3582,0.2441,0.2319,0.2333,0.2333,0.2333,0.2333,0.2333,0.2333,0.2333,0.2333,0.2187,0.2041,0.2041,0.1895,0.175,0.175,0.175,0.1311,0.0291,0.1311,0.0583,-0.1311,-0.1019,-0.1455,-0.2474,-0.2183,-0.2328,-0.2619,-0.0583,0.0292,0.0146,-0.0437,-0.0729,-0.0729,-0.0729,-0.1028,-0.1483,-0.1483,-0.0747,-0.0151,-0.1209,-0.1058,-0.0756,-0.1059,-0.1966,-0.2725,-0.2759,-0.2619,-0.247,-0.2474,-0.2476,-0.2476,-0.263,-0.2962,-0.3295,-0.3297,-0.3925,-0.4554,-0.4554,-0.4709,-0.4834,-0.4431,-0.43,-0.4146,-0.3761,-0.333,-0.3048,-0.3048,-0.2585,-0.2431,-0.2431,-0.2427,-0.2425,-0.2431,-0.2886,-0.3357,-0.3698,-0.4172,-0.466,-0.5019,-0.5022,-0.5673,-0.7156,-0.7802,-0.905,-1.0804,-1.1294,-1.1594,-1.1703,-1.3588,-1.4368,-1.4541,-1.6113,-1.6893,-1.7031,-1.7031,-1.7047,-1.7071,-1.7071,-1.7088,-1.7071,-1.6714,-1.6746,-1.7036,0.8848,0.8524,0.8183,0.7136,0.6807,0.6762,0.6713,0.6705,0.6287,0.559,0.4808,0.4139,0.3571,0.2747,0.2333,0.2333,0.2333,0.2333,0.2333,0.2333,0.2333,0.2333,0.2333,0.2333,0.2333,0.2333,0.2333,0.2333,0.2333,0.2041,0.1458,0.2041,0.175,0.0729,0.0874,0.0728,0.0146,0.0437,0.0437,0.0291,0.1313,0.1752,0.1752,0.1314,0.073,-0.0,-0.0,-0.0,-0.0,-0.0,-0.0,-0.015,-0.0907,-0.1207,-0.1203,-0.1209,-0.1817,-0.2427,-0.244,-0.2444,-0.2444,-0.2444,-0.2444,-0.2448,-0.2465,-0.279,-0.3116,-0.3135,-0.3611,-0.4084,-0.4084,-0.4238,-0.4222,-0.4022,-0.3859,-0.3542,-0.3372,-0.3062,-0.276,-0.2779,-0.2765,-0.2754,-0.2754,-0.2737,-0.2886,-0.3057,-0.3364,-0.369,-0.4046,-0.4515,-0.4836,-0.5019,-0.5052,-0.5416,-0.6281,-0.7332,-0.8284,-0.9305,-1.0486,-1.0945,-1.1172,-1.2167,-1.3111,-1.417,-1.5053,-1.6148,-1.7112,-1.7112,-1.7112,-1.7112,-1.7112,-1.7055,-1.6942,-1.6674,-1.6519,-1.6397,1.0868,1.0587,1.012,0.8596,0.8135,0.8082,0.7831,0.7798,0.7498,0.7057,0.6038,0.5109,0.4545,0.3461,0.277,0.2333,0.2333,0.2333,0.2333,0.2333,0.2333,0.2333,0.2333,0.2333,0.2333,0.2333,0.2333,0.2333,0.2333,0.2333,0.2333,0.2333,0.2333,0.2333,0.2333,0.2333,0.2333,0.2333,0.2333,0.2333,0.2335,0.2335,0.2335,0.2335,0.1462,0.0294,-0.0,-0.0,-0.0,-0.0,-0.0,-0.03,-0.1814,-0.2258,-0.2244,-0.1655,-0.1956,-0.2405,-0.242,-0.2418,-0.2413,-0.2413,-0.2413,-0.2418,-0.2443,-0.276,-0.2927,-0.2953,-0.327,-0.3582,-0.3582,-0.3745,-0.3745,-0.357,-0.3249,-0.3089,-0.2944,-0.2622,-0.2467,-0.2491,-0.2788,-0.2933,-0.2933,-0.3067,-0.322,-0.3558,-0.3717,-0.4042,-0.4395,-0.4709,-0.5033,-0.5063,-0.5109,-0.5161,-0.5224,-0.6669,-0.7465,-0.7567,-0.9083,-0.9869,-0.9892,-1.0505,-1.1605,-1.3022,-1.3912,-1.5154,-1.6401,-1.6936,-1.7112,-1.7104,-1.7063,-1.6966,-1.6828,-1.66,-1.6422,-1.6276,1.258,1.261,1.2602,1.2445,1.1903,1.1615,1.1317,1.0906,1.009,0.8617,0.8528,0.7413,0.4762,0.4443,0.393,0.2478,0.2333,0.2333,0.2333,0.2333,0.2333,0.2333,0.2333,0.2333,0.2333,0.2333,0.2333,0.2333,0.2333,0.2333,0.2333,0.2333,0.2333,0.2333,0.2333,0.2333,0.2333,0.2333,0.2333,0.2333,0.2333,0.2333,0.2333,0.2335,0.1764,0.1039,0.0297,-0.0,-0.0,-0.0,-0.0,-0.0307,-0.1823,-0.2271,-0.2263,-0.2239,-0.2214,-0.2352,-0.2408,-0.2403,-0.2382,-0.2382,-0.2382,-0.2382,-0.2384,-0.2406,-0.2428,-0.2429,-0.2886,-0.319,-0.319,-0.3525,-0.3525,-0.3147,-0.3043,-0.291,-0.2545,-0.241,-0.2428,-0.2429,-0.2454,-0.2469,-0.2469,-0.2957,-0.3132,-0.3135,-0.392,-0.4393,-0.4397,-0.4709,-0.5074,-0.5185,-0.5194,-0.5226,-0.5286,-0.5575,-0.5696,-0.5814,-0.5998,-0.6033,-0.6091,-0.8052,-0.8943,-0.9295,-1.2845,-1.4441,-1.4618,-1.6401,-1.7112,-1.7096,-1.6933,-1.686,-1.6812,-1.6454,-1.6316,-1.6276,1.302,1.3113,1.3039,1.2896,1.2558,1.247,1.2168,1.1956,1.1544,1.0483,0.9656,0.8628,0.7177,0.636,0.5747,0.5173,0.4346,0.3787,0.3787,0.2914,0.2333,0.2333,0.2333,0.2333,0.2333,0.2333,0.2333,0.2333,0.2333,0.2333,0.2333,0.2333,0.2333,0.2333,0.2333,0.2333,0.2333,0.2333,0.2333,0.2333,0.2333,0.2333,0.2333,0.2335,0.1912,0.1042,0.03,-0.0,-0.0,-0.0,-0.0612,-0.1522,-0.2105,-0.1937,-0.1775,-0.2206,-0.2342,-0.2338,-0.2361,-0.2358,-0.235,-0.235,-0.235,-0.2356,-0.2373,-0.2387,-0.2401,-0.242,-0.2575,-0.2727,-0.2727,-0.2754,-0.2922,-0.2744,-0.276,-0.2622,-0.2463,-0.2457,-0.2459,-0.2477,-0.2645,-0.2806,-0.2806,-0.3288,-0.3611,-0.3925,-0.4241,-0.4554,-0.4709,-0.49,-0.5134,-0.5256,-0.5333,-0.5401,-0.5458,-0.5542,-0.5624,-0.5706,-0.5706,-0.5719,-0.5741,-0.6451,-0.752,-0.8765,-1.1427,-1.3198,-1.4441,-1.6401,-1.7112,-1.7096,-1.6917,-1.6787,-1.6657,-1.6397,-1.6235,-1.6146,1.3356,1.3358,1.3468,1.3182,1.3039,1.2843,1.2685,1.2522,1.2278,1.1869,1.096,0.9871,0.8955,0.8119,0.7376,0.6839,0.5894,0.5358,0.538,0.4364,0.3348,0.2333,0.2333,0.2333,0.2333,0.2333,0.2333,0.2333,0.2333,0.2333,0.2333,0.2333,0.2333,0.2333,0.2333,0.2333,0.2333,0.2333,0.2333,0.2333,0.2333,0.2333,0.2334,0.2345,0.1775,0.1048,0.0303,-0.0,-0.0,-0.0,-0.0763,-0.1661,-0.2082,-0.1912,-0.1606,-0.2187,-0.2333,-0.2333,-0.2333,-0.2333,-0.2333,-0.2333,-0.2333,-0.2338,-0.236,-0.2364,-0.2369,-0.2391,-0.2395,-0.2398,-0.2408,-0.2433,-0.2458,-0.2467,-0.2477,-0.2491,-0.2511,-0.2496,-0.2491,-0.2512,-0.2671,-0.2983,-0.2983,-0.3454,-0.3925,-0.4241,-0.4412,-0.4744,-0.5076,-0.5136,-0.5226,-0.5346,-0.545,-0.554,-0.5616,-0.5657,-0.57,-0.5741,-0.5741,-0.5741,-0.5741,-0.5741,-0.6454,-0.7877,-1.0362,-1.2137,-1.3558,-1.6042,-1.7112,-1.7088,-1.686,-1.669,-1.6552,-1.6308,-1.6178,-1.6146,1.3604,1.3782,1.3896,1.3904,1.3611,1.327,1.3107,1.2803,1.2462,1.2291,1.2268,1.1572,0.9625,0.9486,0.8697,0.6831,0.6839,0.6876,0.6962,0.697,0.5667,0.2478,0.2333,0.2333,0.2333,0.2333,0.2333,0.2333,0.2333,0.2333,0.2333,0.2333,0.2333,0.2333,0.2333,0.2333,0.2333,0.2333,0.2333,0.2333,0.2333,0.2333,0.2337,0.2367,0.1798,0.1062,0.0307,-0.0,-0.0,-0.0,-0.0,-0.0302,-0.1766,-0.2337,-0.2335,-0.2334,-0.2333,-0.2333,-0.2333,-0.2333,-0.2333,-0.2333,-0.2333,-0.2333,-0.2333,-0.2333,-0.2333,-0.2333,-0.2333,-0.2342,-0.2373,-0.2403,-0.2433,-0.2463,-0.2495,-0.2514,-0.2514,-0.2514,-0.2514,-0.2514,-0.2514,-0.2514,-0.2514,-0.3299,-0.3768,-0.3768,-0.4604,-0.5139,-0.5199,-0.5262,-0.5349,-0.5472,-0.5531,-0.5619,-0.5739,-0.5741,-0.5741,-0.5741,-0.5741,-0.5741,-0.5741,-0.5741,-0.5741,-0.5918,-0.9651,-1.1427,-1.1605,-1.5506,-1.7112,-1.7071,-1.6714,-1.6584,-1.6535,-1.6178,-1.6154,-1.63,1.3692,1.3595,1.3758,1.388,1.3761,1.3737,1.3689,1.3539,1.3334,1.2882,1.2866,1.2489,1.1288,1.1365,1.1131,1.0522,0.9492,0.8469,0.73,0.7365,0.6821,0.5667,0.5667,0.5667,0.5667,0.5667,0.509,0.3932,0.3932,0.335,0.2333,0.2333,0.2333,0.2333,0.2333,0.2333,0.2333,0.2333,0.2345,0.2364,0.2364,0.2378,0.2397,0.2256,0.2125,0.1843,0.0462,0.2953,0.6896,0.6579,0.5147,0.3009,0.1027,-0.0874,-0.2042,-0.1021,-0.1457,-0.2041,-0.102,-0.1457,-0.2333,-0.2333,-0.2333,-0.2333,-0.2333,-0.2333,-0.2338,-0.236,-0.2364,-0.2373,-0.2405,-0.2435,-0.2458,-0.2467,-0.2495,-0.2514,-0.2514,-0.2514,-0.2514,-0.2514,-0.2514,-0.2514,-0.2514,-0.3299,-0.3768,-0.3768,-0.4604,-0.5139,-0.5199,-0.53,-0.5412,-0.5531,-0.5591,-0.5662,-0.5741,-0.5741,-0.5741,-0.5741,-0.5741,-0.5741,-0.5741,-0.5741,-0.5741,-0.592,-0.8409,-0.9473,-0.9651,-1.3552,-1.5089,-1.4974,-1.6152,-1.6503,-1.6357,-1.6129,-1.6154,-1.6324,1.4305,1.4285,1.4229,1.3924,1.3855,1.3904,1.3904,1.3904,1.3721,1.3475,1.3404,1.3137,1.2513,1.2521,1.2368,1.2134,1.1379,1.0354,0.931,0.9428,0.9352,0.8929,0.8971,0.8415,0.697,0.697,0.6536,0.567,0.567,0.509,0.4218,0.4218,0.4218,0.4218,0.4218,0.4218,0.4218,0.4218,0.425,0.4302,0.4154,0.4038,0.4086,0.3345,0.3062,0.293,0.2169,0.4507,0.8092,0.9173,0.8136,0.6092,0.351,0.1746,0.0582,0.0874,0.0291,-0.0291,0.0728,0.0291,-0.0437,-0.0437,-0.1457,-0.2333,-0.2333,-0.2342,-0.2356,-0.2375,-0.2387,-0.2405,-0.2436,-0.2457,-0.2473,-0.2485,-0.2503,-0.2514,-0.2514,-0.2514,-0.2514,-0.2514,-0.1885,-0.1885,-0.2669,-0.2825,-0.3308,-0.4296,-0.4808,-0.5185,-0.527,-0.5368,-0.5463,-0.5556,-0.5619,-0.5679,-0.5741,-0.5741,-0.5741,-0.5741,-0.5741,-0.5741,-0.5741,-0.5741,-0.5741,-0.5741,-0.7699,-0.8943,-1.0007,-1.3022,-1.4534,-1.5263,-1.6128,-1.647,-1.6284,-1.6113,-1.6202,-1.643,1.5604,1.5672,1.5413,1.4195,1.4206,1.4324,1.4324,1.4181,1.4039,1.4039,1.3766,1.352,1.3224,1.2936,1.2689,1.2383,1.2383,1.2239,1.2239,1.2403,1.2359,1.1952,1.2094,1.0725,0.7548,0.7404,0.7404,0.7259,0.7259,0.7115,0.697,0.697,0.697,0.697,0.697,0.697,0.697,0.6978,0.7035,0.7121,0.6833,0.6742,0.6675,0.5061,0.4468,0.4629,0.5306,0.5289,0.5692,0.8673,0.9552,0.8765,0.568,0.4802,0.4366,0.291,0.2475,0.233,0.2474,0.2477,0.2334,0.2334,0.0146,-0.1901,-0.1899,-0.1917,-0.1935,-0.1937,-0.1956,-0.198,-0.2004,-0.2163,-0.2171,-0.2038,-0.22,-0.22,-0.2042,-0.2042,-0.2042,-0.2042,-0.0785,-0.0628,-0.2511,-0.1881,-0.2373,-0.4862,-0.5199,-0.5254,-0.5371,-0.5444,-0.5507,-0.5559,-0.5624,-0.5684,-0.5741,-0.5741,-0.5741,-0.5741,-0.5741,-0.5741,-0.5741,-0.5741,-0.5741,-0.5741,-0.752,-0.9473,-1.125,-1.3198,-1.5053,-1.6466,-1.6641,-1.6454,-1.6259,-1.6121,-1.6284,-1.6584,1.7029,1.7036,1.7151,1.7042,1.7256,1.7398,1.7398,1.6423,1.5593,1.5593,1.4574,1.3798,1.352,1.3464,1.3327,1.2911,1.2879,1.2751,1.2489,1.2643,1.2658,1.2374,1.2411,1.2059,1.1031,1.0743,1.0017,0.8853,0.8853,0.8131,0.697,0.697,0.697,0.697,0.697,0.697,0.6974,0.7047,0.7129,0.7219,0.6838,0.6922,0.7313,0.6866,0.7509,0.8769,0.8797,0.8939,0.8876,0.9445,0.9525,0.8894,0.6402,0.5093,0.4657,0.4221,0.3348,0.2621,0.3785,0.3372,0.2513,0.2513,0.1935,0.1495,0.1481,0.1492,0.1509,0.1524,0.153,0.1539,0.1402,0.0312,-0.0156,0.1254,0.0314,-0.0157,0.1254,0.141,0.141,0.141,0.1254,0.0784,0.0314,-0.1255,-0.2684,-0.3525,-0.4529,-0.5234,-0.5311,-0.5458,-0.5548,-0.5559,-0.5665,-0.5728,-0.5741,-0.5741,-0.5741,-0.5741,-0.5741,-0.5741,-0.5741,-0.5741,-0.5741,-0.5741,-0.6097,-0.7342,-0.9295,-1.125,-1.2879,-1.4557,-1.6073,-1.6381,-1.6113,-1.6211,-1.6389,-1.6641,1.8312,1.8279,1.8262,1.783,1.8056,1.825,1.8369,1.7689,1.6987,1.615,1.5452,1.4566,1.3774,1.3766,1.3652,1.3376,1.3279,1.3054,1.2839,1.2998,1.2964,1.2559,1.2711,1.27,1.2364,1.2294,1.1606,1.0449,1.0449,1.0017,0.9147,0.9147,0.9147,0.9147,0.9147,0.9173,0.9227,0.9291,0.9387,0.9505,0.8965,0.8873,0.9091,0.8683,0.9176,0.997,1.003,0.997,0.9829,0.9579,0.9416,0.9023,0.7421,0.6692,0.6264,0.6012,0.529,0.4853,0.5625,0.5363,0.479,0.479,0.4834,0.4404,0.2852,0.2568,0.2596,0.2613,0.2627,0.2488,0.2504,0.1724,0.141,0.235,0.1724,0.1568,0.235,0.2507,0.2507,0.2507,0.2508,0.2196,0.1569,-0.0471,-0.2208,-0.3193,-0.3876,-0.4574,-0.5289,-0.5463,-0.5559,-0.5559,-0.5679,-0.5741,-0.5741,-0.5741,-0.5741,-0.5741,-0.5741,-0.5741,-0.5741,-0.5741,-0.5741,-0.5741,-0.5741,-0.7342,-1.0007,-1.1072,-1.2904,-1.5317,-1.6363,-1.6487,-1.6186,-1.6373,-1.66,-1.6885,1.9559,1.9524,1.9388,1.8528,1.853,1.8776,1.8988,1.8916,1.8229,1.6937,1.6516,1.5943,1.4647,1.4339,1.3982,1.3563,1.3409,1.3246,1.3059,1.3222,1.3118,1.2569,1.298,1.2882,1.2655,1.279,1.2445,1.1763,1.1763,1.1763,1.1763,1.1619,1.1633,1.1653,1.1653,1.1735,1.187,1.187,1.1945,1.206,1.1164,1.0865,1.0877,1.0078,0.9807,0.9824,0.9943,0.9862,0.9666,0.9438,0.9205,0.9039,0.83,0.8019,0.7906,0.7252,0.7137,0.7166,0.7243,0.7272,0.7284,0.7284,0.735,0.6773,0.4114,0.3372,0.3396,0.3396,0.3422,0.329,0.329,0.3133,0.2977,0.329,0.3133,0.2977,0.329,0.329,0.329,0.329,0.3762,0.3607,0.2353,0.0314,-0.1576,-0.2713,-0.3061,-0.3909,-0.5275,-0.5447,-0.5545,-0.5545,-0.5673,-0.5741,-0.5741,-0.5741,-0.5741,-0.5741,-0.573,-0.573,-0.5741,-0.5741,-0.5741,-0.5741,-0.5741,-0.7877,-1.1427,-1.1427,-1.3475,-1.6852,-1.6852,-1.6649,-1.6373,-1.656,-1.6852,-1.7185,2.0856,2.1093,2.1305,2.1072,2.1515,2.1745,2.1784,2.1034,2.013,1.9632,1.849,1.7454,1.712,1.5846,1.4522,1.33,1.3149,1.3059,1.2881,1.3035,1.3116,1.2966,1.3006,1.3046,1.3076,1.3107,1.2902,1.261,1.2338,1.2051,1.2051,1.1763,1.1687,1.1803,1.1803,1.1891,1.2033,1.2033,1.204,1.206,1.1164,1.0865,1.0871,0.9988,0.9693,0.9709,0.9818,0.984,0.9796,0.9205,0.9102,0.8856,0.7883,0.7769,0.7699,0.7269,0.7182,0.7248,0.726,0.7317,0.7374,0.7374,0.7439,0.7349,0.6866,0.687,0.6878,0.6878,0.6889,0.6896,0.6896,0.5639,0.517,0.6584,0.5642,0.517,0.6584,0.6896,0.6896,0.6896,0.5645,0.4549,0.3611,0.1569,-0.0158,-0.1436,-0.256,-0.3864,-0.5213,-0.5387,-0.5488,-0.5488,-0.5651,-0.5741,-0.5741,-0.5741,-0.5741,-0.5741,-0.5687,-0.5689,-0.5741,-0.5741,-0.5741,-0.5741,-0.5741,-0.7877,-1.1427,-1.1427,-1.3475,-1.6852,-1.6852,-1.673,-1.6568,-1.6747,-1.7047,-1.7372,2.1109,2.1216,2.1363,2.1523,2.1897,2.2231,2.2392,2.2115,2.1508,2.0415,1.9551,1.8766,1.7566,1.6241,1.5115,1.4449,1.3645,1.3214,1.3141,1.3108,1.3092,1.3092,1.3092,1.303,1.3062,1.3261,1.3396,1.3193,1.2716,1.2517,1.2612,1.217,1.2108,1.2254,1.2107,1.1999,1.206,1.206,1.2013,1.1932,1.1045,1.0706,1.0645,0.9837,0.9568,0.9584,0.9704,0.9786,0.9666,0.9252,0.9035,0.8835,0.8039,0.7761,0.7655,0.7406,0.7301,0.7346,0.7395,0.7435,0.7464,0.7464,0.7497,0.7525,0.7525,0.7525,0.7525,0.7525,0.7525,0.7525,0.7525,0.6896,0.6584,0.7369,0.6896,0.6584,0.7369,0.7525,0.7369,0.69,0.5802,0.4709,0.3925,0.2512,0.1101,-0.0158,-0.0796,-0.1921,-0.4025,-0.4325,-0.4743,-0.5425,-0.5597,-0.5673,-0.564,-0.5673,-0.5673,-0.5638,-0.5613,-0.5632,-0.5689,-0.5689,-0.5689,-0.5692,-0.5725,-0.7877,-1.1427,-1.1427,-1.352,-1.699,-1.6893,-1.686,-1.6885,-1.6966,-1.7291,-1.7681]},{"header":{"parameterUnit":"m.s-1","parameterCategory":1,"la1":30.6,"la2":28.766,"lo1":-90.7593,"lo2":-88.6598,"dx":0.0162,"dy":0.0183,"nx":116,"ny":114,"refTime":"2022-12-30T06:00:00:Z","depth":0,"parameterNumber":3,"parameterNumberName":"V-component_of_WINDS"},"data":[0.0,0.0,0.0,0.0,0.0,0.0,0.0,0.0,0.0,0.0,0.0,0.0,0.0,0.0,0.0,0.0,0.0,0.0,0.0,0.0,0.0,0.0,0.0,0.0,0.0,0.0,0.0,0.0,0.0,0.0,0.0,0.0,0.0,0.0,0.0,0.0,0.0,0.0,0.0,0.0,0.0,0.0,0.0,0.0,0.0,0.0,0.0,0.0,0.0,0.0,0.0,0.0,0.0,0.0,0.0,0.0,0.0,0.0,0.0,0.0,0.0,0.0,0.0,0.0,0.0,0.0,0.0,0.0,0.0,0.0,0.0,0.0,0.0,0.0,0.0,0.0,0.0,0.0,0.0,0.0,0.0,0.0,0.0,0.0,0.0,0.0,0.0,0.0,0.0,0.0,0.0,0.0,0.0,0.0,0.0,0.0,0.0,0.0,0.0,0.0,0.0,0.0,0.0,0.0,0.0,0.0,0.0,0.0,0.0,0.0,0.0,0.0,0.0,0.0,0.0,0.0,0.0,0.0,0.0,0.0,0.0,0.0,0.0,0.0,0.0,0.0,0.0,0.0,0.0,0.0,0.0,0.0,0.0,0.0,0.0,0.0,0.0,0.0,0.0,0.0,0.0,0.0,0.0,0.0,0.0,0.0,0.0,0.0,0.0,0.0,0.0,0.0,0.0,0.0,0.0,0.0,0.0,0.0,0.0,0.0,0.0,0.0,0.0,0.0,0.0,0.0,0.0,0.0,0.0,0.0,0.0,0.0,0.0,0.0,0.0,0.0,0.0,0.0,0.0,0.0,0.0,0.0,0.0,0.0,0.0,0.0,0.0,0.0,0.0,0.0,0.0,0.0,0.0,0.0,0.0,0.0,0.0,0.0,0.0,0.0,0.0,0.0,0.0,0.0,0.0,0.0,0.0,0.0,0.0,0.0,0.0,0.0,0.0,0.0,0.0,0.0,0.0,0.0,0.0,0.0,0.0,0.0,0.0,0.0,0.0,0.0,0.0,0.0,0.0,0.0,0.0,0.0,0.0,0.0,0.0,0.0,0.0,0.0,0.0,0.0,0.0,0.0,0.0,0.0,0.0,0.0,0.0,0.0,0.0,0.0,0.0,0.0,0.0,0.0,0.0,0.0,0.0,0.0,0.0,0.0,0.0,0.0,0.0,0.0,0.0,0.0,0.0,0.0,0.0,0.0,0.0,0.0,0.0,0.0,0.0,0.0,0.0,0.0,0.0,0.0,0.0,0.0,0.0,0.0,0.0,0.0,0.0,0.0,0.0,0.0,0.0,0.0,0.0,0.0,0.0,0.0,0.0,0.0,0.0,0.0,0.0,0.0,0.0,0.0,0.0,0.0,0.0,0.0,0.0,0.0,0.0,0.0,0.0,0.0,0.0,0.0,0.0,0.0,0.0,0.0,0.0,0.0,0.0,0.0,0.0,0.0,0.0,0.0,0.0,0.0,0.0,0.0,0.0,0.0,0.0,0.0,0.0,0.0,0.0,0.0,0.0,0.0,0.0,0.0,0.0,0.0,0.0,0.0,0.0,0.0,0.0,0.0,0.0,0.0,0.0,0.0,0.0,0.0,0.0,0.0,0.0,0.0,0.0,0.0,0.0,0.0,0.0,0.0,0.0,0.0,0.0,0.0,0.0,0.0,0.0,0.0,0.0,0.0,0.0,0.0,0.0,0.0,0.0,0.0,0.0,0.0,0.0,0.0,0.0,0.0,0.0,0.0,0.0,0.0,0.0,0.0,0.0,0.0,0.0,0.0,0.0,0.0,0.0,0.0,0.0,0.0,0.0,0.0,0.0,0.0,0.0,0.0,0.0,0.0,0.0,0.0,0.0,0.0,0.0,0.0,0.0,0.0,0.0,0.0,0.0,0.0,0.0,0.0,0.0,0.0,0.0,0.0,0.0,0.0,0.0,0.0,0.0,0.0,0.0,0.0,0.0,0.0,0.0,0.0,0.0,0.0,0.0,0.0,0.0,0.0,0.0,0.0,0.0,0.0,0.0,0.0,0.0,0.0,0.0,0.0,0.0,0.0,0.0,0.0,0.0,0.0,0.0,0.0,0.0,0.0,0.0,0.0,0.0,0.0,0.0,0.0,0.0,0.0,0.0,0.0,0.0,0.0,0.0,0.0,0.0,0.0,0.0,0.0,0.0,0.0,0.0,0.0,0.0,0.0,0.0,0.0,0.0,0.0,0.0,0.0,0.0,0.0,0.0,0.0,0.0,0.0,0.0,0.0,0.0,0.0,0.0,0.0,0.0,0.0,0.0,0.0,0.0,0.0,0.0,0.0,0.0,0.0,0.0,0.0,0.0,0.0,0.0,0.0,0.0,0.0,0.0,0.0,0.0,0.0,0.0,0.0,0.0,0.0,0.0,0.0,0.0,0.0,0.0,0.0,0.0,0.0,0.0,0.0,0.0,0.0,0.0,0.0,0.0,0.0,0.0,0.0,0.0,0.0,0.0,0.0,0.0,0.0,0.0,0.0,0.0,0.0,0.0,0.0,0.0,0.0,0.0,0.0,0.0,0.0,0.0,0.0,0.0,0.0,0.0,0.0,0.0,0.0,0.0,0.0,0.0,0.0,0.0,0.0,0.0,0.0,0.0,0.0,0.0,0.0,0.0,0.0,0.0,0.0,0.0,0.0,0.0,0.0,0.0,0.0,0.0,0.0,0.0,0.0,0.0,0.0,0.0,0.0,0.0,0.0,0.0,0.0,0.0,0.0,0.0,0.0,0.0,0.0,0.0,0.0,0.0,0.0,0.0,0.0,0.0,0.0,0.0,0.0,0.0,0.0,0.0,0.0,0.0,0.0,0.0,0.0,0.0,0.0,0.0,0.0,0.0,0.0,0.0,0.0,0.0,0.0,0.0,0.0,0.0,0.0,0.0,0.0,0.0,0.0,0.0,0.0,0.0,0.0,0.0,0.0,0.0,0.0,0.0,0.0,0.0,0.0,0.0,0.0,0.0,0.0,0.0,0.0,0.0,0.0,0.0,0.0,0.0,0.0,0.0,0.0,0.0,0.0,0.0,0.0,0.0,0.0,0.0,0.0,0.0,0.0,0.0,0.0,0.0,0.0,0.0,0.0,0.0,0.0,0.0,0.0,0.0,0.0,0.0,0.0,0.0,0.0,0.0,0.0,0.0,0.0,0.0,0.0,0.0,0.0,0.0,0.0,0.0,0.0,0.0,0.0,0.0,0.0,0.0,0.0,0.0,0.0,0.0,0.0,0.0,0.0,0.0,0.0,0.0,0.0,0.0,0.0,0.0,0.0,0.0,0.0,0.0,0.0,0.0,0.0,0.0,0.0,0.0,0.0,0.0,0.0,0.0,0.0,0.0,0.0,0.0,0.0,0.0,0.0,0.0,0.0,0.0,0.0,0.0,0.0,0.0,0.0,0.0,0.0,0.0,0.0,0.0,0.0,0.0,0.0,0.0,0.0,0.0,0.0,0.0,0.0,0.0,0.0,0.0,0.0,0.0,0.0,0.0,0.0,0.0,0.0,0.0,0.0,0.0,0.0,0.0,0.0,0.0,0.0,0.0,0.0,0.0,0.0,0.0,0.0,0.0,0.0,0.0,0.0,0.0,0.0,0.0,0.0,0.0,0.0,0.0,0.0,0.0,0.0,0.0,0.0,0.0,0.0,0.0,0.0,0.0,0.0,0.0,0.0,0.0,0.0,0.0,0.0,0.0,0.0,0.0,0.0,0.0,0.0,0.0,0.0,0.0,0.0,0.0,0.0,0.0,0.0,0.0,0.0,0.0,0.0,0.0,0.0,0.0,0.0,0.0,0.0,0.0,0.0,0.0,0.0,0.0,0.0,0.0,0.0,0.0,0.0,0.0,0.0,0.0,0.0,0.0,0.0,0.0,0.0,0.0,0.0,0.0,0.0,0.0,0.0,0.0,0.0,0.0,0.0,0.0,0.0,0.0,0.0,0.0,0.0,0.0,0.0,0.0,0.0,0.0,0.0,0.0,0.0,0.0,0.0,0.0,0.0,0.0,0.0,0.0,0.0,0.0,0.0,0.0,0.0,0.0,0.0,0.0,0.0,0.0,0.0,0.0,0.0,0.0,0.0,0.0,0.0,0.0,0.0,0.0,0.0,0.0,0.0,0.0,0.0,0.0,0.0,0.0,0.0,0.0,0.0,0.0,0.0,0.0,0.0,0.0,0.0,0.0,0.0,0.0,0.0,0.0,0.0,0.0,0.0,0.0,0.0,0.0,0.0,0.0,0.0,0.0,0.0,0.0,0.0,0.0,0.0,0.0,0.0,0.0,0.0,0.0,0.0,0.0,0.0,0.0,0.0,0.0,0.0,0.0,0.0,0.0,0.0,0.0,0.0,0.0,0.0,0.0,0.0,0.0,0.0,0.0,0.0,0.0,0.0,0.0,0.0,0.0,0.0,0.0,0.0,0.0,0.0,0.0,0.0,0.0,0.0,0.0,0.0,0.0,0.0,0.0,0.0,0.0,0.0,0.0,0.0,0.0,0.0,0.0,0.0,0.0,0.0,0.0,0.0,0.0,0.0,0.0,0.0,0.0,0.0,0.0,0.0,0.0,0.0,0.0,0.0,0.0,0.0,0.0,0.0,0.0,0.0,0.0,0.0,0.0,0.0,0.0,0.0,0.0,0.0,0.0,0.0,0.0,0.0,0.0,0.0,0.0,0.0,0.0,0.0,0.0,0.0,0.0,0.0,0.0,0.0,0.0,0.0,0.0,0.0,0.0,0.0,0.0,0.0,0.0,0.0,0.0,0.0,0.0,0.0,0.0,0.0,0.0,0.0,0.0,0.0,0.0,0.0,0.0,0.0,0.0,0.0,0.0,0.0,0.0,0.0,0.0,0.0,0.0,0.0,0.0,0.0,0.0,0.0,0.0,0.0,0.0,0.0,0.0,0.0,0.0,0.0,0.0,0.0,0.0,0.0,0.0,0.0,0.0,0.0,0.0,0.0,0.0,0.0,0.0,0.0,0.0,0.0,0.0,0.0,0.0,0.0,0.0,0.0,0.0,0.0,0.0,0.0,0.0,0.0,0.0,0.0,0.0,0.0,0.0,0.0,0.0,0.0,0.0,0.0,0.0,0.0,0.0,0.0,0.0,0.0,0.0,0.0,0.0,0.0,0.0,0.0,0.0,0.0,0.0,0.0,0.0,0.0,0.0,0.0,0.0,0.0,0.0,0.0,0.0,0.0,0.0,0.0,0.0,0.0,0.0,0.0,0.0,0.0,0.0,0.0,0.0,0.0,0.0,0.0,0.0,0.0,0.0,0.0,0.0,0.0,0.0,0.0,0.0,0.0,0.0,0.0,0.0,0.0,0.0,0.0,0.0,0.0,0.0,0.0,0.0,0.0,0.0,0.0,0.0,0.0,0.0,0.0,0.0,0.0,0.0,0.0,0.0,0.0,0.0,0.0,0.0,0.0,0.0,0.0,0.0,0.0,0.0,0.0,0.0,0.0,0.0,0.0,0.0,0.0,0.0,0.0,0.0,0.0,0.0,0.0,0.0,0.0,0.0,0.0,0.0,0.0,0.0,0.0,0.0,0.0,0.0,0.0,0.0,0.0,0.0,0.0,0.0,0.0,0.0,0.0,0.0,0.0,0.0,0.0,0.0,0.0,0.0,0.0,0.0,0.0,0.0,0.0,0.0,0.0,0.0,0.0,0.0,0.0,0.0,0.0,0.0,0.0,0.0,0.0,0.0,0.0,0.0,0.0,0.0,0.0,0.0,0.0,0.0,0.0,0.0,0.0,0.0,0.0,0.0,0.0,0.0,0.0,0.0,0.0,0.0,0.0,0.0,0.0,0.0,0.0,0.0,0.0,0.0,0.0,0.0,0.0,0.0,0.0,0.0,0.0,0.0,0.0,0.0,0.0,0.0,0.0,0.0,0.0,0.0,0.0,0.0,0.0,0.0,0.0,0.0,0.0,0.0,0.0,0.0,0.0,0.0,0.0,0.0,0.0,0.0,0.0,0.0,0.0,0.0,0.0,0.0,0.0,0.0,0.0,0.0,0.0,0.0,0.0,0.0,0.0,0.0,0.0,0.0,0.0,0.0,0.0,0.0,0.0,0.0,0.0,0.0,0.0,0.0,0.0,-3.7003,-3.6804,0.0,0.0,0.0,0.0,0.0,0.0,0.0,0.0,0.0,0.0,0.0,0.0,0.0,0.0,0.0,0.0,0.0,0.0,0.0,0.0,0.0,0.0,0.0,-3.2739,-3.3427,-3.5186,-3.5599,0.0,0.0,0.0,0.0,0.0,0.0,0.0,0.0,0.0,-3.3901,-3.3437,-3.4212,-3.4779,-3.519,-3.4213,-3.3899,-3.4169,0.0,0.0,0.0,0.0,0.0,0.0,0.0,0.0,0.0,0.0,0.0,0.0,0.0,0.0,0.0,0.0,0.0,0.0,0.0,0.0,0.0,0.0,0.0,0.0,0.0,0.0,0.0,0.0,0.0,0.0,0.0,0.0,0.0,0.0,0.0,0.0,0.0,0.0,0.0,0.0,0.0,0.0,0.0,0.0,0.0,0.0,0.0,0.0,0.0,0.0,0.0,0.0,0.0,0.0,0.0,0.0,0.0,0.0,0.0,0.0,0.0,0.0,0.0,0.0,0.0,0.0,0.0,0.0,0.0,0.0,-3.793,-3.7831,0.0,0.0,0.0,0.0,0.0,0.0,0.0,0.0,0.0,0.0,0.0,0.0,0.0,0.0,0.0,0.0,0.0,0.0,0.0,0.0,0.0,-3.1582,-3.2441,-3.2483,-3.3151,-3.487,-3.557,-3.5902,-3.5831,-3.6493,0.0,0.0,0.0,0.0,-3.443,-3.5095,-3.5053,-3.4319,-3.5768,-3.6468,-3.64,-3.5514,-3.5437,-3.5945,-3.5151,0.0,0.0,0.0,0.0,0.0,0.0,0.0,0.0,0.0,0.0,0.0,0.0,0.0,0.0,0.0,0.0,0.0,0.0,0.0,0.0,0.0,0.0,0.0,0.0,0.0,0.0,0.0,0.0,0.0,0.0,0.0,0.0,0.0,0.0,0.0,0.0,0.0,0.0,0.0,0.0,0.0,0.0,0.0,0.0,0.0,0.0,0.0,0.0,0.0,0.0,0.0,0.0,0.0,0.0,0.0,0.0,0.0,0.0,0.0,0.0,0.0,0.0,0.0,-3.7698,-3.7731,-3.7864,-3.7864,-3.8195,-3.8791,-3.9388,-3.9322,-3.8825,-3.9288,0.0,0.0,0.0,0.0,0.0,0.0,0.0,0.0,0.0,0.0,0.0,0.0,0.0,0.0,0.0,0.0,0.0,0.0,0.0,-3.3378,-3.4276,-3.432,-3.4948,-3.6629,-3.6763,-3.6732,-3.6732,-3.673,0.0,0.0,0.0,0.0,-3.5353,-3.5416,-3.5388,-3.5162,-3.6042,-3.6365,-3.616,-3.6026,-3.5765,-3.5453,-3.467,-3.4513,-3.4825,0.0,0.0,0.0,0.0,0.0,0.0,0.0,0.0,0.0,0.0,0.0,0.0,0.0,0.0,0.0,0.0,0.0,0.0,0.0,0.0,0.0,0.0,0.0,0.0,0.0,0.0,0.0,0.0,0.0,0.0,0.0,0.0,0.0,0.0,0.0,0.0,0.0,0.0,0.0,0.0,0.0,-3.7108,-3.7578,0.0,0.0,0.0,0.0,0.0,0.0,0.0,0.0,0.0,0.0,0.0,0.0,0.0,-3.9285,-3.9617,-3.9044,-3.916,-3.9951,-3.9951,-4.0249,-4.0845,-4.0845,-4.0912,-4.1011,-4.1077,0.0,-4.0945,-4.0448,0.0,0.0,0.0,0.0,0.0,0.0,0.0,0.0,0.0,0.0,0.0,0.0,0.0,0.0,0.0,0.0,0.0,0.0,0.0,0.0,0.0,-3.451,-3.5133,-3.685,-3.7328,-3.7295,-3.6807,-3.7203,0.0,0.0,0.0,-3.5493,-3.5493,-3.5493,-3.5657,-3.6044,-3.5751,-3.5761,-3.6083,-3.5383,-3.4913,-3.4699,-3.4215,-3.4097,-3.4321,-3.3899,0.0,0.0,0.0,0.0,0.0,0.0,0.0,0.0,0.0,0.0,0.0,0.0,0.0,0.0,0.0,0.0,0.0,0.0,0.0,0.0,0.0,0.0,0.0,0.0,0.0,0.0,0.0,0.0,0.0,0.0,0.0,0.0,0.0,0.0,0.0,0.0,0.0,0.0,0.0,-4.0022,-3.9797,-3.9687,-4.0006,-4.0003,0.0,0.0,0.0,0.0,0.0,0.0,0.0,0.0,0.0,-4.1217,-4.1055,-4.1156,-4.1478,-4.1283,-4.1102,-4.0945,-4.0945,-4.111,-4.1409,-4.1409,-4.1409,-4.1409,-4.1409,-4.164,-4.2038,-4.217,-4.2568,-4.3164,0.0,0.0,0.0,0.0,-4.3116,-4.2929,0.0,0.0,0.0,0.0,0.0,0.0,0.0,0.0,0.0,0.0,0.0,0.0,-3.487,-3.4736,-3.5151,-3.6439,-3.7244,-3.7315,-3.6469,-3.7199,-3.7007,-3.5584,-3.5493,-3.5493,-3.5493,-3.5493,-3.5705,-3.6173,-3.5394,-3.5249,-3.5663,-3.4786,-3.4344,-3.4274,-3.4055,-3.3987,-3.41,-3.3826,-3.3863,-3.4027,0.0,0.0,0.0,0.0,0.0,0.0,0.0,0.0,0.0,0.0,0.0,0.0,0.0,0.0,0.0,0.0,0.0,0.0,0.0,0.0,0.0,0.0,0.0,0.0,0.0,0.0,0.0,0.0,0.0,0.0,0.0,0.0,0.0,0.0,0.0,0.0,0.0,-4.1561,-4.1614,-4.13,-4.1506,-4.1288,0.0,0.0,0.0,0.0,0.0,0.0,-4.0824,-4.0824,-4.1466,-4.2822,-4.2774,-4.2873,-4.3207,-4.2959,-4.2532,-4.1899,-4.1763,-4.1806,-4.1972,-4.1972,-4.1972,-4.1972,-4.1972,-4.2402,-4.3098,-4.3264,-4.3522,-4.3898,-4.443,-4.4394,-4.4087,-4.435,-4.419,-4.4027,0.0,0.0,0.0,0.0,0.0,0.0,0.0,0.0,0.0,0.0,0.0,-3.5788,-3.585,-3.5676,-3.5588,-3.5665,-3.6357,-3.643,-3.5622,-3.6315,-3.6392,-3.5545,-3.5493,-3.5493,-3.5493,-3.5427,-3.5308,-3.5072,-3.5212,-3.5037,-3.4567,-3.4791,-3.4733,-3.4486,-3.442,-3.4587,-3.488,-3.4137,-3.4247,-3.4844,-3.4064,0.0,0.0,0.0,0.0,0.0,0.0,0.0,0.0,0.0,0.0,0.0,0.0,0.0,0.0,0.0,0.0,0.0,0.0,0.0,0.0,0.0,0.0,0.0,0.0,0.0,0.0,0.0,0.0,0.0,0.0,0.0,0.0,0.0,0.0,0.0,0.0,0.0,0.0,-4.1038,-4.0467,0.0,0.0,0.0,0.0,-4.1038,-4.1038,-4.1716,-4.3251,-4.3322,-4.3679,-4.4464,-4.4067,-4.3827,-4.3851,-4.2842,-4.2644,-4.328,-4.2722,-4.2833,-4.3529,-4.3529,-4.3529,-4.3529,-4.3529,-4.3926,-4.4456,-4.3131,-4.3313,-4.4463,-4.4497,-4.4872,-4.5425,-4.5733,-4.6266,-4.6778,0.0,0.0,0.0,-3.3963,-3.3774,-3.3847,-3.4129,-3.4487,-3.4908,-3.5398,-3.5638,-3.5755,-3.5715,-3.5604,-3.5727,-3.6267,-3.7074,-3.743,-3.7123,-3.6853,-3.6584,-3.6276,-3.5238,-3.493,-3.5507,-3.5324,-3.5119,-3.5016,-3.5282,-3.5049,-3.4321,-3.5497,-3.5722,-3.5128,-3.5791,-3.6143,-3.6186,-3.4772,-3.4399,-3.4647,-3.4349,-3.4179,0.0,0.0,0.0,0.0,0.0,0.0,0.0,0.0,0.0,0.0,0.0,0.0,0.0,0.0,0.0,0.0,0.0,0.0,0.0,0.0,0.0,0.0,0.0,0.0,0.0,0.0,0.0,0.0,0.0,0.0,0.0,0.0,0.0,0.0,0.0,0.0,0.0,-4.2608,-4.2394,0.0,-4.1895,-4.2358,-4.2644,-4.2644,-4.2644,-4.3108,-4.4178,-4.4214,-4.4571,-4.5356,-4.5178,-4.5198,-4.5409,-4.4983,-4.4768,-4.459,-4.4374,-4.4402,-4.4674,-4.4674,-4.4674,-4.4674,-4.4674,-4.481,-4.5014,-4.4558,-4.4676,-4.535,-4.535,-4.5739,-4.6309,-4.6083,-4.6378,-4.7037,0.0,-3.4827,0.0,-3.4201,-3.3915,-3.399,-3.4856,-3.5071,-3.5374,-3.6176,-3.5926,-3.5795,-3.6024,-3.5701,-3.5815,-3.6622,-3.7238,-3.756,-3.7616,-3.7035,-3.6598,-3.6344,-3.5226,-3.5045,-3.5892,-3.5722,-3.5692,-3.5742,-3.6029,-3.5783,-3.5082,-3.631,-3.6569,-3.6068,-3.688,-3.7213,-3.7137,-3.6,-3.5463,-3.5281,-3.4733,-3.4757,-3.5165,0.0,0.0,0.0,0.0,0.0,0.0,0.0,0.0,0.0,0.0,0.0,0.0,0.0,0.0,0.0,0.0,0.0,0.0,0.0,0.0,0.0,0.0,0.0,0.0,0.0,0.0,0.0,0.0,0.0,0.0,0.0,0.0,0.0,0.0,-4.4245,-4.3543,-4.35,-4.3251,-4.3001,-4.2715,-4.3179,-4.3607,-4.3857,-4.3893,-4.4214,-4.4963,-4.4999,-4.5392,-4.6177,-4.6212,-4.6433,-4.6883,-4.6653,-4.651,-4.6395,-4.6185,-4.6132,-4.6132,-4.6132,-4.627,-4.6477,-4.6236,-4.6408,-4.6857,-4.6615,-4.6737,-4.712,-4.6524,-4.7072,-4.8131,-4.7595,-4.799,-4.8934,-3.5921,-3.5205,-3.486,-3.5669,-3.5095,-3.4817,-3.5671,-3.5879,-3.6155,-3.6889,-3.6238,-3.5997,-3.6814,-3.6061,-3.5815,-3.6622,-3.6738,-3.6806,-3.693,-3.682,-3.6421,-3.5665,-3.5612,-3.593,-3.6738,-3.6724,-3.69,-3.7196,-3.7394,-3.723,-3.6721,-3.7159,-3.7351,-3.7351,-3.7661,-3.7789,-3.7789,-3.775,-3.7471,-3.6942,-3.5302,-3.5566,-3.6829,0.0,0.0,0.0,0.0,0.0,0.0,0.0,0.0,0.0,0.0,0.0,0.0,0.0,0.0,0.0,0.0,0.0,0.0,0.0,0.0,0.0,0.0,0.0,0.0,0.0,0.0,0.0,0.0,0.0,0.0,0.0,0.0,0.0,-4.4671,-4.4002,-4.3555,-4.35,-4.2822,-4.268,-4.35,-4.3607,-4.3929,-4.4678,-4.4714,-4.5035,-4.582,-4.5856,-4.6212,-4.6998,-4.6998,-4.739,-4.8211,-4.7625,-4.7729,-4.8572,-4.8012,-4.7796,-4.783,-4.783,-4.8211,-4.8868,-4.8142,-4.8661,-4.9998,-4.9214,-4.9353,-4.9951,-4.812,-4.8813,-5.0821,-5.0346,-5.1178,-5.2676,-3.5814,-3.5616,-3.5466,-3.5753,-3.5549,-3.5493,-3.5825,-3.5878,-3.6187,-3.7028,-3.6404,-3.6112,-3.688,-3.6183,-3.5968,-3.6779,-3.7385,-3.7745,-3.7781,-3.7757,-3.7382,-3.6577,-3.7051,-3.743,-3.7623,-3.7517,-3.7462,-3.7509,-3.7775,-3.7619,-3.7009,-3.8342,-3.872,-3.834,-3.9185,-3.9584,-3.9546,-3.8897,-3.8918,-3.9241,-3.7528,-3.7034,-3.733,0.0,0.0,0.0,0.0,0.0,0.0,0.0,0.0,0.0,0.0,0.0,0.0,0.0,0.0,0.0,0.0,0.0,0.0,0.0,0.0,0.0,0.0,0.0,0.0,0.0,0.0,0.0,0.0,0.0,0.0,0.0,-4.674,-4.6094,-4.5759,-4.3937,-4.2864,-4.3429,-4.3786,-4.4285,-4.5106,-4.5713,-4.6355,-4.714,-4.6676,-4.6676,-4.7497,-4.6962,-4.7033,-4.7818,-4.7283,-4.764,-4.8996,-4.8283,-4.8626,-4.9977,-4.9791,-5.0059,-5.059,-5.059,-5.0696,-5.0909,-5.0696,-5.0838,-5.1192,-5.1083,-5.1489,-5.2041,-5.0134,-5.0136,-5.1094,-5.1129,-5.2422,-5.4243,-3.5803,-3.5757,-3.5742,-3.5781,-3.5786,-3.5784,-3.5854,-3.6176,-3.6722,-3.7561,-3.6947,-3.6696,-3.7458,-3.644,-3.6026,-3.6861,-3.7045,-3.7249,-3.7638,-3.7996,-3.8098,-3.7925,-3.8334,-3.8546,-3.8546,-3.8431,-3.8487,-3.8687,-3.885,-3.8659,-3.8206,-3.9271,-3.9586,-3.9295,-4.0024,-4.0327,-4.0327,-3.9792,-3.9868,-4.0251,-3.9218,-3.8764,-3.8594,-3.8535,-3.8326,-3.8156,-3.8456,-3.8759,-3.92,-4.0156,0.0,0.0,0.0,0.0,0.0,0.0,0.0,0.0,0.0,0.0,0.0,0.0,0.0,0.0,0.0,0.0,0.0,0.0,0.0,0.0,0.0,0.0,0.0,0.0,-4.7484,-4.7015,-4.6641,-4.5144,-4.4139,-4.4428,-4.5142,-4.5927,-4.6712,-4.7212,-4.7676,-4.8139,-4.7747,-4.7533,-4.7676,-4.7247,-4.7354,-4.8139,-4.7747,-4.8247,-4.9817,-4.971,-5.0281,-5.1494,-5.1815,-5.2208,-5.2671,-5.2671,-5.285,-5.3171,-5.3171,-5.358,-5.4239,-5.4343,-5.486,-5.5362,0.0,0.0,0.0,0.0,-5.472,-5.5848,-3.5781,-3.5803,-3.5813,-3.5831,-3.5795,-3.5794,-3.5811,-3.6611,-3.7481,-3.8245,-3.7728,-3.7572,-3.8385,-3.6938,-3.6262,-3.7225,-3.6526,-3.6479,-3.7579,-3.833,-3.9021,-3.9706,-3.9638,-3.9585,-3.9585,-3.9469,-3.9714,-4.0233,-4.0158,-4.0002,-3.9775,-3.9962,-4.0022,-4.0042,-4.0289,-4.0398,-4.0398,-4.0398,-4.0398,-4.0398,-4.0398,-4.0363,-4.0138,-3.8644,-3.8563,-3.9138,-3.846,-3.8635,-3.9291,-3.9597,0.0,0.0,0.0,0.0,0.0,0.0,0.0,0.0,0.0,0.0,0.0,0.0,0.0,0.0,0.0,0.0,0.0,0.0,0.0,0.0,0.0,0.0,0.0,0.0,-4.8348,-4.7909,-4.764,-4.7274,-4.6794,-4.6096,-4.6802,-4.766,-4.8447,-4.859,-4.8615,-4.8615,-4.8496,-4.8139,-4.7426,-4.7319,0.0,0.0,0.0,-4.9103,-5.0744,-5.1387,-5.2172,-5.3171,-5.3813,-5.4242,-5.442,-5.442,-5.4848,-5.5598,-5.5598,-5.6527,-5.7925,-5.798,-5.8484,-5.888,-5.5245,-5.4806,-5.6241,-5.6921,-5.7188,-5.7224,-3.5704,-3.5763,-3.5811,-3.5852,-3.5834,-3.5821,-3.5927,-3.6684,-3.7531,-3.8428,-3.8401,-3.8635,-3.9408,-3.8003,-3.7596,-3.9065,-3.8397,-3.8804,-4.1003,-4.1296,-4.169,-4.2433,-4.1724,-4.1316,-4.1316,-4.0623,-4.0338,-4.0422,-4.0269,-4.0233,-4.0342,-4.0177,-4.0177,-4.0325,-4.0398,-4.0398,-4.0398,-4.0398,-4.0398,-4.0398,-4.0398,-4.0398,-4.0342,-4.0015,-4.0015,-4.013,-3.9994,-4.0015,-4.0475,-4.2506,-4.197,-4.0879,-4.3733,-4.3273,0.0,0.0,0.0,0.0,0.0,0.0,0.0,0.0,0.0,0.0,0.0,0.0,0.0,0.0,0.0,0.0,0.0,0.0,0.0,-4.9652,-4.9485,-4.9377,-4.9623,-5.0118,-4.9637,-4.7434,-4.8415,-4.964,-5.0433,-5.1081,-5.1299,-5.1044,-5.0423,-4.9995,-4.9817,-4.921,-4.9246,-5.0031,-4.9424,-5.0174,-5.2386,-5.1922,-5.2743,-5.4777,-5.492,0.0,-5.6882,-5.6882,-5.7311,-5.806,-5.8172,-5.8462,-5.8805,-5.9024,-5.9258,-5.9365,-5.7851,-5.7505,-5.7825,-5.7369,-5.7188,-5.7297,-3.6372,-3.6144,-3.5889,-3.5955,-3.6282,-3.6582,-3.6626,-3.7741,-3.8709,-3.9153,-3.9195,-3.9351,-3.9741,-3.8297,-3.7432,-3.7839,-3.7834,-3.8883,-4.1286,-4.1869,-4.2416,-4.3134,-4.2271,-4.1585,-4.1162,-4.07,-4.0508,-4.0508,-4.0389,-4.0411,-4.0515,-4.0356,-4.0339,-4.0444,-4.0444,-4.0492,-4.0569,-4.0569,-4.0574,-4.0604,-4.0604,-4.0604,-4.059,-4.053,-4.0545,-4.0602,-4.0545,-4.0559,-4.0795,-4.1979,-4.1855,-4.1567,-4.3636,-4.3751,-4.3342,0.0,0.0,0.0,0.0,0.0,0.0,0.0,0.0,0.0,0.0,0.0,0.0,0.0,0.0,-4.9721,-5.0532,0.0,-5.1168,-5.1168,-5.1055,-5.096,-5.0946,-5.145,-5.1303,-4.9768,-5.0671,-5.158,-5.1883,-5.2282,-5.2226,-5.1726,-5.1246,-5.0849,-5.0452,-5.0462,-5.0731,-5.1323,-5.1359,-5.205,-5.3457,-5.3457,-5.4028,-5.5205,-5.5598,-5.6204,-5.6989,-5.7418,-5.7774,-5.8203,-5.9123,-5.9593,-5.9777,-6.0449,-6.0756,-6.0738,-5.9835,-5.9309,-5.8963,-5.8565,-5.8383,-5.8456,-3.7284,-3.6755,-3.6151,-3.6012,-3.6562,-3.7108,-3.726,-3.8659,-3.9666,-3.978,-3.9819,-3.9819,-3.9819,-3.8297,-3.7009,-3.6306,-3.736,-3.8883,-4.0956,-4.2208,-4.3086,-4.3612,-4.2633,-4.1732,-4.1008,-4.0662,-4.0485,-4.053,-4.053,-4.0545,-4.0574,-4.0574,-4.0574,-4.0574,-4.0574,-4.0629,-4.073,-4.073,-4.0749,-4.0791,-4.0791,-4.08,-4.0848,-4.0738,-4.0738,-4.0791,-4.0726,-4.0749,-4.0829,-4.0885,-4.1296,-4.1983,-4.3098,-4.3835,-4.4688,-4.6744,-4.7248,0.0,0.0,0.0,0.0,0.0,0.0,0.0,0.0,-5.0245,-5.0663,-5.0798,-5.0741,-5.1078,-5.2334,-5.2645,-5.2608,-5.2419,-5.2332,-5.222,-5.2043,-5.23,-5.2418,-5.2169,-5.2716,-5.3036,-5.2893,-5.2893,-5.2601,-5.1901,-5.1864,-5.1645,-5.1134,-5.1682,-5.228,-5.2759,-5.3447,-5.4025,-5.4466,-5.5043,-5.5383,-5.5562,-5.6152,-5.649,-5.6668,-5.7275,-5.7795,-5.8152,-5.9716,-6.0532,-6.0771,-6.1642,-6.2005,-6.1969,-6.1317,-6.0665,-6.005,-5.9724,-5.9615,-5.9615,-3.8263,-3.772,-3.6912,-3.6133,-3.6088,-3.6392,-3.718,-3.811,-3.9,-3.9702,-3.9819,-3.9819,-3.9819,-3.8297,-3.7243,-3.7165,-3.9312,-4.1051,-4.1987,-4.4331,-4.5619,-4.549,-4.3929,-4.297,-4.2816,-4.1277,-4.0545,-4.0668,-4.0668,-4.0692,-4.0752,-4.0752,-4.0752,-4.0752,-4.0752,-4.0762,-4.0772,-4.0772,-4.0781,-4.0791,-4.0791,-4.0874,-4.0981,-4.0967,-4.089,-4.0781,-4.0772,-4.0781,-4.0937,-4.1665,-4.1471,-4.1364,-4.3684,-4.4033,-4.416,-4.7395,-4.7772,-4.7505,-4.9353,-4.966,-4.9692,-5.0575,-5.0853,-5.0882,0.0,-5.0712,-5.1006,-5.178,-5.23,-5.2708,-5.2855,-5.3277,-5.3376,-5.2532,-5.239,-5.2559,-5.3126,-5.3252,-5.3494,-5.4008,-5.3604,-5.324,-5.3277,-5.3235,-5.3115,-5.266,-5.266,-5.2915,-5.358,-5.3689,-5.4091,-5.4848,-5.4957,-5.5348,-5.6139,-5.5858,-5.6104,-5.6825,-5.651,-5.6775,-5.7453,-5.7525,-5.8422,-5.9895,-6.1076,-6.1732,-6.1842,-6.1914,-6.2005,-6.2005,-6.1933,-6.1824,-6.1571,-6.0122,-5.9615,-5.9724,-3.9179,-3.8661,-3.793,-3.7578,-3.7493,-3.7477,-3.7329,-3.8885,-3.9819,-3.9195,-3.9507,-3.9624,-3.9156,-3.7555,-3.654,-3.654,-3.8453,-3.9958,-4.0714,-4.2708,-4.402,-4.4378,-4.3214,-4.2532,-4.2511,-4.1788,-4.123,-4.0759,-4.0759,-4.0791,-4.0791,-4.0791,-4.0791,-4.0791,-4.0791,-4.0818,-4.0906,-4.0906,-4.0935,-4.0972,-4.0972,-4.1022,-4.1042,-4.1042,-4.1033,-4.1045,-4.1512,-4.1721,0.0,-4.2089,-4.2344,-4.2688,-4.3734,-4.4202,-4.491,-4.7834,-4.8418,-4.8366,-4.959,-5.0299,-5.0813,-5.1131,-5.123,-5.1327,-5.1753,-5.2149,-5.2524,-5.2912,-5.3442,-5.4014,-5.4434,-5.4609,-5.4535,-5.4123,-5.3946,-5.3913,-5.4101,-5.4107,-5.4156,-5.4405,-5.4127,-5.4093,-5.4426,-5.4463,-5.4568,-5.4843,-5.4838,-5.4986,-5.5318,-5.5802,-5.608,-5.6198,-5.663,-5.6942,-5.7072,-5.6928,-5.6912,-5.6984,-5.6865,-5.6833,-5.6918,-5.7382,-5.8586,-6.0316,-6.0844,-6.1407,-6.2005,-6.2005,-6.2005,-6.2005,-6.2005,-6.2005,-6.1933,-6.1245,-6.1027,-6.1064,-4.0076,-3.957,-3.8945,-3.8945,-3.8978,-3.8651,-3.7789,-3.9234,-3.9976,-3.8768,-3.8882,-3.8804,-3.7985,-3.654,-3.5759,-3.5991,-3.7789,-3.9142,-3.9686,-4.1797,-4.3176,-4.3432,-4.2857,-4.2499,-4.2471,-4.2199,-4.182,-4.1224,-4.0982,-4.0843,-4.0867,-4.0867,-4.0867,-4.0867,-4.0867,-4.0935,-4.1017,-4.1017,-4.1042,-4.1108,-4.1342,-4.1462,-4.1462,-4.1462,-4.1618,-4.1849,-4.2208,-4.2373,-4.2393,-4.232,-4.2958,-4.3684,-4.3684,-4.4309,-4.548,-4.8066,-4.8973,-4.9287,-4.9887,-5.0542,-5.1079,-5.1264,-5.1281,-5.1398,-5.1787,-5.2631,-5.328,-5.3036,-5.3843,-5.4774,-5.5343,-5.5434,-5.5384,-5.5301,-5.5157,-5.5028,-5.4844,-5.4776,-5.4671,-5.4358,-5.4289,-5.4608,-5.546,-5.5432,-5.5697,-5.6405,-5.6479,-5.6552,-5.6697,-5.7255,-5.7542,-5.7389,-5.7943,-5.8186,-5.8006,-5.7877,-5.769,-5.7462,-5.7202,-5.6933,-5.6653,-5.7369,-5.8482,-5.9761,-6.0413,-6.1028,-6.1716,-6.1933,-6.1897,-6.1679,-6.1679,-6.1534,-6.1353,-6.1353,-6.1498,-6.1679,-4.0976,-4.0469,-3.9844,-3.9844,-3.9841,-3.9561,-3.869,-3.8612,-3.8651,-3.8612,-3.7906,-3.7048,-3.6189,-3.5291,-3.5096,-3.5913,-3.8297,-3.978,-3.9816,-4.3017,-4.448,-4.352,-4.3526,-4.3491,-4.3355,-4.2549,-4.2166,-4.2241,-4.1416,-4.1022,-4.1104,-4.1104,-4.1104,-4.1104,-4.1104,-4.1108,-4.1108,-4.1108,-4.1108,-4.1186,-4.2009,-4.236,-4.236,-4.236,-4.2907,-4.3492,-4.2708,-4.2396,-4.2396,-4.2393,-4.2982,-4.3684,-4.3684,-4.4309,-4.5486,-4.8045,-4.9333,-4.9988,-4.9999,-5.0031,-5.0253,-5.1096,-5.1296,-5.1086,-5.0268,-5.1398,-5.2403,-5.1546,-5.3252,-5.4867,-5.4827,-5.5281,-5.5689,-5.5588,-5.5516,-5.5437,-5.5364,-5.5275,-5.4906,-5.4192,-5.3989,-5.4482,-5.5928,-5.5772,-5.5948,-5.6812,-5.6849,-5.7153,-5.7753,-5.7752,-5.8084,-5.8661,-5.8656,-5.8781,-5.8945,-5.8586,-5.8466,-5.8673,-5.7757,-5.7266,-5.7302,-5.7762,-5.8035,-5.8143,-6.0015,-6.081,-6.0919,-6.1679,-6.1571,-6.0846,-6.0846,-6.0375,-5.9687,-5.9687,-6.0194,-6.0846,-4.1133,-4.0976,-4.0742,-4.0695,-4.0695,-4.042,-3.9588,-3.9429,-3.9,-3.7867,-3.7985,0.0,0.0,0.0,0.0,0.0,-3.7633,-3.8609,-3.9741,-4.0912,-4.2155,-4.3587,-4.3665,-4.3383,-4.2738,-4.3017,-4.2637,-4.1519,-4.1207,-4.1097,-4.1108,-4.1108,-4.1108,-4.1111,-4.1119,-4.1084,-4.1084,-4.1084,-4.1084,-4.1162,-4.206,-4.2412,-4.2529,-4.3661,-4.3935,-4.3739,0.0,-4.3732,-4.3255,-4.3255,-4.345,-4.3808,-4.4331,-4.4685,-4.5233,-4.6637,-4.8511,-4.9921,-4.9291,-5.0016,-5.1001,-5.1225,-5.086,-5.0346,-5.0073,-5.0463,-5.0969,-5.1242,-5.3321,-5.5229,-5.573,-5.6296,-5.6673,-5.6618,-5.5989,-5.5437,-5.5301,-5.4853,-5.4393,-5.4014,-5.3527,-5.3642,-5.4753,-5.5493,-5.663,-5.835,-5.8464,-5.8577,-5.8803,-5.8803,-5.8915,-5.9101,-5.9101,-5.9101,-5.9178,-5.9064,-5.891,-5.8676,-5.8091,-5.7674,-5.7413,-5.7655,-5.7891,-5.8159,-5.8858,-5.9832,-6.0774,-6.052,-6.0557,-6.0774,-6.0231,-5.9832,-5.9542,-5.8999,-5.8999,-5.9289,0.0,-4.1211,-4.1171,-4.1114,-4.1116,0.0,0.0,0.0,0.0,0.0,0.0,0.0,0.0,0.0,0.0,0.0,0.0,-3.8414,-3.8882,-3.9741,-4.0991,-4.2708,-4.306,-4.3138,-4.2864,-4.3099,-4.2825,-4.2045,-4.142,-4.1267,-4.1546,-4.1233,-4.1114,-4.1111,-4.1119,-4.1125,-4.113,-4.113,-4.1833,-4.2966,-4.2888,-4.3591,-4.4724,-4.4918,-4.4838,0.0,-4.4565,-4.4374,-4.4062,-4.3785,-4.4096,-4.4647,-4.4842,-4.5304,-4.5841,-4.6093,-4.7787,-4.9483,-4.8867,-4.9793,-5.0967,-5.1245,-5.0633,-4.9917,-4.9644,-4.98,-4.9995,-4.9956,-5.2489,-5.4779,-5.4938,-5.576,-5.6591,-5.7163,-5.6117,-5.5297,-5.5477,-5.4891,-5.4122,-5.3322,-5.2909,-5.2951,-5.375,-5.4574,-5.5808,-5.7683,-5.7838,-5.7771,-5.7632,-5.7632,-5.786,-5.8389,-5.8427,-5.8726,-5.94,-5.94,-5.9215,-5.8796,-5.8557,-5.8178,-5.7721,-5.785,-5.7993,-5.805,-5.8442,-5.9118,-5.9941,-5.9687,-5.976,-5.9905,-5.9361,-5.8999,-5.8673,-5.8166,-5.7985,-5.8094,0.0,0.0,-4.117,0.0,0.0,0.0,0.0,0.0,0.0,0.0,0.0,0.0,0.0,0.0,0.0,0.0,0.0,0.0,-3.7516,-3.9624,-4.0991,-4.1147,-4.1967,-4.2825,-4.3684,-4.2903,-4.2864,-4.3645,-4.1931,-4.1507,-4.2337,-4.1478,-4.1123,-4.1111,-4.115,-4.1201,-4.125,-4.125,-4.3164,-4.6016,-4.4375,-4.5703,-4.8437,-4.6051,-4.562,-4.6088,-4.4448,-4.4327,-4.4832,-4.4047,-4.4831,-4.5987,-4.516,-4.5986,-4.7104,-4.6325,-4.7313,-4.8698,-4.8699,-4.9372,-5.0259,-5.1054,-5.0582,-4.973,-4.8904,-4.9294,-4.9372,-4.7891,-5.0852,-5.3541,-5.2801,-5.3896,-5.5449,-5.7068,-5.5816,-5.4951,-5.5709,-5.5165,-5.4022,-5.231,-5.2128,-5.2404,-5.3013,-5.307,-5.358,-5.484,-5.5119,-5.5028,-5.4629,-5.4597,-5.5254,-5.6699,-5.6774,-5.767,-5.954,-5.9578,-5.9399,-5.9065,-5.9065,-5.8719,-5.8141,-5.8344,-5.8164,-5.7737,-5.8637,-5.8848,-5.8528,-5.9216,-5.9072,-5.8456,-5.8383,-5.7876,-5.7188,-5.7188,-5.7224,-5.7369,0.0,0.0,0.0,0.0,0.0,0.0,0.0,0.0,0.0,0.0,0.0,0.0,0.0,0.0,0.0,0.0,0.0,0.0,-3.9117,-3.8609,-3.9429,-4.1967,-4.2279,-4.2825,-4.3684,-4.3489,-4.3177,-4.2747,-4.1626,-4.1199,-4.1429,-4.1246,-4.1171,-4.1209,-4.1819,-4.2097,-4.2109,-4.2109,-4.2969,-4.4336,-4.3867,-4.4609,-4.6054,-4.6708,-4.6661,-4.6231,-4.5811,-4.5742,-4.5765,-4.4943,-4.4937,-4.5164,-4.4894,-4.5141,-4.5531,-4.592,-4.7313,-4.8712,-4.8708,-4.9842,-5.0959,-5.0508,-4.9752,-4.8878,-4.8022,-4.7501,-4.7423,-4.828,-5.0346,-5.2294,-5.3385,-5.3877,-5.4241,-5.4594,-5.374,-5.3073,-5.321,-5.3133,-5.2862,-5.2321,-5.1741,-5.1393,-5.146,-5.1498,-5.1529,-5.1644,-5.3862,-5.514,-5.5057,-5.4912,-5.5283,-5.6311,-5.6349,-5.7213,-5.8911,-5.9517,-5.9786,-5.9681,-5.9681,-5.9397,-5.8913,-5.895,-5.8591,-5.7877,-5.8097,-5.8628,-5.9216,-5.8239,-5.8383,-5.918,-5.7985,-5.7369,-5.7188,-5.7188,-5.7587,-5.813,0.0,0.0,0.0,0.0,0.0,0.0,0.0,0.0,0.0,0.0,0.0,0.0,0.0,0.0,0.0,0.0,0.0,0.0,0.0,-3.8726,-3.9429,-4.1732,-4.181,-4.2045,-4.2552,-4.2162,-4.2123,-4.2396,-4.1158,-4.1162,-4.2212,-4.1481,-4.1171,-4.117,-4.1631,-4.1824,-4.1831,-4.1834,-4.3202,0.0,0.0,-4.5115,-4.7225,-4.7098,-4.6736,-4.6303,-4.6312,-4.6282,-4.6093,-4.5216,-4.4657,-4.4461,-4.5177,-4.567,-4.6104,-4.693,-4.8444,-4.9703,-4.9385,-5.0307,-5.1235,-5.0796,-4.9718,-4.8755,-4.8671,-4.7657,-4.7039,-4.803,-4.9903,-5.1308,-5.1107,-5.1959,-5.264,-5.258,-5.1838,-5.1421,-5.1718,-5.1538,-5.1347,-5.1244,-5.0826,-5.0658,-5.0983,-5.0945,-5.0808,-5.0547,-5.212,-5.3035,-5.2878,-5.2741,-5.3252,-5.4503,-5.4882,-5.6247,-5.8672,-5.9127,-5.9544,-5.9885,-5.9885,-5.9748,-5.9505,-5.9289,-5.8833,-5.8201,-5.8201,-5.8344,-5.8492,-5.7801,-5.7897,-5.8456,-5.755,-5.7188,-5.7188,-5.7188,-5.7746,-5.8486,0.0,0.0,0.0,0.0,0.0,0.0,0.0,0.0,0.0,0.0,0.0,-4.1108,-4.1108,-4.1108,0.0,0.0,0.0,0.0,0.0,0.0,-4.0093,-4.1069,-4.1108,-4.1147,-4.1264,-4.0405,-4.0678,-4.2084,-4.0489,-4.0848,-4.3001,-4.1593,-4.093,-4.0969,-4.1164,-4.1275,-4.1264,-4.1277,-4.3507,-4.6866,-4.4601,-4.6007,-4.9172,0.0,-4.6312,-4.63,-4.63,-4.6222,-4.5997,-4.511,-4.4348,-4.4067,-4.5668,-4.6644,-4.7439,-4.8538,-4.987,-5.0891,-5.0346,-5.0718,-5.1286,-5.1245,-5.0005,-4.8989,-4.9757,-4.8673,-4.7549,-4.7642,-4.9483,-5.0381,-4.8228,-4.9528,-5.0842,-5.0789,-5.0215,-4.9976,-5.0526,-5.012,-4.9769,-4.9744,-4.9687,-4.993,-5.0674,-5.0635,-5.0532,-5.049,-5.0353,-5.0153,-4.9959,-4.9906,-5.0675,-5.2343,-5.3366,-5.5299,-5.8331,-5.8445,-5.8938,-5.9734,-5.9734,-5.9772,-5.9885,-5.9434,-5.8988,-5.8586,-5.8545,-5.8097,-5.7384,-5.7679,-5.7619,-5.7333,-5.7224,-5.7188,-5.7224,-5.7333,-5.7978,-5.8769,0.0,0.0,0.0,0.0,0.0,0.0,0.0,0.0,0.0,0.0,-4.1108,-4.1108,0.0,0.0,0.0,0.0,0.0,0.0,0.0,0.0,0.0,-4.103,-4.1108,-4.142,-4.2162,-4.1303,-4.0717,-4.0327,-3.9312,-3.9041,-3.9474,-3.9903,-4.0096,-4.0174,-4.154,-4.2165,-4.2165,-4.2165,-4.3027,-4.4357,-4.3883,-4.4585,-4.5913,-4.6189,0.0,0.0,-4.63,-4.5831,-4.5207,-4.5024,-4.4844,-4.4852,-4.5825,-4.6185,-4.6688,-4.9021,-4.9897,-5.0268,-5.0891,-5.123,-5.1199,-5.0506,-4.957,-4.8827,-4.8977,-4.8233,-4.7681,-4.8443,-4.8926,-4.9324,-4.9614,-4.9427,-4.9196,-4.9137,-4.9036,-4.8787,-4.8193,-4.8669,-4.9019,-4.8902,-4.8839,-4.8837,-4.8948,-4.8894,-4.9032,-4.945,-4.9447,-4.9609,-5.0125,-4.9986,-5.0675,-5.2343,-5.3897,-5.5337,-5.6626,-5.727,-5.8066,-5.89,-5.89,-5.9241,-5.9885,-5.9434,-5.8988,-5.8586,-5.8201,-5.8103,-5.813,-5.7543,-5.7688,-5.813,-5.7442,-5.7188,-5.7261,-5.805,-5.8878,-5.9729,0.0,0.0,0.0,0.0,0.0,0.0,0.0,-4.1348,-4.1147,-4.2903,-4.2357,-4.1615,-4.1147,-4.1108,-4.1108,0.0,0.0,0.0,0.0,0.0,0.0,-4.1069,-4.1108,-4.1069,-4.1069,-4.0639,-4.0444,-4.0522,0.0,-3.9702,-4.0561,-4.0522,-4.0522,-4.0561,-4.1342,-4.1732,-4.1735,-4.1732,-4.224,-4.306,-4.3528,-4.4504,-4.5753,-4.6651,0.0,0.0,-4.712,-4.6729,-4.63,-4.5831,-4.5933,-4.6321,-4.6697,-4.6794,-4.7241,-4.981,-5.0568,-5.0664,-5.1156,-5.099,-5.0568,-5.0191,-4.9101,-4.8359,-4.9258,-4.8789,-4.8437,-4.9291,-4.949,-4.9061,-4.7637,-4.7799,-4.7801,-4.6889,-4.7145,-4.7431,-4.747,-4.7429,-4.7601,-4.8047,-4.7957,-4.8048,-4.8512,-4.8484,-4.8436,-4.8527,-4.8506,-4.8974,-4.9987,-5.0388,-5.113,-5.2381,-5.3631,-5.4882,-5.6171,-5.6588,-5.7422,-5.871,-5.871,-5.8992,-5.9505,-5.9103,-5.8669,-5.8201,-5.7978,-5.7861,-5.7732,-5.7631,-5.7655,-5.7732,-5.7333,-5.7239,-5.7397,-5.8246,-5.9197,-6.0199,0.0,0.0,0.0,0.0,0.0,0.0,0.0,-4.2092,-4.1967,-4.4387,-4.3372,-4.2123,-4.1459,-4.1381,-4.13,0.0,0.0,0.0,0.0,0.0,0.0,0.0,0.0,0.0,-3.9819,0.0,0.0,-4.0561,-3.9897,0.0,0.0,0.0,0.0,0.0,-4.103,-4.1108,-4.1108,-4.1108,-4.1498,0.0,0.0,-4.4621,-4.6144,0.0,0.0,0.0,0.0,-4.7744,-4.751,-4.6807,-4.6866,-4.7266,-4.7422,-4.7705,-4.8382,-5.075,-5.1337,-5.1211,-5.1265,-5.079,-5.0246,-5.0148,-4.8945,-4.8203,-4.9763,-4.9294,-4.8826,-4.9882,-4.9804,-4.875,-4.62,-4.671,-4.71,-4.5913,-4.6284,-4.6911,-4.7328,-4.6783,-4.6566,-4.7123,-4.7203,-4.7502,-4.8241,-4.8368,-4.8321,-4.8181,-4.829,-4.8686,-4.9603,-5.0448,-5.1395,-5.2381,-5.3252,-5.4427,-5.5906,-5.5844,-5.6601,-5.8142,-5.8078,-5.8333,-5.8915,-5.853,-5.8147,-5.7923,-5.7784,-5.7546,-5.7239,-5.7594,-5.7546,-5.7188,-5.7188,-5.7289,-5.7497,-5.8565,-5.9443,-6.0433,0.0,0.0,0.0,0.0,0.0,0.0,0.0,-4.1699,-4.1765,-4.3567,-4.2982,-4.2357,-4.2279,-4.2279,-4.1952,0.0,0.0,0.0,0.0,0.0,0.0,0.0,0.0,0.0,0.0,0.0,0.0,-3.8846,-3.8768,0.0,0.0,0.0,0.0,0.0,0.0,-4.1108,-4.1108,-4.1108,0.0,0.0,0.0,0.0,0.0,0.0,0.0,0.0,0.0,-4.8213,-4.7588,-4.751,-4.6944,-4.6445,-4.7265,-4.849,-5.0026,-5.1753,-5.1758,-5.1197,-5.1295,-5.125,-5.0998,-5.0274,-4.9387,-4.8922,-4.9895,-4.8816,-4.8085,-4.9763,-4.8824,-4.7881,-4.8365,-4.791,-4.7684,-4.8255,-4.8415,-4.8205,-4.74,-4.7256,-4.6952,-4.6319,-4.6795,-4.7216,-4.7308,-4.7966,-4.8591,-4.9064,-4.9453,-4.944,-4.8818,-4.9576,-5.0751,-5.2343,-5.3252,-5.4124,-5.4996,-5.4646,-5.5136,-5.6436,-5.6003,-5.6622,-5.809,-5.7633,-5.7629,-5.7877,-5.7449,-5.7239,-5.7188,-5.7239,-5.7239,-5.7188,-5.7188,-5.7289,-5.7569,-5.9247,-6.0017,-6.0506,0.0,0.0,0.0,0.0,0.0,0.0,-4.2968,-4.1587,-4.1569,-4.4852,-4.3576,-4.2759,-4.3723,-4.3918,-4.317,-4.1241,0.0,0.0,0.0,0.0,0.0,0.0,0.0,0.0,0.0,0.0,-4.0652,-4.0873,-4.0301,0.0,0.0,0.0,0.0,0.0,0.0,-4.1108,-4.1108,-4.1108,0.0,0.0,0.0,0.0,0.0,0.0,0.0,0.0,0.0,0.0,-4.8954,-4.7939,-4.7676,-4.7844,-4.8164,-4.9096,-5.0129,-5.0777,-5.1094,-5.1281,-5.1336,-5.0979,-5.0355,-4.9532,-4.9072,-4.8876,-4.9228,-4.9207,-4.9414,-5.0621,-4.9514,-4.8248,-4.8053,-4.7299,-4.7002,-4.7854,-4.7908,-4.7912,-4.8063,-4.8021,-4.7671,-4.6844,-4.7463,-4.7927,-4.799,-4.8121,-4.8238,-4.8302,-4.8365,-4.8477,-4.8666,-5.041,-5.1698,-5.2381,-5.3707,-5.4579,-5.492,-5.45,-5.4815,-5.5777,-5.5357,-5.588,-5.7237,-5.7026,-5.7116,-5.7449,-5.7289,-5.7188,-5.7188,-5.7289,-5.7289,-5.7338,-5.7388,-5.7813,-5.8507,-5.9688,-6.0676,-6.1698,0.0,0.0,0.0,0.0,0.0,-4.168,-4.3086,-4.1792,-4.1816,-4.509,-4.393,-4.3232,-4.4348,-4.4543,-4.3879,-4.2045,-4.1615,0.0,0.0,0.0,0.0,0.0,0.0,0.0,0.0,0.0,-4.1501,-4.1597,-4.1674,-4.1953,0.0,0.0,-4.1683,-4.1498,0.0,0.0,0.0,0.0,0.0,0.0,0.0,0.0,0.0,0.0,0.0,0.0,0.0,0.0,0.0,0.0,0.0,-4.845,-4.8433,-4.9021,-4.9843,-5.0568,-5.1011,-5.1352,-5.1683,-5.1132,-5.026,-4.9419,-4.9196,-4.9163,-4.9163,-4.9451,-5.0036,-5.116,-5.0,-4.8599,-4.8015,-4.7379,-4.7162,-4.778,-4.7954,-4.8244,-4.8866,-4.8877,-4.8469,-4.7657,-4.8245,-4.8717,-4.8755,-4.8739,-4.8659,-4.8457,-4.8264,-4.8401,-4.9007,-5.1168,-5.2419,-5.2419,-5.3694,-5.4465,-5.473,-5.4193,-5.4278,-5.4947,-5.4576,-5.4917,-5.5978,-5.6235,-5.651,-5.6862,-5.708,-5.7239,-5.7239,-5.7338,-5.7437,-5.7437,-5.7534,-5.8044,-5.8761,-5.9566,-6.0672,-6.1945,0.0,0.0,0.0,0.0,0.0,0.0,-4.2305,-4.2383,-4.2694,-4.3609,-4.3696,-4.3698,-4.3723,-4.372,-4.3681,-4.3681,-4.2864,0.0,0.0,0.0,0.0,0.0,0.0,0.0,0.0,0.0,-4.1519,-3.9747,-4.2241,-4.3059,-4.2325,-4.3098,-4.3089,-4.2396,0.0,0.0,0.0,0.0,0.0,0.0,0.0,0.0,0.0,0.0,0.0,0.0,0.0,0.0,0.0,0.0,0.0,0.0,0.0,-4.8174,-4.9322,-5.1821,-5.196,-5.1492,-5.2355,-5.2003,-5.118,-5.0321,-5.0105,-5.0076,-5.0076,-4.9443,-4.9289,-5.0967,-4.9958,-4.8787,-4.8787,-4.8787,-4.8733,-4.869,-4.9293,-4.978,-4.9795,-4.9713,-4.9359,-4.8508,-4.8977,-4.9391,-4.9391,-4.9882,-5.0188,-5.0149,-5.0012,-4.9879,-4.9879,-5.1471,-5.2419,-5.2419,-5.2881,-5.3508,-5.4296,-5.3526,-5.3326,-5.3683,-5.3326,-5.3518,-5.4363,-5.5126,-5.5706,-5.6066,-5.6862,-5.7289,-5.7388,-5.7388,-5.7486,-5.7583,-5.7583,-5.7715,-5.792,-5.8725,-5.9626,-6.0735,0.0,0.0,0.0,0.0,0.0,0.0,0.0,-4.0586,-4.0742,-4.3357,-4.2182,-4.1986,-4.4333,-4.4594,-4.4351,-4.3737,-4.3456,0.0,0.0,0.0,0.0,0.0,0.0,0.0,0.0,0.0,-4.1774,-4.2416,-4.2616,-4.2864,-4.3182,-4.341,-4.3072,-4.2348,-4.2894,-4.3032,0.0,0.0,0.0,0.0,0.0,0.0,-4.9891,0.0,0.0,0.0,0.0,0.0,0.0,0.0,0.0,0.0,0.0,0.0,0.0,-4.9756,-5.1054,-5.1873,-5.039,-5.1093,-5.1753,-4.9726,-5.0117,-5.0818,-5.0232,-5.0292,-5.0655,-5.1201,-5.0387,-4.9449,-4.8904,-4.8319,-4.828,-4.9395,-4.9609,-4.9899,-5.0584,-5.0999,-5.0678,-4.9251,-4.9663,-5.0023,-4.9953,-5.0107,-5.0139,-5.0012,-4.9933,-4.9797,-4.9566,-5.0583,-5.145,-5.1977,-5.324,-5.3896,-5.387,-5.3367,-5.3162,-5.3285,-5.2857,-5.3108,-5.3908,-5.4745,-5.5414,-5.6029,-5.6962,-5.7338,-5.7388,-5.7583,-5.7679,-5.7763,-5.7857,-5.8234,-5.8794,-5.9003,-6.0241,-6.1789,0.0,0.0,0.0,0.0,0.0,0.0,0.0,-4.0273,-4.0351,-4.2461,-4.1366,-4.1444,-4.4219,-4.4527,-4.456,-4.4681,-4.4669,0.0,0.0,0.0,0.0,0.0,0.0,0.0,-4.06,-4.1198,-4.1891,-4.2685,-4.3013,-4.3444,-4.4028,-4.4267,-4.3955,-4.321,-4.3746,-4.3857,0.0,0.0,0.0,0.0,0.0,0.0,-5.0204,0.0,0.0,0.0,0.0,0.0,0.0,0.0,0.0,0.0,0.0,0.0,0.0,0.0,-5.0083,-5.1737,-5.0214,-5.093,-5.1756,-5.0188,-5.0574,-5.1232,-5.0683,-5.0933,-5.1284,-5.1218,-5.0789,-5.0121,-4.9225,-4.8642,-4.8642,-4.9642,-4.9653,-4.9784,-5.0361,-5.0731,-5.0375,-4.8932,-4.9405,-4.9809,-4.9657,-4.9796,-4.9852,-4.9712,-4.986,-4.9859,-4.9636,-5.0688,-5.1442,-5.1785,-5.279,-5.3423,-5.345,-5.3078,-5.2857,-5.2857,-5.2618,-5.277,-5.3277,-5.4399,-5.516,-5.5631,-5.6866,-5.7437,0.0,-5.7679,-5.7857,-5.7904,-5.795,-5.8327,-5.8767,-5.8767,-5.9762,-6.118,0.0,0.0,0.0,0.0,0.0,0.0,0.0,-4.1133,-4.1133,-4.1289,-4.125,-4.1836,-4.3516,-4.375,-4.4453,-4.6088,0.0,0.0,0.0,0.0,0.0,0.0,0.0,0.0,-3.9897,-4.1498,-4.1987,-4.1273,-4.3527,-4.4647,-4.4725,-4.5454,-4.5376,-4.4616,-4.4798,-4.4448,0.0,0.0,0.0,0.0,-4.8486,-4.9345,0.0,0.0,0.0,0.0,0.0,0.0,0.0,0.0,0.0,0.0,0.0,0.0,0.0,0.0,0.0,0.0,0.0,-5.1327,-5.1375,-5.1235,-5.1258,-5.1269,-5.1269,-5.1271,0.0,-5.1097,-5.1035,-5.0675,-4.9683,-4.9475,-4.9436,-4.9498,-4.9457,-4.9444,-4.9409,-4.9279,-4.8851,-4.7983,-4.8433,-4.8795,-4.8818,-4.9152,-4.9384,-4.9459,-4.9843,-5.008,-5.0007,-5.1491,-5.2153,-5.1784,-5.182,-5.2223,-5.3036,-5.2672,-5.248,-5.248,-5.248,-5.248,-5.2552,-5.4182,-5.4907,-5.4979,-5.6685,-5.7486,-5.7631,-5.7763,-5.7904,-5.7997,-5.7997,-5.7997,-5.7997,-5.7997,-5.851,-5.9318,0.0,0.0,0.0,0.0,0.0,0.0,0.0,0.0,0.0,0.0,-4.1562,-4.1836,-4.3516,-4.4297,-4.4844,0.0,0.0,0.0,0.0,0.0,0.0,0.0,0.0,0.0,-4.0792,-4.1186,-4.2275,-4.4059,-4.4631,-4.4851,-4.4725,-4.5509,-4.5374,-4.4537,-4.526,-4.5541,0.0,0.0,0.0,0.0,-4.872,-4.9735,0.0,0.0,0.0,0.0,-5.1414,-5.1313,0.0,0.0,0.0,0.0,0.0,0.0,0.0,0.0,-4.9019,-4.9964,-4.9925,0.0,-5.1018,-4.9724,-5.0291,-5.1152,0.0,-5.1035,-5.0893,-5.0903,-5.0385,-4.9868,-4.9537,-4.84,-4.7975,-4.9273,-4.9335,-4.9221,-4.9371,-4.8721,-4.8575,-4.9595,-4.8365,-4.8145,-4.9988,-4.9412,-4.9179,-4.9812,-5.0523,-5.075,-5.0444,-5.14,-5.1784,-5.1427,-5.2045,-5.2445,-5.2663,-5.2526,-5.248,-5.248,-5.248,-5.248,-5.2552,-5.4205,-5.4978,-5.5087,-5.689,-5.7726,-5.7726,-5.7904,-5.7997,-5.7997,-5.7997,-5.7997,-5.7997,-5.7997,-5.851,-5.9245,0.0,0.0,0.0,0.0,0.0,0.0,0.0,0.0,0.0,0.0,0.0,0.0,0.0,0.0,0.0,0.0,0.0,0.0,0.0,0.0,0.0,0.0,0.0,-4.1077,-4.1108,-4.1498,-4.2786,-4.5012,-4.4953,-4.5066,-4.5335,-4.5703,-4.557,-4.5104,-4.5568,-4.5879,0.0,0.0,0.0,-4.8728,-4.8337,0.0,0.0,0.0,0.0,0.0,-5.1211,-5.1178,0.0,-5.1663,-5.2074,-5.2222,0.0,0.0,0.0,0.0,-4.9219,-4.9412,-4.9057,-5.03,-5.147,-5.0553,-5.0661,-5.0959,-5.0959,-5.0284,-4.9629,-4.9572,-4.9208,-4.8998,-4.9278,-4.8202,-4.7875,-4.9567,-4.9447,-4.9204,-4.9488,-4.87,-4.8353,-4.9067,-4.8445,-4.8309,-4.9182,-4.8887,-4.8937,-4.964,-5.0335,-5.0758,-5.0915,-5.1675,-5.2061,-5.1828,-5.2263,-5.248,-5.248,-5.248,-5.248,-5.248,-5.248,-5.248,-5.2516,-5.3852,-5.4662,-5.5062,-5.6619,-5.7444,-5.781,-5.795,-5.7997,-5.7997,-5.7997,-5.7997,-5.7997,-5.7997,-5.829,-5.8657,0.0,0.0,0.0,0.0,0.0,0.0,0.0,0.0,0.0,0.0,0.0,0.0,0.0,0.0,0.0,0.0,0.0,0.0,0.0,0.0,0.0,0.0,0.0,-4.2064,-4.1311,-4.2162,-4.3447,-4.5207,-4.5201,-4.5676,-4.6488,-4.6457,-4.6317,-4.6158,-4.6172,-4.6061,-4.5936,0.0,-4.7651,-4.8577,-4.7564,0.0,0.0,0.0,0.0,0.0,0.0,0.0,0.0,-5.1501,-5.1955,-5.2201,-5.1903,0.0,0.0,0.0,0.0,0.0,-4.9097,-5.046,-5.1983,-5.1763,-5.1299,-5.0913,-5.0642,-4.9467,-4.8337,-4.8125,-4.8049,-4.826,-4.8952,-4.8487,-4.8503,-5.003,-4.9549,-4.9124,-4.9494,-4.8673,-4.8047,-4.8002,-4.8385,-4.8468,-4.8032,-4.8199,-4.8563,-4.9292,-4.9907,-5.056,-5.1249,-5.2045,-5.248,-5.248,-5.248,-5.248,-5.248,-5.248,-5.248,-5.248,-5.248,-5.248,-5.2516,-5.3525,-5.4418,-5.5109,-5.6291,-5.7235,-5.7857,-5.795,-5.7997,-5.7997,-5.7997,-5.7997,-5.7997,-5.7997,-5.7997,-5.7997,0.0,0.0,0.0,0.0,0.0,0.0,0.0,0.0,0.0,0.0,0.0,0.0,0.0,0.0,0.0,0.0,0.0,0.0,0.0,0.0,0.0,0.0,-4.2383,-4.2343,-4.2187,-4.3034,-4.4348,-4.6105,-4.68,-4.7557,-4.8327,-4.8904,-4.8681,-4.7756,-4.7851,-4.7115,-4.5841,-4.603,-4.7056,-4.8399,-4.6766,0.0,0.0,0.0,0.0,0.0,0.0,0.0,0.0,-4.9237,-5.0416,-5.178,-5.0387,0.0,0.0,0.0,0.0,0.0,-5.1752,-5.1928,-5.1404,-5.019,-5.0773,-5.128,-4.9855,-4.9239,-4.875,-4.8018,-4.7843,-4.8111,-4.8968,-4.8961,-4.9105,-5.0059,-4.929,-4.864,-4.8753,-4.7787,-4.7515,-4.8808,-4.7578,-4.7379,-4.9196,-4.8519,-4.8234,-4.8908,-5.0315,-5.1176,-5.1285,-5.2045,-5.248,-5.248,-5.248,-5.248,-5.248,-5.248,-5.248,-5.248,-5.248,-5.248,-5.2552,-5.4236,-5.502,-5.5285,-5.7015,-5.784,-5.7997,-5.7997,-5.7997,-5.7997,-5.7997,-5.7997,-5.7997,-5.7997,-5.7997,-5.7997,0.0,0.0,0.0,0.0,0.0,0.0,0.0,0.0,0.0,0.0,0.0,0.0,0.0,0.0,0.0,0.0,0.0,0.0,0.0,0.0,0.0,0.0,-4.4258,-4.4062,-4.3125,-4.4411,-4.6161,-4.833,-4.8677,-4.9262,-5.0065,-4.978,-4.9366,-4.8779,-4.8369,-4.7516,-4.6414,-4.6437,-4.695,-4.7611,0.0,0.0,0.0,0.0,0.0,0.0,0.0,0.0,0.0,0.0,-5.0284,-5.1799,-5.0972,0.0,0.0,0.0,0.0,0.0,-5.1238,-5.1505,-5.1247,-4.9662,-5.0504,-5.1245,-4.9559,-4.8805,-4.8296,-4.7876,-4.7799,-4.8067,-4.8945,-4.9075,-4.9143,-4.9277,-4.9261,-4.9221,-4.9346,-4.8856,-4.8766,-4.9377,-4.8569,-4.8273,-4.8859,-4.8367,-4.8352,-4.8986,-5.0069,-5.0903,-5.1249,-5.2045,-5.248,-5.248,-5.248,-5.248,-5.248,-5.248,-5.248,-5.248,-5.248,-5.278,-5.3308,-5.4136,-5.5076,-5.6045,-5.6951,-5.7593,-5.7997,-5.7997,-5.7997,-5.7997,-5.7997,-5.7997,-5.8033,-5.851,-5.8657,-5.8657,0.0,0.0,0.0,0.0,0.0,0.0,0.0,0.0,0.0,0.0,0.0,0.0,0.0,0.0,0.0,0.0,0.0,0.0,0.0,0.0,-4.6016,-4.5312,-4.6133,-4.5898,-4.4336,-4.6009,-4.7943,-5.0059,-5.0369,-5.1045,-5.2007,-5.097,-5.0306,-4.9933,-4.9086,-4.8125,-4.7163,-4.6971,-4.7058,-4.7264,0.0,0.0,0.0,0.0,0.0,0.0,0.0,0.0,0.0,0.0,0.0,0.0,0.0,0.0,0.0,-5.2103,-5.1123,-5.0397,-5.0779,-5.0818,-5.0512,-4.9595,-5.0359,-5.0818,-4.8907,-4.7952,-4.7455,-4.7264,-4.7379,-4.7837,-4.8907,-4.9358,-4.9504,-4.938,-4.9485,-4.9619,-4.9703,-4.9638,-4.9529,-4.9299,-4.9297,-4.9001,-4.826,-4.8187,-4.8364,-4.8821,-4.9725,-5.0482,-5.1048,-5.2028,-5.2572,-5.2572,-5.2572,-5.2572,-5.2572,-5.2526,-5.2526,-5.2526,-5.2526,-5.3053,-5.3908,-5.4191,-5.5158,-5.6649,-5.696,-5.7446,-5.7997,-5.7997,-5.7997,-5.7997,-5.7997,-5.8107,-5.84,-5.9208,-5.9501,-5.9501,0.0,0.0,0.0,0.0,0.0,0.0,0.0,0.0,0.0,0.0,0.0,0.0,0.0,0.0,0.0,0.0,0.0,0.0,0.0,0.0,-4.6289,-4.6211,-4.7031,-4.707,-4.6133,-4.7834,-4.9119,-4.9897,-5.1522,-5.3028,-5.4442,-5.3553,-5.264,-5.1702,-5.0856,-4.9586,-4.7971,-4.724,-4.7317,-4.7951,-4.7142,0.0,0.0,0.0,0.0,0.0,0.0,0.0,0.0,0.0,0.0,0.0,0.0,0.0,-5.2877,-5.2752,-5.1582,-5.0627,-5.2193,-5.0397,-4.8411,-4.9862,-5.0283,-4.9748,-4.7264,-4.6653,-4.6385,-4.5621,-4.608,-4.7111,-4.8793,-5.0114,-5.1102,-5.15,-5.0123,-4.8956,-4.889,-4.8606,-4.8418,-4.8416,-4.8379,-4.8341,-4.8187,-4.8187,-4.8184,-4.8101,-4.9523,-5.0393,-5.0466,-5.1923,-5.2761,-5.2761,-5.2761,-5.2761,-5.2761,-5.2635,-5.259,-5.259,-5.259,-5.3072,-5.4009,-5.4911,-5.5761,-5.6685,-5.7547,-5.796,-5.7997,-5.7997,-5.7997,-5.7997,-5.7997,-5.8474,-5.9208,-6.0015,-6.0309,-6.0309,0.0,0.0,0.0,0.0,0.0,0.0,0.0,0.0,0.0,0.0,0.0,0.0,0.0,0.0,0.0,0.0,0.0,0.0,0.0,0.0,-4.6289,-4.6289,-4.7567,-4.7903,-4.7123,-4.9265,-5.1296,-5.3186,-5.3685,-5.3877,-5.3819,-5.2988,-5.2355,-5.1934,-5.1087,-5.0048,-4.8894,-4.8586,-4.8317,-4.8086,-4.7778,-4.8355,0.0,0.0,0.0,0.0,0.0,0.0,0.0,0.0,-4.7529,-4.9317,-4.9027,-5.0462,-5.2104,-5.1499,-5.0459,-4.9671,-5.0321,-4.9557,-4.864,-4.8716,-4.9137,-4.9022,-4.6959,-4.7341,-4.8181,-4.8372,-4.7837,-4.7732,-4.9239,-4.9098,-4.8994,-4.9795,-4.9328,-4.8746,-4.8532,-4.8382,-4.8306,-4.8306,-4.8306,-4.8267,-4.8267,-4.8229,-4.819,-4.8148,-4.9647,-5.0519,-5.0399,-5.193,-5.2806,-5.2806,-5.2806,-5.2806,-5.2806,-5.2761,-5.29,-5.3166,-5.3041,-5.3646,-5.4911,-5.5478,-5.6541,-5.7882,-5.7949,-5.8142,-5.8369,-5.8097,-5.7997,-5.8033,-5.8547,-5.9245,-6.0052,-6.086,-6.1153,-6.1153,0.0,0.0,0.0,0.0,0.0,0.0,0.0,0.0,0.0,0.0,0.0,0.0,0.0,0.0,0.0,0.0,0.0,0.0,0.0,-4.5391,-4.6127,-4.6665,-4.7971,-4.8833,-4.9131,-5.0786,-5.2361,-5.3902,-5.4178,-5.41,-5.3705,-5.2625,-5.2221,-5.2338,-5.1221,-5.0547,-5.022,-4.9663,-4.9067,-4.8528,-4.8509,-4.8856,0.0,0.0,0.0,0.0,0.0,0.0,0.0,0.0,-4.7163,-4.8644,-4.8779,-5.0005,-5.1327,-5.0916,-5.0412,-4.9816,-4.928,-4.8914,-4.8586,-4.7974,-4.8051,-4.7974,-4.6789,-4.7439,-4.8417,-4.8684,-4.8684,-4.8738,-4.9191,-4.8758,-4.8491,-4.9006,-4.8604,-4.8273,-4.8307,-4.8306,-4.8306,-4.8306,-4.8306,-4.8306,-4.8306,-4.8306,-4.8267,-4.8226,-4.9728,-5.0602,-5.0519,-5.2053,-5.293,-5.293,-5.293,-5.298,-5.3072,-5.3072,-5.3396,-5.4131,-5.4093,-5.4682,-5.5845,-5.6392,-5.7407,-5.8791,-5.8369,-5.8326,-5.8545,-5.8186,-5.8143,-5.8474,-5.9538,-6.0309,-6.0896,-6.1667,-6.1998,-6.1998,0.0,0.0,0.0,0.0,0.0,0.0,0.0,0.0,-4.6289,-4.6289,-4.6289,0.0,0.0,0.0,0.0,0.0,0.0,0.0,-4.3711,-4.4492,-4.5728,-4.7418,-4.8253,-4.9869,-5.2392,-5.2337,-5.1896,-5.109,-5.2584,-5.3705,-5.4554,-5.2857,-5.2509,-5.3204,-5.1545,-5.1275,-5.1969,-5.0218,-4.9507,-4.9507,-4.9452,-4.9433,-4.951,0.0,0.0,0.0,0.0,0.0,0.0,0.0,-4.6932,-4.7337,-4.9797,-5.0584,-5.0717,-5.1459,-5.1727,-5.1382,-4.9656,-4.8541,-4.7886,-4.7886,-4.7274,-4.6623,-4.6623,-4.6623,-4.6414,-4.5592,-4.8081,-4.9945,-4.8399,-4.9476,-5.038,-4.9709,-4.8196,-4.7425,-4.8196,-4.8306,-4.8306,-4.8306,-4.8306,-4.8306,-4.8306,-4.8306,-4.8306,-4.8343,-4.9884,-5.0839,-5.0802,-5.2344,-5.3225,-5.3225,-5.3225,-5.3359,-5.372,-5.3567,-5.4168,-5.5532,-5.5799,-5.622,-5.6737,-5.7636,-5.8463,-5.9178,-5.8791,-5.8628,-5.8586,-5.8186,-5.8474,-5.9391,-6.097,-6.1594,-6.1704,-6.2511,-6.2805,-6.2805,0.0,0.0,0.0,0.0,0.0,0.0,0.0,0.0,-4.6289,-4.6289,-4.6289,0.0,0.0,0.0,0.0,0.0,0.0,0.0,-4.3672,-4.3935,-4.4544,-4.5617,-4.7573,-4.8732,-4.8964,-5.0101,-5.1083,-5.1857,-5.1829,-5.1868,-5.1979,-5.0974,-5.088,-5.1597,-5.1095,-5.1001,-5.1159,-5.0565,-5.0354,-5.0393,-5.0952,-5.0818,-5.0394,0.0,0.0,0.0,0.0,0.0,0.0,0.0,0.0,0.0,-4.7952,-4.9182,-5.0392,-4.9411,-4.9506,-4.958,-4.7893,-4.8081,-4.846,-4.7315,-4.8175,-4.8979,-4.7836,-4.8008,-4.8332,-4.8123,-4.935,-5.0252,-4.95,-4.9126,-4.9352,-5.0565,-4.9711,-4.893,-4.9187,-4.9187,-4.8967,-4.8379,-4.8306,-4.8565,-4.9229,-4.9226,-4.9522,-5.0228,-5.1698,-5.2357,-5.1731,-5.3277,-5.3897,-5.3225,-5.3225,-5.3654,-5.4613,-5.4574,-5.5286,-5.6765,-5.7472,-5.772,-5.7636,-5.8106,-5.8812,-5.9605,-5.9215,-5.9178,-5.9434,-5.9343,-5.9745,-6.0633,-6.1334,-6.2166,-6.2965,-6.2843,-6.2805,-6.2805,0.0,0.0,0.0,0.0,0.0,0.0,-4.6172,-4.6289,-4.6285,-4.627,-4.6259,-4.6215,0.0,0.0,0.0,-4.5429,-4.4219,-4.3509,-4.3685,-4.4023,-4.4395,-4.4816,-4.7221,-4.8655,-4.8848,-4.9575,-5.0403,-5.1238,-5.1183,-5.1067,-5.0906,-5.0465,-5.0835,-5.1918,-5.1918,-5.1901,-5.1868,-5.1797,-5.1586,-5.1298,-5.1722,-5.1625,-5.1241,0.0,0.0,0.0,0.0,0.0,0.0,0.0,0.0,0.0,-4.7548,-4.8414,-4.9451,-4.8779,-4.9144,-4.9642,-4.8931,-4.9426,-4.998,-4.8966,-4.9329,-4.981,-4.9221,-4.8913,-4.8759,-4.8759,-4.9698,-5.0342,-4.9594,-4.958,-4.9909,-5.0706,-5.0377,-5.0068,-5.0068,-5.0068,-4.9884,-4.937,-4.9336,-4.9559,-5.0115,-5.0188,-5.0448,-5.1043,-5.2259,-5.2736,-5.222,-5.3396,-5.4022,-5.3961,-5.392,-5.4533,-5.5915,-5.5915,-5.6606,-5.8014,-5.8547,-5.8843,-5.8949,-5.9178,-5.9574,-6.0038,-5.9605,-5.9502,-5.9613,-6.0262,-6.0845,-6.14,-6.2114,-6.2854,-6.3445,-6.2965,-6.2805,-6.2805,0.0,0.0,0.0,0.0,0.0,0.0,-4.6172,-4.6289,-4.6264,-4.619,-4.6201,-4.6177,0.0,0.0,0.0,-4.6207,-4.5469,-4.4649,-4.3866,-4.4418,-4.4781,-4.4814,-4.7197,-4.9281,-5.1014,-5.0279,-4.9838,-4.9676,-5.0418,-5.0743,-5.0674,-5.0751,-5.1679,-5.3265,-5.3343,-5.3343,-5.3249,-5.3103,-5.2548,-5.1758,-5.178,-5.1741,-5.1702,-5.1779,0.0,0.0,0.0,0.0,0.0,0.0,0.0,0.0,-4.8125,-4.8163,-4.8355,-4.8971,-4.9817,-5.0702,-5.1296,-5.1659,-5.1851,-5.1557,-5.0389,-4.9528,-5.0394,-4.9433,-4.8355,-4.8432,-4.9586,-5.0291,-4.922,-5.0572,-5.1474,-5.0477,-5.0637,-5.0912,-5.0912,-5.0912,-5.0875,-5.0802,-5.0885,-5.0925,-5.1038,-5.1189,-5.1377,-5.1451,-5.219,-5.2594,-5.252,-5.3138,-5.4001,-5.5062,-5.5097,-5.5845,-5.7384,-5.7415,-5.8022,-5.9224,-5.9224,-5.9644,-6.0408,-6.0408,-6.0408,-6.037,-6.0,-5.9643,-5.9477,-6.1093,-6.1769,-6.1956,-6.3121,-6.358,-6.358,-6.3062,-6.2855,-6.2855,0.0,0.0,0.0,0.0,0.0,0.0,-4.6249,-4.625,-4.6225,-4.619,-4.6201,-4.6151,-4.6048,-4.6125,0.0,-4.6131,-4.5419,-4.4922,-4.4744,-4.4186,-4.4136,-4.4756,-4.7168,-4.9586,-5.1952,-5.0622,-4.9528,-4.8778,-4.8382,-4.8498,-4.9025,-4.973,-5.0542,-5.1486,-5.2182,-5.2089,-5.1399,-5.0653,-4.983,-4.9139,-5.0433,-5.0548,-5.001,-5.0702,-5.0741,0.0,0.0,0.0,0.0,0.0,0.0,0.0,-4.8317,-4.8586,-4.8894,-4.7778,-4.8509,-4.9548,-4.9029,-5.0335,-5.1506,-5.024,-4.9644,-4.9413,-4.9625,-4.9933,-5.0317,-5.0971,-5.0875,-5.0717,-5.0846,-5.0995,-5.1337,-5.1966,-5.1933,-5.1805,-5.172,-5.172,-5.154,-5.0959,-5.0888,-5.1224,-5.2007,-5.2634,-5.3302,-5.4088,-5.4785,-5.4847,-5.4219,-5.4875,-5.518,-5.4981,-5.5577,-5.6669,-5.8229,-5.8293,-5.8935,-6.0102,-6.0102,-6.0217,-6.0408,-6.0408,-6.0408,-6.0408,-6.0313,-6.0411,-6.0694,-6.1719,-6.2586,-6.3232,-6.3761,-6.4214,-6.4407,-6.3668,-6.3354,-6.3299,0.0,0.0,0.0,0.0,0.0,0.0,0.0,0.0,-4.6703,-4.6231,-4.6164,-4.6085,-4.593,-4.6046,0.0,0.0,-4.5799,-4.5447,-4.4997,-4.4849,-4.5309,-4.6457,-4.8183,-4.9906,-5.1606,-5.009,-4.9025,-4.8561,-4.7323,-4.7091,-4.7865,-4.874,-4.9784,-5.0945,-5.1796,-5.1741,-5.088,-5.0328,-4.983,-4.9468,-5.0337,-5.0433,-5.0048,-5.051,-5.0164,-4.9394,-4.8933,0.0,0.0,0.0,0.0,0.0,0.0,0.0,-4.8625,-4.774,-4.8086,-4.8933,-4.9663,-5.0855,-5.1662,-5.0798,-5.0317,-5.001,-5.001,-5.0356,-5.0818,-5.1241,-5.1318,-5.1355,-5.1568,-5.1851,-5.222,-5.2832,-5.2865,-5.2773,-5.2729,-5.2729,-5.2585,-5.2183,-5.2518,-5.3003,-5.3565,-5.4343,-5.4902,-5.4941,-5.5151,-5.5225,-5.4941,-5.5192,-5.5723,-5.6593,-5.6967,-5.7893,-5.9368,-5.9399,-5.9778,-6.0408,-6.0408,-6.0408,-6.0408,-6.0408,-6.0408,-6.0408,-6.0408,-6.0514,-6.0822,-6.2046,-6.2877,-6.334,-6.414,-6.4557,-6.4704,-6.4053,-6.3803,-6.3718,0.0,0.0,0.0,0.0,0.0,0.0,0.0,0.0,0.0,-4.619,-4.6091,-4.5969,-4.5645,-4.5775,-4.5764,0.0,0.0,0.0,-4.4929,-4.5757,-4.6989,-4.8561,-4.9382,-5.0117,-5.0906,-4.9359,-4.8469,-4.8353,-4.677,-4.6383,-4.7115,-4.8213,-4.9475,-5.0945,-5.1641,-5.1493,-5.0632,-5.0289,-5.0005,-4.9835,-4.999,-5.0048,-5.0048,-5.0048,-4.924,-4.8086,-4.7932,-4.8432,-4.9202,-4.9356,0.0,0.0,0.0,0.0,-4.7722,-4.7569,-4.7645,-4.824,-5.0423,-5.125,-5.16,-5.1795,-5.1219,-5.0624,-5.0702,-5.0702,-5.0702,-5.0702,-5.1356,-5.1893,-5.1924,-5.2703,-5.3339,-5.3365,-5.346,-5.3558,-5.3481,-5.3481,-5.3555,-5.3743,-5.4452,-5.4973,-5.5084,-5.5795,-5.5943,-5.5118,-5.5003,-5.5087,-5.5322,-5.5319,-5.6257,-5.8396,-5.8514,-5.9095,-6.0264,-6.0294,-6.0323,-6.0408,-6.0408,-6.0408,-6.0408,-6.0408,-6.0408,-6.0408,-6.0408,-6.0561,-6.0943,-6.2319,-6.3083,-6.3435,-6.4486,-6.4879,-6.4845,-6.4407,-6.4215,-6.4136,0.0,0.0,0.0,0.0,0.0,0.0,0.0,0.0,0.0,0.0,-4.6091,-4.5775,-4.4871,-4.4833,-4.4563,-4.3821,-4.4528,-4.4927,-4.4837,0.0,0.0,-4.9436,-4.9668,-5.0094,-5.0867,-4.9281,-4.8043,-4.7308,-4.6418,-4.638,-4.7154,-4.8778,-5.0016,-5.0906,-5.1029,-5.0554,-4.9594,-4.8077,-4.6985,-4.6334,-4.7086,-4.7432,-4.7432,-4.7432,-4.7702,-4.8009,-4.7317,-4.7586,-4.8394,-4.9163,-4.8815,0.0,0.0,0.0,-4.6212,-4.5466,-4.5794,-4.6592,-4.7618,-4.8973,-5.0317,-5.1314,-5.0903,-5.0336,-5.0624,-5.0702,-5.0702,-5.0702,-5.1356,-5.1962,-5.2129,-5.2902,-5.3503,-5.3609,-5.3641,-5.3637,-5.3518,-5.3481,-5.3817,-5.46,-5.4825,-5.5195,-5.5862,-5.6047,-5.6006,-5.5723,-5.5899,-5.5983,-5.598,-5.685,-5.7604,-5.8226,-5.894,-5.9597,-6.0099,-6.0264,-6.0294,-6.0294,-6.0294,-6.0352,-6.0408,-6.0408,-6.0408,-6.0408,-6.0408,-6.1211,-6.2586,-6.2815,-6.377,-6.507,-6.5238,-6.5314,-6.5283,-6.4845,-6.4704,-6.4668,0.0,0.0,0.0,0.0,0.0,0.0,0.0,0.0,0.0,0.0,0.0,-4.593,-4.5452,-4.4962,-4.4537,-4.4122,-4.4537,-4.5002,-4.542,-4.6565,-4.7502,-4.8198,-4.9165,-4.9629,-4.9513,-4.8817,-4.8043,-4.7154,-4.6384,-4.6655,-4.7927,-4.9126,-4.99,-5.021,-4.966,-4.9203,-4.869,-4.6959,-4.6292,-4.6355,-4.674,-4.7471,-4.8202,-4.7278,-4.7394,-4.7932,-4.6624,-4.6701,-4.7509,-4.7855,-4.7874,-4.7608,-4.7171,0.0,0.0,0.0,-4.5407,-4.6379,-4.7669,-4.8541,-4.953,-5.1114,-5.0856,-5.0428,-5.118,-5.101,-5.0818,-5.1279,-5.2049,-5.2598,-5.2488,-5.3414,-5.417,-5.4088,-5.387,-5.3754,-5.3678,-5.3639,-5.3827,-5.4237,-5.505,-5.5529,-5.5455,-5.6228,-5.6335,-5.5451,-5.5829,-5.6288,-5.6594,-5.7417,-5.8274,-5.9114,-5.9526,-5.9815,-6.0038,-6.0106,-6.0205,-6.0294,-6.0294,-6.0323,-6.0408,-6.0408,-6.0408,-6.0408,-6.0408,-6.1058,-6.2204,-6.2701,-6.3618,-6.4726,-6.4726,-6.4726,-6.4649,-6.4,-6.3746,-6.372,0.0,0.0,0.0,0.0,0.0,0.0,0.0,0.0,0.0,0.0,0.0,-4.5725,-4.5698,0.0,0.0,0.0,-4.4576,-4.5079,-4.5891,-4.6728,-4.7154,-4.7115,-4.8778,-4.9204,-4.8082,-4.8329,-4.7927,-4.6844,-4.6225,-4.6806,-4.8493,-4.9088,-4.9591,-4.9977,-4.9273,-4.8684,-4.8188,-4.6673,-4.6352,-4.6932,-4.7124,-4.7971,-4.8971,-4.8163,-4.8086,-4.8202,-4.6509,-4.6355,-4.6837,-4.657,-4.6682,-4.687,-4.6443,-4.5962,0.0,0.0,0.0,-4.5908,-4.738,-4.7909,-4.8455,-5.0228,-5.0317,-5.0239,-5.125,-5.1198,-5.1104,-5.1759,-5.2779,-5.3447,-5.3097,-5.4074,-5.4776,-5.4265,-5.4017,-5.3907,-5.3793,-5.3793,-5.3867,-5.4014,-5.5047,-5.5599,-5.5188,-5.608,-5.6195,-5.5055,-5.5804,-5.6519,-5.6952,-5.7928,-5.8933,-5.988,-5.9918,-5.995,-6.0007,-6.0045,-6.022,-6.0599,-6.0408,-6.0323,-6.0408,-6.0408,-6.0408,-6.0408,-6.0408,-6.0867,-6.1669,-6.2319,-6.3083,-6.3847,-6.3847,-6.3847,-6.377,-6.3159,-6.3045,-6.3282,0.0,0.0,0.0,0.0,0.0,0.0,0.0,0.0,0.0,0.0,0.0,-4.485,-4.4769,-4.4664,-4.4291,-4.344,-4.4136,-4.4949,-4.5761,-4.6612,-4.7115,-4.7115,-4.8778,0.0,-4.7192,-4.7966,-4.7579,-4.5877,-4.5838,-4.6689,-4.8392,-4.8469,-4.932,-5.0813,-5.0709,-4.9787,-4.8227,-4.7237,-4.6855,-4.6971,-4.774,-4.8086,-4.8355,-4.9894,-5.001,-4.9125,-4.7432,-4.6855,-4.6742,-4.5628,-4.5148,-4.5041,-4.5574,-4.499,-4.4123,0.0,0.0,0.0,-4.5239,-4.602,-4.6866,-4.7995,-4.8844,-4.9588,-5.0149,-5.0918,-5.1522,-5.1854,-5.3241,-5.4331,-5.4,-5.4677,-5.4952,-5.3981,-5.4089,-5.4125,-5.3754,-5.3714,-5.3933,-5.4593,-5.4741,-5.5027,-5.5681,-5.5421,-5.5096,-5.4825,-5.6217,-5.7016,-5.6911,-5.8769,-5.988,-6.0013,-5.995,-5.9982,-6.0099,-6.0099,-6.0548,-6.1438,-6.0675,-6.0323,-6.0408,-6.0408,-6.0408,-6.0408,-6.0408,-6.0867,-6.1593,-6.1669,-6.2166,-6.2968,-6.2968,-6.2968,-6.2968,-6.293,-6.3427,-6.4114,0.0,0.0,0.0,0.0,0.0,0.0,0.0,0.0,0.0,0.0,0.0,0.0,0.0,-4.4987,-4.4485,-4.4175,-4.4407,-4.4949,-4.5761,-4.6071,-4.6264,-4.6264,-4.7927,-4.8043,-4.6303,-4.7657,-4.754,-4.58,-4.58,-4.6419,-4.7579,-4.8701,-4.9243,-4.9281,-4.9219,-4.8877,-4.8188,-4.6733,-4.6121,-4.6163,-4.7548,-4.8432,-4.9009,-4.9625,-5.001,-5.001,-4.8279,-4.7355,-4.6837,-4.6417,-4.5638,-4.4852,-4.5054,-4.459,-4.3986,-4.3986,-4.3986,-4.4172,-4.5064,-4.5509,-4.6238,-4.8377,-4.8739,-4.8972,-5.0453,-5.0988,-5.1395,-5.2031,-5.3249,-5.418,-5.4178,-5.4818,-5.5037,-5.4228,-5.4158,-5.4052,-5.3716,-5.3598,-5.3629,-5.3806,-5.4244,-5.4465,-5.4154,-5.4637,-5.5061,-5.5175,-5.6356,-5.738,-5.8078,-5.9273,-5.9982,-6.0013,-5.9982,-6.021,-6.0741,-6.131,-6.1793,-6.2185,-6.1919,-6.159,-6.1172,-6.1172,-6.0867,-6.0408,-6.0408,-6.0867,-6.1593,-6.1593,-6.2128,-6.2853,-6.228,-6.2089,-6.2089,-6.2089,-6.2242,-6.2701,0.0,0.0,0.0,0.0,0.0,0.0,0.0,0.0,-4.5114,-4.4216,0.0,0.0,0.0,0.0,-4.4987,-4.4987,-4.4987,-4.522,-4.5761,-4.58,-4.58,-4.58,-4.7463,-4.7734,-4.6264,-4.7657,-4.7695,-4.6225,-4.5916,-4.6264,-4.7115,-4.8275,-4.8662,-4.8353,-4.7728,-4.7774,-4.8227,-4.7036,-4.6331,-4.6163,-4.7855,-4.8702,-4.9086,-5.024,-5.051,-5.0164,-4.9279,-4.8432,-4.7722,-4.7626,-4.7193,-4.6516,-4.5748,-4.4843,-4.3986,-4.3986,-4.3986,-4.4135,-4.4692,-4.5064,-4.5871,-4.8253,-4.8265,-4.8348,-5.0778,-5.1244,-5.1494,-5.2661,-5.3786,-5.4626,-5.4743,-5.5119,-5.5119,-5.4265,-5.419,-5.4121,-5.3598,-5.3477,-5.3359,-5.3322,-5.3801,-5.3953,-5.3518,-5.4279,-5.5021,-5.5567,-5.663,-5.7725,-5.8783,-5.9619,-6.0007,-6.0007,-6.0007,-6.0507,-6.1614,-6.1918,-6.2401,-6.3061,-6.2826,-6.2315,-6.1593,-6.1593,-6.1172,-6.0408,-6.0408,-6.0714,-6.1211,-6.1211,-6.1554,-6.2013,-6.1707,-6.1593,-6.1631,-6.1936,-6.2204,-6.2624,0.0,0.0,0.0,0.0,0.0,0.0,0.0,0.0,-4.603,-4.5092,0.0,0.0,0.0,0.0,0.0,-4.5838,-4.5838,-4.5838,-4.58,-4.58,-4.58,-4.58,0.0,0.0,-4.7115,-4.7966,-4.7966,-4.7115,-4.6225,-4.6225,-4.7076,-4.7076,-4.754,-4.8275,-4.6607,-4.677,-4.8265,-4.8116,-4.7601,-4.7009,-4.8663,-4.8856,-4.8509,-5.1895,-5.1625,-4.9625,-5.0471,-5.0202,-4.9452,-4.9171,-4.958,-4.9854,-4.7607,-4.5559,-4.3986,-4.3986,-4.3986,-4.3986,0.0,0.0,0.0,-4.7218,-4.7223,-4.7695,-5.089,-5.1519,-5.1863,-5.3544,-5.4795,-5.5626,-5.5643,-5.5638,-5.5198,-5.3907,-5.419,-5.4288,-5.3322,-5.323,-5.3277,-5.3367,-5.3407,-5.3565,-5.3943,-5.4364,-5.4969,-5.5933,-5.7051,-5.8072,-5.9035,-5.9786,-6.0175,-6.0099,-6.0137,-6.0974,-6.2573,-6.185,-6.2337,-6.4031,-6.3291,-6.251,-6.1631,-6.1631,-6.1172,-6.0408,-6.0408,-6.0408,-6.0446,-6.0446,-6.0446,-6.0523,-6.1325,-6.1631,-6.1745,-6.2624,-6.3465,-6.4191,0.0,0.0,0.0,0.0,0.0,-4.8223,-4.7382,-4.7226,-4.7159,0.0,0.0,0.0,-4.6989,-4.6858,-4.6728,-4.6728,-4.6728,-4.6457,-4.5838,-4.58,-4.58,-4.58,-4.7463,-4.8005,-4.7115,-4.7966,-4.7966,-4.7115,-4.6225,-4.5916,-4.6148,-4.6776,-4.7225,-4.7457,-4.7581,-4.7494,-4.7191,-4.5324,-4.506,-4.6047,-4.7163,-4.8163,-4.9279,-5.1433,-5.2202,-5.2164,-5.2433,-5.1972,-5.1182,-5.1142,-4.9755,-4.7758,-4.5536,-4.4451,-4.3986,-4.3986,-4.417,-4.425,-4.4048,0.0,0.0,0.0,0.0,0.0,-4.7644,-4.8521,-4.9532,-5.1223,-5.2601,-5.3823,-5.4808,-5.5301,-5.5301,-5.4364,-5.4326,-5.4259,-5.3643,-5.3524,-5.3444,-5.3322,-5.3643,-5.387,-5.3907,-5.4368,-5.5233,-5.67,-5.7894,-5.9185,-6.0662,-6.1568,-6.1484,-6.0303,-6.1408,-6.2216,-6.2611,-6.2991,-6.3785,-6.4946,-6.4749,-6.3902,-6.2548,-6.2548,-6.1745,-6.0408,-6.0408,-6.0714,-6.1287,-6.1287,-6.1287,-6.1363,-6.2204,-6.2548,-6.2662,-6.3503,-6.4,-6.4267,0.0,0.0,-4.8738,-4.9211,-4.9367,-4.9258,-4.875,-4.8664,-4.8532,0.0,0.0,0.0,-4.7801,-4.8058,-4.7889,-4.7154,-4.7115,-4.6728,-4.5838,-4.58,-4.58,-4.58,-4.7463,-4.8159,-4.7657,-4.8508,-4.8508,-4.7657,-4.6767,-4.6148,-4.58,-4.6327,-4.6544,-4.6544,-4.6654,-4.6622,-4.6259,-4.3705,-4.375,-4.574,-4.7317,-4.8317,-4.9125,-5.1548,-5.2318,-5.2318,-5.3356,-5.2972,-5.2087,-5.3126,-5.1193,-4.8174,-4.6902,-4.5431,-4.4132,-4.4017,-4.4192,-4.4327,-4.4079,-4.4102,-4.449,-4.5536,0.0,0.0,-4.8404,-4.9302,-5.0175,-5.2409,-5.3742,-5.4623,-5.5004,-5.5364,-5.5413,-5.4886,-5.4647,-5.4392,-5.3907,-5.3795,-5.3758,-5.372,-5.3944,-5.4158,-5.43,-5.4905,-5.5851,-5.7201,-5.8639,-6.0205,-6.1942,-6.2536,-6.2222,-6.0886,-6.1773,-6.2429,-6.2704,-6.3207,-6.4076,-6.5352,-6.5352,-6.4474,-6.2892,-6.2892,-6.1975,-6.0408,-6.0408,-6.0867,-6.1631,-6.1975,-6.2128,-6.2242,-6.3083,-6.3427,-6.3541,-6.4382,-6.4688,-6.4764,0.0,0.0,-4.9171,-5.0142,-5.0389,-5.0467,-5.0467,-5.046,-5.0143,0.0,-4.9067,-4.8992,-4.8963,-4.9475,-4.9204,-4.7657,-4.7347,-4.6883,-4.5993,-4.5838,-4.58,-4.58,-4.7463,-4.8392,-4.8392,-4.9243,-4.9281,-4.8392,-4.754,-4.6651,-4.58,-4.58,-4.58,-4.5761,-4.4984,-4.5085,-4.565,-4.3297,-4.3695,-4.6047,-4.8125,-4.8663,-4.8625,-5.1933,-5.2395,-5.1548,-5.3818,-5.3626,-5.2664,-5.4682,-5.3092,-5.0164,-4.9732,-4.75,-4.4899,-4.4244,-4.4391,-4.4664,-4.4237,-4.4184,-4.4587,-4.5972,-4.5514,0.0,-5.0664,-5.1328,-5.1724,-5.4486,-5.5581,-5.5797,-5.5154,-5.5048,-5.504,-5.4853,-5.4836,-5.4685,-5.4121,-5.4163,-5.4198,-5.4262,-5.4443,-5.4646,-5.5004,-5.5784,-5.6641,-5.7663,-5.9443,-6.1179,-6.2815,-6.3083,-6.2739,-6.1784,-6.1802,-6.2222,-6.3045,-6.2985,-6.3787,-6.5413,-6.5413,-6.4535,-6.2892,-6.2892,-6.1975,-6.0408,-6.0485,-6.0981,-6.1822,-6.2701,-6.3045,-6.3121,-6.4,-6.4305,-6.442,-6.5146,-6.5413,-6.5413,-4.8353,-4.9602,-5.0664,-5.0897,-5.1561,-5.2051,-5.2051,-5.2037,-5.2216,-5.2637,-5.2057,-5.1818,-5.2414,-5.1409,-5.0519,-5.021,-4.8933,-4.7773,-4.6883,-4.6187,-4.58,-4.58,-4.7463,-4.8392,-4.8392,-4.9243,-4.9281,-4.8392,-4.754,-4.6651,-4.58,-4.581,-4.5795,-4.5795,-4.5565,-4.5571,-4.5687,-4.5137,-4.595,-4.7548,-4.6663,-4.7471,-4.9433,-5.2164,-5.3818,-5.478,-5.528,-5.5241,-5.4797,-5.3721,-5.2877,-5.1724,-4.872,-4.8275,-4.8299,-4.5469,-4.5797,-4.6701,-4.5105,-4.5293,-4.587,-4.5306,-4.5949,0.0,-4.6361,-4.6871,-4.777,-4.9034,-4.9609,-5.0161,-5.1207,-5.1973,-5.2181,-5.1438,-5.3519,-5.5085,-5.449,-5.499,-5.5145,-5.4371,-5.5265,-5.5936,-5.6034,-5.6206,-5.6987,-5.8538,-6.0921,-6.2459,-6.2892,-6.4191,-6.4229,-6.2701,-6.3312,-6.377,-6.3923,-6.3923,-6.442,-6.5413,-6.5413,-6.4535,-6.2892,-6.2892,-6.1975,-6.0446,-6.1096,-6.186,-6.2701,-6.3579,-6.3962,-6.4038,-6.484,-6.5184,-6.5184,-6.5337,-6.5413,-6.5413,-4.9668,-5.0491,-5.1244,-5.1709,-5.2201,-5.2654,-5.3029,-5.3081,-5.3249,-5.3598,-5.3591,-5.3691,-5.4116,-5.2995,-5.1834,-5.0983,-4.9745,-4.8662,-4.7811,-4.6922,-4.6457,-4.6457,-4.7695,-4.8392,-4.8392,-4.9668,-4.99,-4.9049,-4.8198,-4.7308,-4.6419,-4.6018,-4.6274,-4.7047,-4.6167,-4.6214,-4.6915,-4.561,-4.5252,-4.5736,-4.745,-4.9394,-5.1548,-5.3626,-5.4972,-5.5703,-5.5703,-5.5703,-5.5511,-5.4095,-5.2985,-5.1897,-5.0493,-4.9758,-4.9009,-4.6733,-4.6815,-4.7296,-4.5328,-4.5238,-4.5612,-4.5494,-4.5773,0.0,0.0,-4.7428,-4.809,-4.9758,-5.0007,-5.0176,-5.0894,-5.1392,-5.166,-5.1567,-5.3722,-5.5286,-5.4895,-5.5936,-5.6519,-5.5977,-5.6474,-5.6928,-5.6958,-5.7367,-5.8377,-6.0082,-6.1849,-6.3053,-6.3503,-6.4726,-6.484,-6.3579,-6.3962,-6.4191,-6.4191,-6.4191,-6.4611,-6.5413,-6.5413,-6.4764,-6.3541,-6.3541,-6.2853,-6.1669,-6.2089,-6.2739,-6.3579,-6.4,-6.442,-6.484,-6.5222,-6.5413,-6.5413,-6.5413,-6.5413,-6.5413,-5.0867,-5.1061,-5.1293,-5.205,-5.2476,-5.2901,-5.358,-5.3812,-5.3889,-5.3829,-5.4542,-5.5045,-5.5045,-5.4271,-5.3188,-5.1757,-5.0751,-4.9823,-4.8933,-4.8082,-4.7618,-4.7579,-4.8275,-4.8662,-4.8662,-4.9977,-5.0287,-4.9436,-4.8585,-4.7773,-4.7076,-4.6225,-4.6535,-4.785,-4.6752,-4.697,-4.7944,-4.6059,-4.5086,-4.517,-4.9124,-5.1145,-5.201,-5.4318,-5.5203,-5.5241,-5.5588,-5.5703,-5.5588,-5.478,-5.3404,-5.212,-5.2311,-5.1315,-4.9739,-4.7967,-4.7961,-4.8073,-4.6001,-4.5551,-4.5756,-4.6159,-4.5946,-4.6225,0.0,0.0,0.0,-5.0786,-5.0841,-5.0577,-5.0489,-5.0604,-5.0964,-5.172,-5.3416,0.0,0.0,-5.6349,0.0,-5.7308,-5.7574,-5.7794,-5.7882,-5.8529,-5.9587,-6.1162,-6.1984,-6.2853,-6.3885,-6.4726,-6.4955,-6.4458,-6.442,-6.442,-6.442,-6.442,-6.4764,-6.5413,-6.5413,-6.4993,-6.4191,-6.4191,-6.3809,-6.3159,-6.3159,-6.3656,-6.442,-6.442,-6.4802,-6.5413,-6.5413,-6.5413,-6.5413,-6.5413,-6.5413,-6.5413,-5.0596,-5.0945,-5.0983,-5.1061,-5.2376,-5.342,-5.3498,-5.4194,-5.4658,-5.4658,-5.5354,-5.5857,-5.5857,-5.5122,-5.4581,-5.4387,-5.2972,-5.1657,-5.0674,-4.99,-4.949,-4.9397,-4.9513,-4.9552,-4.9552,-4.9745,-4.9397,-4.8546,-4.7657,-4.7192,-4.7076,-4.6197,-4.5926,-4.6148,-4.7426,-4.7719,-4.7249,-4.7681,-4.9114,-5.1082,-5.0797,-4.9008,-4.6971,-5.1702,-5.3472,-5.3664,-5.5164,-5.5703,-5.5588,-5.478,-5.4336,-5.3797,-5.1644,-5.2298,-5.3084,-4.9144,-4.9643,-5.0893,-4.8414,-4.824,-4.8488,-4.7069,-4.7719,-4.8235,-4.6337,0.0,-4.6755,-4.6296,0.0,-4.6125,-4.6025,0.0,0.0,-4.822,-5.0436,-5.2488,-5.3884,-5.5549,-5.6577,-5.6521,-5.7911,-5.8816,-5.8845,-5.8977,-5.9463,-6.0446,-6.0637,-6.1363,-6.2968,-6.3885,-6.4611,-6.5222,-6.5261,-6.5261,-6.5261,-6.5261,-6.5299,-6.5413,-6.5413,-6.4993,-6.4191,-6.4191,-6.4153,-6.4038,-6.4038,-6.4496,-6.5261,-6.5261,-6.5337,-6.5413,-6.5413,-6.5413,-6.5413,-6.5413,-6.5413,-6.5413,-4.9861,-5.021,-5.0519,-5.1486,-5.226,-5.3072,-5.4116,-5.5393,-5.6437,-5.694,-5.6863,-5.7134,-5.8139,-5.6592,-5.5548,-5.5625,-5.452,-5.3445,-5.2512,-5.1756,-5.1254,-5.1177,-5.0674,-5.0171,-4.9707,-4.9707,-4.9281,-4.8392,-4.754,-4.7115,-4.7076,-4.6211,-4.6598,-4.8082,-4.8787,-4.9737,-5.0687,-5.0091,-4.9843,-4.9886,-4.9987,-4.8526,-4.6968,-5.253,-5.4664,-5.4741,-5.5434,-5.5703,-5.5665,-5.5318,-5.4549,-5.3741,-5.3626,-5.3318,-5.2626,-5.0818,-5.0741,-5.0741,-4.8663,-4.8721,-4.9087,-4.7857,-4.8068,-4.8125,-4.6472,-4.5992,-4.5934,-4.6007,0.0,0.0,0.0,0.0,0.0,0.0,-4.9939,-5.1825,0.0,0.0,-5.6175,0.0,0.0,0.0,-5.9015,-5.9081,-5.9453,-6.0332,-6.0408,-6.0905,-6.2089,-6.3427,-6.4344,-6.4688,-6.5146,-6.5413,-6.5413,-6.5413,-6.5413,-6.5413,-6.5413,-6.5222,-6.4917,-6.5413,-6.5643,-6.5681,-6.6139,-6.6522,-6.6789,-6.6369,-6.6139,-6.6101,-6.5605,-6.5413,-6.5413,-6.5413,-6.5413,-6.5413,-4.8701,-4.9359,-5.0094,-5.1293,-5.1873,-5.2801,-5.4542,-5.5818,-5.7018,-5.8101,-5.7675,-5.7869,-5.9377,-5.7869,-5.6747,-5.6863,-5.6311,-5.5458,-5.4336,-5.3514,-5.3111,-5.3227,-5.1989,-5.1215,-5.1099,-5.0635,-5.0094,-4.9436,-4.8353,-4.7927,-4.8121,-4.6984,-4.7371,-4.9049,-4.9962,-5.1261,-5.2674,-5.2172,-5.1498,-5.0769,-5.0871,-5.0296,-4.9758,-5.3569,-5.528,-5.5703,-5.5703,-5.5703,-5.5665,-5.5434,-5.4549,-5.3741,-5.4703,-5.3895,-5.2587,-5.2318,-5.201,-5.1356,-4.9625,-4.9567,-4.974,-4.8433,-4.8068,-4.7721,-4.6508,-4.6334,-4.6526,-4.6806,-4.6959,0.0,0.0,0.0,-4.7761,-4.8372,0.0,-5.1596,0.0,-5.3353,0.0,0.0,0.0,0.0,0.0,-5.9262,-5.9453,-6.0332,-6.0179,-6.0485,-6.1554,-6.3045,-6.3962,-6.4191,-6.4993,-6.5413,-6.5413,-6.5413,-6.5413,-6.5413,-6.5413,-6.5413,-6.5413,-6.6292,-6.6827,-6.7056,-6.763,-6.805,-6.8203,-6.7362,-6.7018,-6.698,-6.633,-6.6101,-6.6025,-6.5566,-6.5413,-6.5413,-4.6999,-4.8546,-4.9707,-4.9784,-5.1099,-5.2801,-5.4542,-5.4851,-5.547,-5.7134,-5.7327,-5.7637,-5.8526,-5.8565,-5.8526,-5.8526,-5.8581,-5.7832,-5.6029,-5.5216,-5.5139,-5.5857,-5.3498,-5.2917,-5.4581,-5.2995,-5.2105,-5.2066,-5.0442,-5.0016,-5.0751,-4.9003,-4.7859,-4.7347,-5.0642,-5.1686,-5.1138,-5.3614,-5.5586,-5.6884,-5.5225,-5.492,-5.5363,-5.3839,-5.428,-5.5703,-5.5703,-5.5703,-5.5588,-5.478,-5.4511,-5.4318,-5.3549,-5.3818,-5.4241,-5.3395,-5.3741,-5.401,-5.2241,-5.1739,-5.1121,-4.8642,-4.7949,-4.7465,-4.5719,-4.7226,-4.8754,-4.7952,-4.971,-5.1162,-5.0321,-5.0168,-5.0206,-5.0206,-5.1009,0.0,0.0,0.0,0.0,0.0,0.0,0.0,0.0,-5.9606,-5.9453,0.0,-5.9606,-5.9873,-6.1516,-6.2471,-6.335,-6.4153,-6.4993,-6.5413,-6.5413,-6.5413,-6.5413,-6.5413,-6.5413,-6.5413,-6.5413,-6.6292,-6.7133,-6.7859,-6.7897,-6.8394,-6.9082,-6.8203,-6.7859,-6.7859,-6.7821,-6.7821,-6.763,-6.5987,-6.5413,-6.5413,-4.7038,-4.8508,-4.9707,-4.9707,-5.0171,-5.1293,-5.3575,-5.5354,-5.667,-5.7288,-5.783,-5.8526,-5.9436,-5.9493,-5.9493,-5.9514,-5.9564,-5.9061,-5.7851,-5.7541,-5.7521,-5.7714,-5.578,-5.4735,-5.4813,-5.2531,-5.1331,-5.1331,-5.0248,-5.0132,-5.0867,-4.9769,-4.9382,-4.9707,-5.1432,-5.2978,0.0,-5.5238,-5.6244,-5.7116,-5.5343,-5.5461,-5.6519,-5.5301,-5.5224,-5.5766,-5.5724,-5.5745,-5.5768,-5.5458,-5.5016,-5.4612,-5.4842,-5.438,-5.3859,-5.4647,-5.4703,-5.4472,-5.4434,-5.4374,-5.3776,-5.1156,-5.0078,-4.9001,-4.6636,-4.7646,-4.8831,-4.799,-4.9824,-5.1353,-5.0474,-5.0283,-5.0283,-5.0283,-5.055,-5.0741,0.0,0.0,0.0,0.0,0.0,0.0,0.0,0.0,0.0,0.0,-5.9606,0.0,-6.1516,-6.2433,-6.3312,-6.4153,-6.4993,-6.5413,-6.5413,-6.5413,-6.5413,-6.5413,-6.5413,-6.5719,-6.6292,-6.7133,-6.7973,-6.8776,-6.9311,-6.9731,-6.9922,-6.9082,-6.8738,-6.8699,-6.8126,-6.7897,-6.7821,-6.7247,-6.7056,-6.698,-4.8585,-4.9451,-5.0109,-4.9745,-5.021,-5.1254,-5.3188,-5.5161,-5.667,-5.7288,-5.8141,-5.9026,-5.988,-6.0228,-6.0383,-6.0403,-6.0403,-5.99,-5.874,-5.8663,-5.8642,-5.8604,-5.725,-5.6515,-5.6592,-5.4658,-5.3343,-5.2724,-5.2182,-5.1841,-5.1713,-5.0902,-5.0439,-5.04,-5.1614,-5.3215,-5.5161,-5.6089,-5.7327,-5.8508,-5.7024,-5.6695,-5.7061,-5.6459,-5.6015,-5.5766,-5.5766,-5.5787,-5.5865,-5.5827,-5.5499,-5.5172,-5.5653,-5.5306,-5.4882,-5.5878,-5.5994,-5.5878,-5.6109,-5.5934,-5.5143,-5.2828,-5.1826,-5.0747,-4.8439,-4.9694,-5.1085,-5.0206,-5.1811,-5.3301,-5.3034,-5.2537,-5.2117,-5.2117,-5.1849,-5.1544,0.0,-5.1658,0.0,0.0,0.0,0.0,0.0,0.0,0.0,0.0,0.0,0.0,0.0,-6.228,-6.3159,-6.3732,-6.4802,-6.5413,-6.5413,-6.5413,-6.5413,-6.5413,-6.5719,-6.6178,-6.6751,-6.7859,-6.8661,-6.9234,-7.0037,-7.0419,-7.0381,-6.9846,-6.9616,-6.9578,-6.9005,-6.8776,-6.8699,-6.8126,-6.7795,-6.7626,-5.1285,-5.1261,-5.1083,-5.0201,-5.1308,-5.2608,-5.342,-5.4404,-5.5565,-5.7112,-5.8273,-5.9188,-5.9839,-6.0731,-6.1234,-6.1118,-6.1118,-6.0422,-5.8836,-5.872,-5.872,-5.872,-5.7907,-5.8217,-5.9841,-5.8952,-5.7675,-5.6051,-5.5917,-5.4996,-5.3301,-5.2454,-5.1183,-4.972,-5.1279,-5.2643,-5.3923,-5.6283,-5.8797,-6.106,-6.0112,-5.8798,-5.7371,-5.7271,-5.6708,-5.5955,-5.5904,-5.5865,-5.5884,-5.5924,-5.5982,-5.602,-5.5923,-5.6541,-5.7255,-5.717,-5.7709,-5.8175,-5.7379,-5.6549,-5.5472,-5.3793,-5.3229,-5.2663,-5.0971,-5.3121,-5.5212,-5.4333,-5.5517,-5.6931,-5.7695,-5.6549,-5.5441,-5.5365,-5.46,-5.376,-5.2957,0.0,-5.3148,0.0,0.0,0.0,0.0,0.0,0.0,0.0,0.0,0.0,0.0,-6.1975,-6.2892,-6.2968,-6.4535,-6.5413,-6.5413,-6.5413,-6.5413,-6.5413,-6.6292,-6.6713,-6.6827,-6.8394,-6.9196,-6.9311,-7.0037,-7.0381,-7.0419,-7.0419,-7.0419,-7.0419,-7.0419,-7.0419,-7.0266,-6.8629,-6.7711,-6.7354,-5.1346,-5.2748,-5.4198,-5.4548,-5.4388,-5.4265,-5.452,-5.5741,-5.6853,-5.7313,-5.8746,-5.9791,-5.9957,-6.077,-6.1234,-6.1118,-6.1118,-6.0925,-6.0499,-6.046,-6.046,-6.046,-5.9687,-5.9455,-5.988,-5.7791,-5.6786,-5.6979,-5.49,-5.4323,-5.5093,-5.3507,-5.2892,-5.3167,-5.23,-5.3898,-5.7288,-5.7288,-5.9145,-6.1989,-6.1039,-6.0419,-5.9956,-5.9279,-5.9258,-5.9254,-5.6772,-5.6329,-5.6925,-5.6907,-5.735,-5.791,-5.7815,-5.797,-5.8259,-5.8775,-5.9078,-5.9348,-5.9727,-5.9204,-5.8258,-5.7175,-5.5877,-5.458,-5.346,-5.4803,-5.6052,-5.525,-5.6893,-5.8154,-5.7122,-5.6587,-5.5861,-5.4639,-5.3683,-5.3263,-5.3722,0.0,0.0,-5.4906,0.0,0.0,0.0,0.0,0.0,0.0,0.0,0.0,0.0,0.0,-6.2548,-6.3809,-6.484,-6.5413,-6.5413,-6.5413,-6.5413,-6.5413,-6.6292,-6.7018,-6.7591,-6.805,-6.889,-7.0075,-6.9693,-6.9846,-7.0419,-7.0419,-7.0419,-7.0419,-7.0419,-7.0801,-7.1264,-7.0492,-6.9739,-6.9095,-5.4214,-5.5847,-5.7398,-5.7533,-5.7419,-5.6977,-5.6195,-5.6842,-5.7417,-5.745,-5.8673,-5.9475,-5.9398,-6.0538,-6.1234,-6.1118,-6.1118,-6.0963,-6.0615,-6.0886,-6.1118,-6.1118,-6.1041,-6.1157,-6.1543,-6.0112,-5.8838,-5.7738,-5.6579,-5.5647,-5.4933,-5.3974,-5.3421,-5.3259,-5.2358,-5.359,-5.6476,-5.8217,-6.0074,-6.1834,-6.2045,-6.1927,0.0,-6.1039,-6.0902,-6.0727,-5.8858,-5.851,-5.8915,-5.849,-5.874,-5.9145,-5.909,-5.9321,-5.9631,-5.9605,-6.0162,-6.074,-6.0804,-6.0165,-5.9396,-5.8889,-5.7973,-5.6918,-5.6089,-5.6818,-5.7542,-5.7122,-5.7848,-5.8498,-5.8307,-5.7351,-5.5938,-5.3874,-5.4027,-5.4218,-5.3607,0.0,0.0,0.0,-5.5403,0.0,0.0,0.0,0.0,0.0,0.0,0.0,0.0,0.0,-6.2624,-6.3579,-6.4764,-6.5413,-6.5413,-6.5413,-6.5605,-6.5987,-6.6827,-6.7668,-6.847,-6.847,-6.9158,-7.0381,-6.954,-6.9655,-7.0419,-7.0419,-7.0419,-7.0457,-7.0839,-7.1259,-7.1689,-7.1746,-7.1199,-7.0512,-5.8178,-5.9436,-6.0429,-5.9654,-6.0152,-6.0066,-5.8389,-5.8017,-5.7915,-5.7848,-5.8624,-5.9147,-5.8952,-6.0344,-6.1234,-6.1118,-6.1195,-6.0925,-6.0112,-6.0925,-6.1389,-6.1273,-6.2124,-6.2936,-6.3671,-6.3594,-6.1872,-5.8445,-5.8984,-5.742,-5.3951,-5.3872,-5.32,-5.2056,-5.201,0.0,0.0,-5.93,-6.1389,-6.1737,-6.3186,-6.332,-6.2625,-6.2625,-6.2277,-6.1756,-6.164,-6.1486,-6.1176,-6.0442,-6.0306,-6.0383,-6.0345,-6.0809,-6.1273,-6.0359,-6.1186,-6.2172,-6.1366,-6.0512,-5.9858,-5.9858,-5.9648,-5.9319,-5.8591,-5.8872,-5.9262,-5.9262,-5.8727,-5.8651,-5.9988,-5.823,-5.5861,-5.3645,-5.4982,-5.5632,-5.3722,0.0,0.0,0.0,0.0,0.0,0.0,0.0,0.0,0.0,0.0,0.0,0.0,0.0,-6.2548,-6.2892,-6.4535,-6.5413,-6.5413,-6.5528,-6.5948,-6.6713,-6.763,-6.8394,-6.9043,-6.9043,-6.9464,-7.019,-6.9387,-6.954,-7.0419,-7.0419,-7.0495,-7.0648,-7.1412,-7.1799,-7.1967,-7.2515,-7.2312,-7.1715,-5.9673,-6.1334,-6.2249,-6.1427,-6.1949,-6.2182,-6.116,-6.0269,-5.9709,-5.9564,-6.0401,-6.0886,-6.0692,-6.1041,-6.1234,-6.1118,-6.1776,-6.1814,-6.0963,-6.2356,-6.2936,-6.2201,-6.3013,-6.3516,-6.371,-6.3013,-6.1543,-5.9391,-5.7989,-5.6222,-5.4111,-5.2614,-5.2633,-5.3954,0.0,0.0,-5.8913,-6.1195,-6.3013,-6.4329,-6.4577,-6.4595,-6.444,-6.444,-6.4788,-6.5136,-6.4541,-6.34,-6.2143,-6.2008,-6.2433,-6.3013,-6.3013,-6.3129,-6.3187,-6.2909,-6.302,-6.3213,-6.2921,-6.2281,-6.1627,-6.1627,-6.0992,-6.0355,-6.0201,-6.0173,-6.0179,-6.0179,-6.0064,-5.9835,-5.9415,-5.7848,-5.6434,-5.6014,-5.5135,-5.5135,-5.6778,0.0,0.0,0.0,0.0,-5.6625,0.0,0.0,0.0,0.0,0.0,0.0,0.0,0.0,-6.0752,0.0,-6.4535,-6.5413,-6.5413,-6.6101,-6.656,-6.6713,-6.8241,-6.8661,-6.8126,-6.8126,-6.8585,-6.9349,-6.8508,-6.9005,-7.0419,-7.0419,-7.0839,-7.1489,-7.1642,-7.2274,-7.3153,-7.2837,-7.2828,-7.2904,-6.2187,-6.274,-6.2857,-6.2459,-6.2344,-6.2187,-6.1758,-6.167,-6.1281,-6.0278,-6.0459,-6.0827,-6.1214,-6.164,-6.2046,-6.2452,-6.2859,-6.2897,-6.2472,-6.3207,-6.371,-6.3748,-6.4135,-6.4561,-6.4986,-6.4599,-6.299,-6.0104,-5.9319,-5.7243,-5.4014,-5.2847,-5.2888,-5.3841,0.0,-5.6134,-5.8758,-6.1776,-6.3555,-6.4406,-6.5237,-6.5564,-6.5564,-6.5564,-6.5796,-6.6105,-6.576,-6.5064,-6.4329,-6.3903,-6.4019,-6.4367,-6.4367,-6.4367,-6.427,-6.3724,-6.3836,-6.4062,-6.3507,-6.3036,-6.2704,-6.2656,-6.2273,-6.1747,-6.1299,-6.1103,-6.0905,-6.0485,-6.0506,-6.0328,-5.955,-5.8033,-5.6917,-5.6939,-5.584,-5.5609,-5.7328,0.0,-5.6928,0.0,0.0,0.0,0.0,0.0,0.0,0.0,0.0,0.0,0.0,0.0,-6.0523,0.0,0.0,-6.5605,-6.6063,-6.6483,-6.7133,-6.8012,-6.8814,-6.8967,-6.8585,-6.8585,-6.8814,-6.9158,-6.8738,-6.9273,-7.0457,-7.0877,-7.1603,-7.2406,-7.2579,-7.2966,-7.3487,-7.3119,-7.3131,-7.3246,-6.4219,-6.3906,-6.3476,-6.332,-6.2695,-6.2265,-6.2265,-6.2851,-6.2695,-6.1055,-6.0893,-6.1151,-6.1888,-6.2391,-6.2993,-6.3729,-6.3903,-6.3903,-6.371,-6.4019,-6.4445,-6.4986,-6.5141,-6.5528,-6.6185,-6.6185,-6.4552,-6.1209,-6.0981,-5.8642,-5.432,-5.3563,-5.3398,-5.3899,-5.6268,-5.783,-5.8874,-6.2085,-6.3748,-6.4329,-6.5682,-6.6185,-6.6185,-6.6185,-6.6185,-6.6185,-6.6185,-6.6185,-6.6108,-6.545,-6.5257,-6.5257,-6.5257,-6.5257,-6.5102,-6.4345,-6.4552,-6.4894,-6.417,-6.3753,-6.3565,-6.3514,-6.3283,-6.2897,-6.2153,-6.1917,-6.1736,-6.1103,-6.1031,-6.0762,-5.9862,-5.8758,-5.7907,-5.7499,-5.688,-5.6725,-5.7605,0.0,-5.7911,0.0,0.0,0.0,-5.5575,0.0,0.0,0.0,0.0,0.0,0.0,0.0,0.0,0.0,0.0,-6.5566,-6.6407,-6.6789,-6.7706,-6.9196,-6.9196,-6.9196,-6.9196,-6.9005,-6.9005,-6.9196,-6.9196,-6.9769,-7.0724,-7.1603,-7.241,-7.3146,-7.3421,-7.3484,-7.3458,-7.3342,-7.3357,-7.3293,-6.4453,-6.4883,-6.5117,-6.4336,-6.4101,-6.4062,-6.4062,-6.414,-6.3828,-6.2773,-6.3319,-6.3806,-6.3761,-6.3705,-6.372,-6.3787,-6.4445,-6.4522,-6.3748,-6.5102,-6.5682,-6.5025,-6.5682,-6.6108,-6.6185,-6.6185,-6.5174,-6.3145,-6.1588,-5.9023,-5.5591,-5.3956,-5.4111,-5.5801,-5.6807,-5.9455,-6.3091,-6.2704,-6.3864,-6.5992,-6.6147,-6.6185,-6.6185,-6.6185,-6.6185,-6.6185,-6.6185,-6.6185,-6.6185,-6.6108,-6.6108,-6.6108,-6.6108,-6.6108,-6.6049,-6.593,-6.5865,-6.5874,-6.5789,-6.5139,-6.4474,-6.4474,-6.3796,-6.3077,-6.2974,-6.2863,-6.2825,-6.2938,-6.2519,-6.164,-5.9996,-6.0228,-6.0151,-5.8526,-5.8273,-5.8523,-5.937,-5.823,-5.755,-5.8312,0.0,0.0,0.0,-5.3976,0.0,0.0,0.0,0.0,0.0,0.0,0.0,-6.1516,-6.335,-6.4688,-6.5528,-6.7018,-6.8241,-6.9196,-6.9196,-6.9196,-6.9158,-6.8394,-6.8432,-6.9196,-6.9196,-7.0113,-7.1642,-7.252,-7.3112,-7.3456,-7.3492,-7.3439,-7.3341,-7.3313,-7.3461,-7.3618,-6.5156,-6.4922,-6.4883,-6.5039,-6.4219,-6.3711,-6.4219,-6.4726,-6.4961,-6.457,-6.4336,-6.4408,-6.4886,-6.4733,-6.4838,-6.5432,-6.5644,-6.5566,-6.5218,-6.5837,-6.6069,-6.5721,-6.6031,-6.6185,-6.6185,-6.6185,-6.5273,-6.3399,-6.1772,-5.9436,-5.648,-5.5422,-5.5843,-5.7675,-6.0074,-6.2085,-6.3748,-6.4406,-6.5257,-6.6185,-6.6185,-6.6185,-6.6185,-6.6185,-6.6185,-6.6185,-6.6185,-6.6185,-6.6185,-6.6185,-6.6185,-6.6185,-6.6185,-6.6185,-6.6185,-6.6165,-6.608,-6.599,-6.599,-6.5702,-6.5397,-6.5346,-6.496,-6.4468,-6.3942,-6.3743,-6.359,-6.3271,-6.3206,-6.303,-6.2471,-6.181,-6.1305,-6.1123,-6.0268,-5.9892,-6.0733,-6.0177,0.0,-5.8919,0.0,-5.7232,0.0,0.0,0.0,0.0,0.0,0.0,0.0,0.0,0.0,-6.1058,0.0,-6.5973,-6.6178,-6.7821,-6.9082,-6.9922,-6.9922,-6.9655,-6.9196,-6.9349,-6.9578,-6.996,-7.0457,-7.1374,-7.252,-7.3399,-7.4097,-7.4638,-7.4044,-7.3755,-7.3703,-7.3589,-7.3607,-7.3707,-6.5937,-6.5273,-6.4961,-6.582,-6.4765,-6.4062,-6.4922,-6.5586,-6.5976,-6.5976,-6.539,-6.5234,-6.5898,-6.573,-6.5855,-6.6535,-6.6379,-6.6224,-6.6185,-6.6185,-6.6185,-6.6185,-6.6185,-6.6185,-6.6185,-6.6185,-6.5564,-6.4265,-6.2665,-6.0788,-5.8626,-5.7654,-5.8213,-6.019,-6.2627,-6.398,-6.4522,-6.5682,-6.6185,-6.6185,-6.6185,-6.6185,-6.6185,-6.6185,-6.6185,-6.6185,-6.6185,-6.6185,-6.6185,-6.6185,-6.6185,-6.6185,-6.6185,-6.6185,-6.6185,-6.6185,-6.6102,-6.6013,-6.6013,-6.5958,-6.5897,-6.5846,-6.5701,-6.5427,-6.4795,-6.4642,-6.4485,-6.3869,-6.4011,-6.4234,-6.413,-6.3127,-6.2465,-6.2854,-6.2084,-6.1586,-6.1907,-6.1685,-6.0876,-5.9274,-5.8238,-5.7564,-5.7315,-5.7103,0.0,0.0,0.0,0.0,0.0,0.0,0.0,0.0,0.0,-6.6792,-6.717,-6.8533,-6.9616,-7.0419,-7.0151,-6.9884,-6.9578,-7.0419,-7.0648,-7.0495,-7.1833,-7.2635,-7.3093,-7.4125,-7.4857,-7.5208,-7.4325,-7.4066,-7.4125,-7.3813,-7.4001,-7.4368,-6.6719,-6.6172,-6.5859,-6.6719,-6.6133,-6.5859,-6.6758,-6.6875,-6.6875,-6.6875,-6.6875,-6.6875,-6.6875,-6.6758,-6.6667,-6.6613,-6.6456,-6.634,-6.6224,-6.6185,-6.6185,-6.6185,-6.6185,-6.6185,-6.6185,-6.6185,-6.6245,-6.626,-6.4593,-6.3324,-6.2482,-6.0763,-6.1247,-6.3632,-6.3671,-6.4599,-6.6185,-6.6185,-6.6185,-6.6185,-6.6185,-6.6185,-6.6185,-6.6185,-6.6185,-6.6185,-6.6185,-6.6185,-6.6185,-6.6185,-6.6185,-6.6185,-6.6185,-6.6185,-6.6185,-6.6185,-6.6102,-6.6013,-6.6013,-6.5958,-6.5897,-6.5897,-6.5755,-6.5608,-6.5608,-6.564,-6.5581,-6.5148,-6.5258,-6.5114,-6.4257,-6.4062,-6.3828,-6.3049,-6.3613,-6.3865,-6.3007,-6.218,-6.1035,-5.9318,-5.6744,-5.5528,-5.6523,-5.6359,0.0,0.0,0.0,0.0,0.0,0.0,0.0,-6.4677,-6.5388,-6.6551,-6.8244,-6.8893,-6.9616,-7.0381,-6.9578,-6.9616,-7.0419,-7.1298,-7.1221,-7.0533,-7.3093,-7.3705,-7.3132,-7.4775,-7.517,-7.4664,-7.4192,-7.4212,-7.4434,-7.3901,-7.4698,-7.5946,-6.5976,-6.6287,-6.6555,-6.6859,-6.6669,-6.6596,-6.6869,-6.6908,-6.6908,-6.6908,-6.6908,-6.6908,-6.6908,-6.6796,-6.6677,-6.6687,-6.653,-6.6467,-6.6397,-6.64,-6.6389,-6.6389,-6.6389,-6.6355,-6.6263,-6.6263,-6.6281,-6.6299,-6.4632,-6.3673,-6.3454,-6.2859,-6.3606,-6.5488,-6.5412,-6.5682,-6.6185,-6.6185,-6.6185,-6.6185,-6.6185,-6.6185,-6.6185,-6.6185,-6.6185,-6.6185,-6.6185,-6.6185,-6.6185,-6.6185,-6.6185,-6.6224,-6.6301,-6.6263,-6.6185,-6.6185,-6.6102,-6.6013,-6.6013,-6.5958,-6.5897,-6.5897,-6.582,-6.5755,-6.587,-6.6046,-6.6144,-6.6011,-6.6153,-6.6205,-6.5933,-6.5855,-6.5777,-6.5543,-6.5718,-6.5619,-6.4801,-6.445,-6.365,-6.1972,-6.0996,-6.0612,-6.0939,-6.036,0.0,0.0,0.0,0.0,0.0,0.0,0.0,-6.5056,-6.748,-6.8601,-6.8282,-6.9624,-7.0333,-7.0419,-7.0151,-7.0457,-7.1298,-7.1565,-7.1871,-7.2253,-7.3628,-7.4049,-7.3896,-7.5042,-7.5392,-7.5209,-7.4928,-7.4843,-7.501,-7.5232,-7.5322,-7.5249,-6.6008,-6.6516,-6.6898,-6.6917,-6.6887,-6.6895,-6.6895,-6.6895,-6.6895,-6.6895,-6.6895,-6.6895,-6.6895,-6.6826,-6.6754,-6.6718,-6.6642,-6.6552,-6.6478,-6.6513,-6.6516,-6.6516,-6.6517,-6.6475,-6.6392,-6.6384,-6.6406,-6.64,-6.5382,-6.4906,-6.4934,-6.4877,-6.5358,-6.6299,-6.6283,-6.6225,-6.6185,-6.6185,-6.6185,-6.6185,-6.6185,-6.6185,-6.6185,-6.6185,-6.6185,-6.6185,-6.6185,-6.6224,-6.6263,-6.6263,-6.6301,-6.634,-6.6456,-6.6418,-6.6334,-6.6283,-6.6183,-6.6105,-6.6084,-6.6295,-6.6527,-6.6527,-6.6736,-6.6968,-6.7116,-6.7243,-6.7408,-6.7489,-6.7592,-6.7686,-6.7686,-6.7686,-6.7686,-6.7686,-6.7677,-6.7508,-6.6984,-6.6681,-6.5842,-6.4157,-6.3662,-6.3477,-6.3477,-6.3282,-6.3399,0.0,0.0,0.0,0.0,0.0,-6.6423,-6.719,-6.9157,-6.998,-6.9524,-7.035,-7.071,-7.057,-7.0789,-7.1183,-7.1718,-7.2329,-7.275,-7.3055,-7.4201,-7.4507,-7.4278,-7.5119,-7.5653,-7.5888,-7.5641,-7.5901,-7.6404,-7.6303,-7.5994,-7.5564,-6.6717,-6.6852,-6.682,-6.68,-6.6795,-6.6795,-6.6795,-6.6873,-6.6873,-6.6873,-6.6873,-6.6873,-6.6873,-6.6873,-6.6823,-6.6711,-6.6706,-6.6653,-6.6525,-6.6518,-6.6518,-6.6518,-6.6537,-6.6535,-6.6496,-6.6517,-6.6542,-6.6606,-6.6663,-6.6663,-6.6606,-6.6606,-6.6489,-6.6316,-6.6316,-6.6263,-6.6205,-6.6224,-6.6224,-6.6224,-6.6224,-6.6224,-6.6224,-6.6224,-6.6224,-6.6224,-6.6224,-6.6301,-6.6417,-6.6419,-6.6496,-6.6612,-6.6631,-6.661,-6.654,-6.6361,-6.6341,-6.6376,-6.634,-6.6972,-6.7689,-6.7689,-6.8257,-6.8839,-6.8978,-6.9006,-6.9072,-6.9273,-6.9284,-6.9284,-6.9284,-6.9284,-6.9323,-6.9362,-6.941,-6.9389,-6.941,-6.8756,-6.7649,-6.5953,-6.5067,-6.457,-6.457,-6.5194,-6.6209,-6.7732,0.0,0.0,0.0,-6.6518,-6.7149,-7.0424,-7.0367,-7.0681,-7.1481,-7.1023,-7.0821,-7.0871,-7.1497,-7.1794,-7.1909,-7.3552,-7.3896,-7.3323,-7.4889,-7.5157,-7.4545,-7.5348,-7.6112,-7.6764,-7.6308,-7.7131,-7.8377,-7.7053,-7.6718,-7.6659,-6.6751,-6.6331,-6.5902,-6.5897,-6.5897,-6.5897,-6.5897,-6.6444,-6.6834,-6.6834,-6.6834,-6.6834,-6.6834,-6.6834,-6.6805,-6.6781,-6.6796,-6.6757,-6.6717,-6.6747,-6.6735,-6.6735,-6.6727,-6.6712,-6.6655,-6.6642,-6.6674,-6.6688,-6.6756,-6.6745,-6.6658,-6.6681,-6.6624,-6.6528,-6.6422,-6.6345,-6.6263,-6.6341,-6.634,-6.634,-6.6456,-6.6495,-6.6495,-6.6495,-6.6495,-6.6495,-6.6495,-6.6533,-6.6555,-6.6553,-6.6581,-6.662,-6.667,-6.6648,-6.6563,-6.6493,-6.6894,-6.7376,-6.7363,-6.7961,-6.8583,-6.8583,-6.8798,-6.9059,-6.9071,-6.9145,-6.9255,-6.9275,-6.9304,-6.9284,-6.9284,-6.9284,-6.9518,-7.018,-7.0289,-7.0307,-7.0298,-7.0185,-6.9667,-6.8606,-6.7721,-6.7185,-6.7185,-6.6756,-6.6131,-6.5273,-6.6009,-6.6661,-6.7103,-6.7368,-6.8132,-6.9548,-7.0793,-7.1446,-7.1481,-7.1201,-7.1197,-7.1504,-7.2286,-7.3017,-7.3628,-7.4698,-7.5424,-7.5844,-7.6227,-7.6685,-7.7105,-7.7335,-7.7526,-7.7719,-7.7827,-7.8154,-7.8414,-7.7693,-7.7066,-7.6443,-6.6697,-6.6362,-6.5978,-6.5658,-6.5585,-6.5585,-6.5585,-6.5975,-6.6366,-6.6756,-6.6795,-6.6795,-6.6795,-6.6795,-6.6795,-6.6795,-6.6817,-6.6787,-6.6784,-6.6793,-6.6795,-6.6795,-6.6797,-6.6794,-6.675,-6.6742,-6.6735,-6.6735,-6.6781,-6.6781,-6.6761,-6.6731,-6.6706,-6.6624,-6.6576,-6.6485,-6.64,-6.6415,-6.6445,-6.6445,-6.6555,-6.661,-6.661,-6.661,-6.661,-6.661,-6.661,-6.6627,-6.6651,-6.6672,-6.6691,-6.6791,-6.7243,-6.7348,-6.7413,-6.7745,-6.7837,-6.7917,-6.8268,-6.9056,-6.9819,-7.0208,-7.0367,-7.0433,-7.0376,-7.0424,-7.0511,-7.0493,-7.0474,-7.0453,-7.0453,-7.0453,-7.0609,-7.1076,-7.1185,-7.1174,-7.1204,-7.1246,-7.1117,-7.0648,-6.9835,-6.9294,-6.9294,-6.8513,-6.7771,-6.7264,-6.7643,-6.8092,-6.85,-6.9333,-6.9986,-7.0435,-7.1321,-7.1743,-7.1626,-7.1688,-7.1737,-7.1904,-7.339,-7.4354,-7.4851,-7.6074,-7.6876,-7.7296,-7.7296,-7.7564,-7.8022,-7.8022,-7.8213,-7.8597,-7.8789,-7.9089,-7.9318,-7.823,-7.7408,-7.6708,-6.6501,-6.6446,-6.6205,-6.562,-6.54,-6.5322,-6.5322,-6.5322,-6.5562,-6.6277,-6.6472,-6.6595,-6.6639,-6.6717,-6.6795,-6.6795,-6.6795,-6.6795,-6.6795,-6.6795,-6.6795,-6.6795,-6.6784,-6.6791,-6.6791,-6.6797,-6.6793,-6.6793,-6.6793,-6.6793,-6.6791,-6.6793,-6.6787,-6.6722,-6.6687,-6.6634,-6.6518,-6.6537,-6.6546,-6.6546,-6.6594,-6.665,-6.665,-6.6642,-6.6642,-6.6642,-6.6642,-6.675,-6.6916,-6.6916,-6.7082,-6.7416,-6.815,-6.8397,-6.8539,-6.9195,-6.8853,-6.8378,-6.9197,-7.0029,-7.0894,-7.1636,-7.1792,-7.1786,-7.1735,-7.1799,-7.1893,-7.1915,-7.1848,-7.1827,-7.1827,-7.1817,-7.17,-7.1477,-7.1585,-7.1612,-7.1347,-7.1494,-7.1591,-7.1591,-7.0933,-7.0504,-7.0504,-6.984,-6.9723,-7.0465,-7.0434,-7.045,-7.0606,-7.1263,-7.1661,-7.1817,-7.1817,-7.1844,-7.195,-7.2287,-7.2577,-7.2762,-7.4804,-7.5863,-7.6054,-7.7555,-7.8247,-7.8247,-7.8211,-7.829,-7.8366,-7.8366,-7.8825,-7.9474,-7.9474,-7.9895,-8.0315,-7.8634,-7.7722,-7.7179,-6.6314,-6.58,-6.5309,-6.5206,-6.4558,-6.4092,-6.4092,-6.4066,-6.4142,-6.4393,-6.5065,-6.5605,-6.5775,-6.6405,-6.6795,-6.6795,-6.6795,-6.6795,-6.6795,-6.6795,-6.6795,-6.6795,-6.68,-6.6805,-6.6805,-6.6809,-6.6813,-6.6813,-6.6813,-6.6784,-6.6796,-6.6784,-6.6794,-6.6784,-6.6711,-6.6703,-6.6673,-6.6683,-6.6678,-6.6667,-6.6794,-6.6835,-6.6836,-6.6834,-6.6832,-6.6832,-6.6832,-6.7336,-6.7952,-6.7952,-6.8433,-6.9062,-6.9247,-6.9289,-6.9293,-6.9367,-6.9308,-6.936,-7.0219,-7.0576,-7.0738,-7.0855,-7.0894,-7.0894,-7.0889,-7.1423,-7.1877,-7.1916,-7.1885,-7.1887,-7.1887,-7.1838,-7.136,-6.9938,-7.0298,-7.0307,-6.8882,-6.9334,-6.9816,-6.9816,-6.9678,-6.9606,-6.9606,-6.9489,-6.945,-6.9606,-6.9588,-6.988,-7.0567,-7.0736,-7.1097,-7.1778,-7.1817,-7.2082,-7.2656,-7.2707,-7.3704,-7.5678,-7.6712,-7.7576,-7.831,-7.9075,-7.9453,-7.9422,-7.9198,-7.9474,-8.0124,-8.0124,-8.02,-8.0315,-8.0315,-8.0391,-8.0315,-7.8634,-7.7948,-7.7645,-6.609,-6.5857,-6.5467,-6.5157,-6.476,-6.4333,-6.3867,-6.3789,-6.3832,-6.3896,-6.4704,-6.5338,-6.541,-6.6232,-6.6795,-6.6795,-6.6795,-6.6795,-6.6795,-6.6795,-6.6795,-6.6795,-6.6795,-6.6795,-6.6795,-6.6795,-6.6795,-6.6795,-6.6795,-6.6805,-6.682,-6.6805,-6.6813,-6.6793,-6.6752,-6.6754,-6.6757,-6.6756,-6.6756,-6.6757,-6.6862,-6.6891,-6.6891,-6.6901,-6.691,-6.6953,-6.7422,-6.7851,-6.8281,-6.875,-6.8828,-6.8828,-6.9291,-6.9169,-6.8896,-6.9286,-6.939,-6.9489,-6.9879,-6.9996,-6.9996,-6.9996,-6.9996,-7.0113,-7.0582,-7.1,-7.1377,-7.1806,-7.1901,-7.1915,-7.1915,-7.1867,-7.1594,-7.0823,-7.0676,-7.0536,-7.0192,-7.0128,-7.0258,-7.0727,-7.0375,-7.0102,-7.0102,-6.9673,-6.9588,-7.0011,-7.0036,-7.0411,-7.1252,-7.1263,-7.1399,-7.1778,-7.2245,-7.2885,-7.3639,-7.4444,-7.5641,-7.7175,-7.8325,-7.9129,-7.9492,-8.0215,-8.0502,-8.0362,-8.0241,-8.0267,-8.0506,-8.0506,-8.0506,-8.0506,-8.0506,-8.0238,-7.9704,-7.8443,-7.7717,-7.7144,-6.5827,-6.5913,-6.5749,-6.5296,-6.5079,-6.4653,-6.3779,-6.3507,-6.3347,-6.3162,-6.417,-6.4916,-6.4997,-6.6042,-6.6778,-6.6795,-6.6795,-6.6795,-6.6795,-6.6795,-6.6795,-6.6795,-6.6795,-6.6795,-6.6795,-6.6795,-6.6795,-6.6795,-6.6795,-6.6795,-6.6795,-6.6795,-6.6795,-6.6795,-6.6795,-6.6795,-6.6795,-6.6795,-6.6795,-6.6795,-6.6873,-6.6873,-6.6873,-6.6873,-6.7015,-6.7265,-6.7969,-6.8437,-6.8867,-6.9336,-6.918,-6.8866,-6.9273,-6.8986,-6.8557,-6.8964,-6.8956,-6.8864,-6.9294,-6.9255,-6.9098,-6.9098,-6.9098,-6.9255,-6.9957,-7.0258,-7.0564,-7.1189,-7.1331,-7.1316,-7.1316,-7.1464,-7.1464,-7.1082,-7.0863,-7.0753,-7.0993,-7.0654,-7.066,-7.1324,-7.0961,-7.072,-7.072,-7.0245,-7.0239,-7.0848,-7.0918,-7.1174,-7.1858,-7.1838,-7.1973,-7.2401,-7.3064,-7.3804,-7.47,-7.6232,-7.7532,-7.8582,-7.9718,-8.0373,-8.0567,-8.1159,-8.1285,-8.107,-8.0962,-8.0778,-8.0614,-8.0543,-8.0506,-8.0468,-8.0277,-7.9818,-7.9169,-7.8099,-7.7258,-7.657,-6.5482,-6.5635,-6.5597,-6.5548,-6.5013,-6.4232,-6.3372,-6.2651,-6.1957,-6.1311,-6.2664,-6.3829,-6.4081,-6.5592,-6.6642,-6.679,-6.6795,-6.6795,-6.6795,-6.6795,-6.6795,-6.6795,-6.6795,-6.6795,-6.6795,-6.6795,-6.6795,-6.6795,-6.6795,-6.6795,-6.6795,-6.6795,-6.6795,-6.6795,-6.6795,-6.6795,-6.6795,-6.6795,-6.6795,-6.6795,-6.6795,-6.6795,-6.6795,-6.6873,-6.736,-6.8039,-6.8163,-6.9219,-7.039,-6.9648,-6.9883,-7.039,-6.9624,-6.9377,-6.9142,-6.8401,-6.762,-6.7342,-6.8942,-6.8825,-6.82,-6.82,-6.82,-6.82,-6.8279,-6.8903,-6.9528,-6.9567,-6.9588,-6.9575,-6.9575,-7.0185,-7.0185,-6.8639,-6.9699,-7.0174,-6.8585,-6.902,-6.9528,-6.9567,-7.027,-7.0699,-7.0699,-7.1306,-7.1728,-7.1806,-7.1807,-7.1819,-7.1897,-7.1838,-7.2557,-7.4155,-7.4272,-7.4739,-7.5596,-7.7299,-7.8974,-8.0611,-8.0715,-8.1182,-8.1961,-8.1753,-8.166,-8.1581,-8.1098,-8.0869,-8.0837,-8.0614,-8.0506,-8.043,-7.9665,-7.9321,-7.9092,-7.7411,-7.6761,-7.657,-6.4719,-6.5178,-6.5552,-6.558,-6.5367,-6.4907,-6.4089,-6.3732,-6.3053,-6.1813,-6.2738,-6.34,-6.2991,-6.457,-6.5686,-6.5734,-6.6303,-6.6689,-6.6689,-6.6733,-6.6795,-6.6795,-6.6795,-6.6795,-6.6795,-6.6795,-6.6795,-6.6795,-6.6795,-6.6795,-6.6795,-6.6795,-6.6795,-6.6795,-6.6795,-6.6795,-6.6795,-6.6795,-6.6795,-6.6795,-6.6795,-6.6795,-6.6795,-6.6873,-6.7395,-6.8195,-6.8788,-6.9726,-7.0664,-7.0312,-7.0075,-6.9749,-6.8913,-6.8293,-6.7789,-6.7386,-6.7068,-6.6951,-6.7615,-6.7537,-6.7303,-6.7303,-6.7303,-6.7459,-6.7966,-6.8357,-6.8747,-6.9294,-6.9405,-6.9399,-6.9399,-7.0102,-7.0447,-6.9829,-7.0258,-7.0654,-7.0543,-7.0348,-7.0426,-7.0933,-7.1279,-7.1429,-7.1429,-7.1721,-7.1901,-7.1885,-7.1906,-7.1887,-7.1838,-7.2334,-7.3414,-7.5168,-7.6259,-7.7233,-7.8051,-7.9259,-8.0428,-8.1597,-8.1597,-8.1792,-8.2104,-8.1973,-8.1843,-8.1679,-8.131,-8.1041,-8.0869,-8.0614,-8.0506,-8.043,-7.9589,-7.8978,-7.8366,-7.7144,-7.6379,-7.5959,-6.4211,-6.4929,-6.5465,-6.5523,-6.5552,-6.5312,-6.4507,-6.4419,-6.3909,-6.2516,-6.2959,-6.3218,-6.2723,-6.3821,-6.4737,-6.5071,-6.5713,-6.6229,-6.6501,-6.6576,-6.6674,-6.6795,-6.6795,-6.6795,-6.6795,-6.6795,-6.6795,-6.6795,-6.6795,-6.6795,-6.6795,-6.6795,-6.6795,-6.6795,-6.6795,-6.6795,-6.6795,-6.6795,-6.6795,-6.6795,-6.6795,-6.6795,-6.6834,-6.7146,-6.7789,-6.8625,-6.953,-7.039,-7.1015,-7.0508,-6.9918,-6.9199,-6.8132,-6.7395,-6.6895,-6.68,-6.6795,-6.6795,-6.6795,-6.6795,-6.6795,-6.6795,-6.6795,-6.6951,-6.7576,-6.7693,-6.7849,-6.8474,-6.8591,-6.8669,-6.8942,-6.9684,-7.0387,-7.066,-7.0933,-7.1324,-7.1909,-7.148,-7.1324,-7.1948,-7.1982,-7.193,-7.193,-7.1909,-7.1885,-7.1906,-7.2131,-7.2384,-7.2596,-7.3453,-7.4739,-7.6454,-7.7935,-7.922,-8.0312,-8.0896,-8.1519,-8.2104,-8.2104,-8.2104,-8.2104,-8.2104,-8.2012,-8.1809,-8.1453,-8.1207,-8.1022,-8.0646,-8.0506,-8.0391,-7.9321,-7.8519,-7.787,-7.6723,-7.6112,-7.5959,-6.4,-6.484,-6.5375,-6.5413,-6.5435,-6.5226,-6.4422,-6.4364,-6.4112,-6.323,-6.3115,-6.3207,-6.3454,-6.3475,-6.3903,-6.4993,-6.5071,-6.5421,-6.6237,-6.6314,-6.6438,-6.679,-6.6795,-6.6795,-6.6795,-6.6795,-6.6795,-6.6795,-6.6795,-6.6795,-6.6795,-6.6795,-6.6795,-6.6795,-6.6795,-6.6795,-6.6795,-6.6795,-6.6795,-6.6795,-6.6795,-6.6795,-6.6912,-6.7771,-6.8648,-6.9523,-7.039,-7.125,-7.1758,-7.0078,-6.9453,-6.9101,-6.7438,-6.6912,-6.6873,-6.6834,-6.6795,-6.6795,-6.6795,-6.6795,-6.6795,-6.6795,-6.6795,-6.6795,-6.6795,-6.6795,-6.6795,-6.6795,-6.6795,-6.7068,-6.7966,-6.8825,-6.9684,-7.0543,-7.1441,-7.1987,-7.1987,-7.1987,-7.1987,-7.1987,-7.1987,-7.1987,-7.1987,-7.1955,-7.1893,-7.1893,-7.2667,-7.3492,-7.435,-7.5246,-7.6493,-7.8246,-7.9104,-8.035,-8.2065,-8.2104,-8.2104,-8.2104,-8.2104,-8.2104,-8.2104,-8.2104,-8.2104,-8.2052,-8.154,-8.131,-8.1285,-8.0711,-8.0506,-8.0315,-7.8634,-7.8022,-7.7793,-7.6112,-7.5997,-7.6685,-6.3062,-6.3962,-6.4726,-6.5299,-6.5444,-6.5329,-6.51,-6.5091,-6.4814,-6.4029,-6.3953,-6.351,-6.2425,-6.2848,-6.3128,-6.2876,-6.3513,-6.4328,-6.5336,-6.5918,-6.629,-6.6438,-6.6438,-6.6438,-6.6438,-6.6438,-6.6524,-6.6681,-6.6681,-6.6713,-6.6795,-6.6795,-6.6795,-6.6795,-6.6795,-6.6795,-6.6795,-6.6795,-6.7146,-6.7693,-6.7693,-6.8083,-6.863,-6.8908,-6.9538,-7.0366,-7.0623,-7.1189,-7.1622,-6.9925,-6.9262,-6.8919,-6.7258,-6.6791,-6.6844,-6.6828,-6.6781,-6.6805,-6.6789,-6.6781,-6.6795,-6.6795,-6.6795,-6.6795,-6.6795,-6.6795,-6.6951,-6.7576,-6.7693,-6.7966,-6.8864,-6.9723,-7.0387,-7.066,-7.1441,-7.1987,-7.1987,-7.1987,-7.1987,-7.1987,-7.1987,-7.1987,-7.1987,-7.1955,-7.1893,-7.1893,-7.2667,-7.3492,-7.435,-7.5791,-7.7389,-7.9104,-7.9961,-8.0974,-8.2104,-8.2104,-8.2104,-8.2104,-8.2104,-8.2104,-8.2104,-8.2104,-8.2104,-8.2091,-8.1717,-8.1561,-8.154,-8.0983,-8.0433,-7.9818,-7.8512,-7.764,-7.6953,-7.5883,-7.5997,-7.68,-6.1964,-6.313,-6.4184,-6.481,-6.5184,-6.5413,-6.5413,-6.5413,-6.5253,-6.4785,-6.4441,-6.3858,-6.2908,-6.2946,-6.2897,-6.2425,-6.2925,-6.3576,-6.4211,-6.5023,-6.5507,-6.5606,-6.5916,-6.6146,-6.6314,-6.6314,-6.6358,-6.6477,-6.6477,-6.6524,-6.6585,-6.6585,-6.6585,-6.6585,-6.6585,-6.6585,-6.6585,-6.6585,-6.7092,-6.7911,-6.792,-6.8475,-6.9294,-6.9646,-7.0128,-7.0642,-7.0982,-7.1146,-7.1025,-6.9672,-6.8739,-6.793,-6.6978,-6.6696,-6.6716,-6.6752,-6.6757,-6.6757,-6.6754,-6.6757,-6.6756,-6.6756,-6.6781,-6.6795,-6.6795,-6.7068,-6.7459,-6.8005,-6.8357,-6.8864,-6.9762,-7.0348,-7.0816,-7.1167,-7.1675,-7.1987,-7.1987,-7.1987,-7.1987,-7.1987,-7.1967,-7.1967,-7.1943,-7.1897,-7.2151,-7.2842,-7.3358,-7.4155,-7.5363,-7.6765,-7.8129,-7.9454,-8.035,-8.1208,-8.2104,-8.2104,-8.2104,-8.2104,-8.2104,-8.2104,-8.2104,-8.2104,-8.2104,-8.2104,-8.1826,-8.166,-8.1497,-8.107,-8.0376,-7.9445,-7.8397,-7.7487,-7.6609,-7.5806,-7.6227,-7.7296,-6.0884,-6.2277,-6.3588,-6.4031,-6.4749,-6.5283,-6.5283,-6.5314,-6.5345,-6.5345,-6.4764,-6.4297,-6.4279,-6.358,-6.3072,-6.2974,-6.2974,-6.2962,-6.2962,-6.3806,-6.4331,-6.4488,-6.5256,-6.5851,-6.6251,-6.6267,-6.6267,-6.6283,-6.6283,-6.6299,-6.6314,-6.6314,-6.6314,-6.6314,-6.6314,-6.6314,-6.6314,-6.6392,-6.6936,-6.7752,-6.786,-6.8458,-6.9328,-7.0169,-7.0523,-7.063,-7.1405,-7.1171,-7.0356,-6.9382,-6.7965,-6.6574,-6.6594,-6.6585,-6.6615,-6.6655,-6.6712,-6.6717,-6.6673,-6.6751,-6.6834,-6.6834,-6.6914,-6.7004,-6.6926,-6.759,-6.8215,-6.8293,-6.8956,-6.9776,-7.0635,-7.0787,-7.106,-7.1846,-7.1997,-7.1997,-7.1963,-7.1963,-7.1963,-7.1963,-7.1949,-7.1911,-7.1909,-7.185,-7.25,-7.4177,-7.435,-7.5129,-7.6804,-7.7857,-7.8753,-7.9493,-8.0428,-8.1286,-8.2104,-8.2104,-8.2104,-8.2104,-8.2104,-8.2104,-8.2104,-8.2104,-8.2104,-8.2104,-8.1843,-8.1561,-8.1335,-8.1041,-8.0241,-7.9165,-7.829,-7.7411,-7.6494,-7.5844,-7.6609,-7.8022,-6.0379,-6.1431,-6.2372,-6.305,-6.3842,-6.437,-6.437,-6.4666,-6.4951,-6.4951,-6.5067,-6.4917,-6.4297,-6.4029,-6.3379,-6.207,-6.1917,-6.1983,-6.2076,-6.2842,-6.3636,-6.4408,-6.46,-6.5064,-6.5919,-6.5967,-6.6041,-6.6129,-6.6129,-6.6221,-6.6314,-6.6314,-6.6314,-6.6314,-6.6314,-6.6314,-6.6353,-6.7052,-6.7829,-6.8684,-6.943,-7.0285,-7.107,-7.1311,-7.1442,-7.1417,-7.1649,-7.1514,-7.101,-6.9399,-6.7771,-6.6438,-6.6489,-6.6563,-6.6595,-6.6624,-6.6674,-6.6706,-6.665,-6.7142,-6.7727,-6.7727,-6.8215,-6.8499,-6.7874,-6.8382,-6.9163,-6.9827,-7.0139,-7.053,-7.1392,-7.1601,-7.1679,-7.1825,-7.1874,-7.1914,-7.1864,-7.1822,-7.1822,-7.1822,-7.1864,-7.191,-7.1913,-7.1903,-7.2333,-7.3392,-7.4041,-7.4856,-7.5947,-7.8051,-7.9337,-7.9493,-8.1013,-8.1909,-8.2104,-8.2104,-8.2104,-8.2104,-8.2104,-8.2104,-8.2104,-8.2104,-8.2104,-8.2104,-8.2039,-8.1859,-8.1581,-8.1335,-8.0183,-7.8545,-7.8129,-7.7067,-7.5806,-7.6265,-7.7105,-7.829,-5.943,-6.0257,-6.116,-6.2181,-6.297,-6.3646,-6.4059,-6.4331,-6.452,-6.4775,-6.4985,-6.5029,-6.4802,-6.4764,-6.4229,-6.293,-6.2471,-6.208,-6.1726,-6.249,-6.3016,-6.3138,-6.3904,-6.4583,-6.5126,-6.5536,-6.582,-6.5974,-6.5974,-6.6041,-6.6128,-6.6128,-6.6128,-6.6128,-6.6128,-6.6322,-6.6709,-6.7173,-6.7869,-6.8721,-6.9266,-6.975,-7.0234,-7.0719,-7.0893,-7.0943,-7.1369,-7.0943,-6.9938,-6.8158,-6.6998,-6.6303,-6.6422,-6.6461,-6.6581,-6.7035,-6.7214,-6.7286,-6.7696,-6.8148,-6.8504,-6.8504,-6.9128,-6.9509,-6.8769,-6.921,-6.9952,-7.042,-7.081,-7.1245,-7.1714,-7.1815,-7.1822,-7.1797,-7.1815,-7.1858,-7.1797,-7.1792,-7.1792,-7.1792,-7.1831,-7.188,-7.1897,-7.1912,-7.2271,-7.3133,-7.3961,-7.4782,-7.5635,-7.8129,-7.9493,-7.9493,-8.1208,-8.2104,-8.2104,-8.2104,-8.2104,-8.2104,-8.2104,-8.2104,-8.2104,-8.2104,-8.2104,-8.2104,-8.2104,-8.1859,-8.1497,-8.1359,-8.0337,-7.8798,-7.8668,-7.7564,-7.615,-7.7029,-7.8099,-7.9436,-5.8455,-5.9208,-6.0115,-6.108,-6.2058,-6.2882,-6.3593,-6.3859,-6.4099,-6.4331,-6.4441,-6.4544,-6.4731,-6.4679,-6.4398,-6.3809,-6.3083,-6.2319,-6.144,-6.2204,-6.2386,-6.1781,-6.3093,-6.4029,-6.4353,-6.5043,-6.5548,-6.5872,-6.5872,-6.5872,-6.5872,-6.5897,-6.5974,-6.609,-6.609,-6.6551,-6.7321,-6.7321,-6.7744,-6.8398,-6.855,-6.8598,-6.8675,-6.9507,-6.9783,-6.9899,-7.075,-7.017,-6.8777,-6.7152,-6.6554,-6.6419,-6.6397,-6.651,-6.6799,-6.7581,-6.7907,-6.8179,-6.8917,-6.9189,-6.9306,-6.9306,-6.9927,-7.0339,-6.9761,-7.0192,-7.07,-7.07,-7.1246,-7.176,-7.176,-7.1767,-7.1774,-7.176,-7.1767,-7.1774,-7.176,-7.176,-7.176,-7.176,-7.1776,-7.1823,-7.1875,-7.1913,-7.2248,-7.3114,-7.3804,-7.4585,-7.5441,-7.7896,-7.9298,-7.9298,-8.113,-8.2104,-8.2104,-8.2104,-8.2104,-8.2104,-8.1948,-8.1948,-8.2104,-8.2104,-8.2104,-8.2104,-8.2104,-8.1809,-8.131,-8.131,-8.0521,-7.9283,-7.9283,-7.8328,-7.7029,-7.7908,-7.9283,-8.085,-5.8088,-5.875,-5.9338,-5.9504,-6.0756,-6.1835,-6.1945,-6.2863,-6.3363,-6.2742,-6.2925,-6.2937,-6.2259,-6.183,-6.1673,-6.1908,-6.186,-6.144,-6.0599,-6.1325,-6.1707,-6.1659,-6.185,-6.272,-6.4269,-6.4422,-6.4862,-6.5635,-6.5767,-6.582,-6.582,-6.5872,-6.6282,-6.6936,-6.6936,-6.7436,-6.8244,-6.8244,-6.8282,-6.8398,-6.855,-6.8598,-6.8636,-6.8889,-6.897,-6.9087,-6.986,-7.0015,-6.9705,-6.8761,-6.7987,-6.7271,-6.6605,-6.6894,-6.757,-6.7736,-6.8334,-6.8956,-6.9072,-6.9616,-7.016,-7.016,-7.0782,-7.142,-7.1311,-7.135,-7.1427,-7.1427,-7.1544,-7.1622,-7.1622,-7.1653,-7.1689,-7.1651,-7.1692,-7.1689,-7.1651,-7.1622,-7.1622,-7.1622,-7.1731,-7.1809,-7.1901,-7.1897,-7.2265,-7.315,-7.3315,-7.3727,-7.4544,-7.7038,-7.848,-7.848,-8.0818,-8.2104,-8.2104,-8.2104,-8.2104,-8.2104,-8.1325,-8.1364,-8.2104,-8.2104,-8.2104,-8.2104,-8.2104,-8.1809,-8.131,-8.131,-8.0521,-7.9283,-7.9283,-7.871,-7.7946,-7.8787,-8.02,-8.1729,-5.7997,-5.829,-5.8694,-5.9134,-6.0162,-6.108,-6.152,-6.245,-6.2909,-6.2369,-6.2481,-6.2354,-6.1769,-6.1687,-6.1771,-6.197,-6.2192,-6.2166,-6.1822,-6.1669,-6.1593,-6.1593,-6.1593,-6.1965,-6.2796,-6.3753,-6.4403,-6.4843,-6.5416,-6.5931,-6.643,-6.6473,-6.6961,-6.7768,-6.7795,-6.8052,-6.8398,-6.8398,-6.8129,-6.7667,-6.7817,-6.7595,-6.7209,-6.7845,-6.8081,-6.8197,-6.9048,-6.9628,-6.9881,-6.911,-6.8626,-6.8259,-6.7924,-6.8114,-6.8519,-6.9018,-6.9461,-6.9888,-7.0354,-7.0743,-7.1015,-7.1015,-7.1326,-7.1598,-7.1598,-7.1598,-7.1598,-7.1598,-7.1598,-7.1598,-7.1598,-7.1622,-7.1651,-7.1614,-7.1622,-7.1651,-7.1614,-7.1598,-7.1614,-7.1661,-7.1719,-7.1838,-7.1885,-7.1948,-7.2101,-7.2461,-7.2925,-7.3373,-7.3718,-7.6166,-7.755,-7.7584,-8.0039,-8.113,-8.0662,-8.113,-8.113,-8.0623,-8.0273,-8.0545,-8.1364,-8.1364,-8.1364,-8.1403,-8.187,-8.1809,-8.131,-8.131,-8.079,-7.9933,-7.9474,-7.9321,-7.9436,-7.9818,-8.1347,-8.3181]}]]